.

MPMG - Transparência

Contracheque - Verbas indenizatórias e outras remunerações temporárias - Tabela III (Resolução nº 200/2019) - Pós Resolução CNMP 200/2019

Período: 2021 - Maio

Ordem Matrícula Nome Cargo Lotação Verbas Indenizatórias *1 Outras Remunerações Temporárias *2 Data de Referência
Auxílio Alimentação Auxílio Creche Auxílio Saúde Auxílio Transporte Estagiário Indenizações Indenizações e Diligênias Adicionais de Periculosidade e Insalubridade Gratificações Outras Remunerações
1 498900 ABDON MARCIO BARBOSA DA SILVA OFICIAL DO MP ABRE CAMPO - COMARCA; ABRE CAMPO-PJ-01PJ 1.198,00 0,00 519,00 0,00 0,00 730,40 0,00 0,00 0,00 31/05/2021
2 293600 ABELARDO GUIMARAES CASTRO PROMOT.ENTRANC.ESPECIAL BELO HORIZONTE - COMARCA; BH-08PJ JUIZADO ESPECIAL-GAB 168PJ 1.198,00 0,00 2.689,80 0,00 10.106,73 0,00 0,00 0,00 514,69 31/05/2021
3 1237800 ABIGAIL LUISA MOURA MAGALHAES DORNELAS ESTAGIARIO ABRE CAMPO; ABRE CAMPO-PJ-01PJ 0,00 0,00 0,00 99,00 0,00 0,00 0,00 0,00 0,00 31/05/2021
4 99200 ADALBERTO DE PAULA CHRISTO LEITE PROMOT.ENTRANC.ESPECIAL SÃO JOÃO DEL REI - COMARCA; SAO JOAO DEL REI-PJ-02PJ 1.198,00 0,00 3.368,91 0,00 16.844,55 0,00 0,00 0,00 514,69 31/05/2021
5 177800 ADALBERTO MENEZES FARIA SAMORA OFICIAL DO MP BELO HORIZONTE - COMARCA; DIR ESTRUTURA E PROCESSOS ORGANIZACIONAIS 1.198,00 0,00 519,00 0,00 0,00 0,00 0,00 0,00 0,00 31/05/2021
6 306400 ADALBERTO MOREIRA GONCALVES ANALISTA DO MP BELO HORIZONTE - COMARCA; BH-24PJ JUIZO REG BARREIRO-SECRETARIA 1.198,00 0,00 519,00 0,00 871,04 0,00 0,00 0,00 79,85 31/05/2021
7 1150100 ADAO ABADE DE BARROS JUNIOR ESTAGIARIO OLIVEIRA; OLIVEIRA-PJ-01PJ
8 100400 ADELAIDE CRISTINA DE CARVALHO MACHADO PROCURADOR DE JUSTICA BELO HORIZONTE - COMARCA; GABINETE DE PROCURADOR DE JUSTIÇA - SALA 708 1.198,00 0,00 997,83 0,00 17.731,11 0,00 0,00 0,00 541,78 31/05/2021
9 96500 ADELIA LAGE DE OLIVEIRA PROCURADOR DE JUSTICA BELO HORIZONTE - COMARCA; GABINETE DE PROCURADOR DE JUSTIÇA - SALA 403 1.198,00 0,00 1.301,52 0,00 17.731,11 0,00 0,00 0,00 541,78 31/05/2021
10 49200 ADEMAR PEREIRA PROMOTOR 2A ENTRANCIA MACHADO - COMARCA; MACHADO-PJ-01PJ 1.198,00 0,00 3.036,88 0,00 16.002,33 0,00 0,00 0,00 488,96 31/05/2021
11 179300 ADENISE AUXILIADORA SOUZA SAD OFICIAL DO MP BARBACENA - COMARCA; BARBACENA-PJ-06PJ 1.198,00 0,00 519,00 0,00 0,00 0,00 0,00 0,00 0,00 31/05/2021
12 272200 ADILSON BATISTA ORNELAS OFICIAL DO MP LAVRAS - COMARCA; LAVRAS-PJ-SECRETARIA 1.198,00 0,00 519,00 0,00 0,00 0,00 0,00 0,00 0,00 31/05/2021
13 143000 ADILSON DE OLIVEIRA NASCIMENTO PROCURADOR DE JUSTICA BELO HORIZONTE - COMARCA; GABINETE DE PROCURADOR DE JUSTIÇA - SALA 614 1.198,00 0,00 3.422,57 0,00 17.731,11 0,00 0,00 0,00 541,78 31/05/2021
14 380100 ADILSON GONCALVES DE MELO JUNIOR ANALISTA DO MP ARAXÁ - COMARCA; ARAXA-PJ-05PJ 1.198,00 769,39 519,00 0,00 0,00 0,00 0,00 0,00 0,00 31/05/2021
15 148800 ADILSON JANUARIO OFICIAL DO MP BELO HORIZONTE - COMARCA; BH-22PJ PES COM DEF E IDOSOS-SECRETARIA 1.198,00 0,00 519,00 0,00 5.119,08 0,00 0,00 0,00 469,25 31/05/2021
16 322601 ADMILSON SILVEIRA ANALISTA DO MP SAO JOAO DO PARAISO COMARCA; SAO JOAO DO PARAISO-PJ-UNPJ 1.198,00 0,00 519,00 0,00 0,00 0,00 0,00 0,00 0,00 31/05/2021
17 1067600 ADNEIA CARVALHO NUNES ESTAGIARIO JANUARIA; JANUARIA-PJ-01PJ 0,00 0,00 0,00 180,00 0,00 0,00 0,00 0,00 0,00 31/05/2021
18 1286200 ADOLPHO ALEXANDER VON RANDOW ESTAGIARIO BELO HORIZONTE; PROC JUST RECURSOS ESP E EXTRAORD CRIMINAIS 0,00 0,00 0,00 36,00 0,00 0,00 0,00 0,00 0,00 31/05/2021
19 333700 ADRIANA ABRITTA TEIXEIRA OFICIAL DO MP BELO HORIZONTE - COMARCA; DIRET DE PESSOAL DO MINISTERIO PUBLICO - DPMP 1.198,00 0,00 519,00 0,00 0,00 0,00 0,00 0,00 0,00 31/05/2021
20 468500 ADRIANA APARECIDA FIRMINO ANALISTA DO MP CARATINGA - COMARCA; CARATINGA-PJ-04PJ 1.198,00 769,39 519,00 0,00 0,00 0,00 0,00 0,00 0,00 31/05/2021
21 326100 ADRIANA AUGUSTA AMARAL BELO OFICIAL DO MP BARBACENA - COMARCA; BARBACENA-PJ-08PJ 1.198,00 0,00 519,00 0,00 0,00 0,00 0,00 0,00 0,00 31/05/2021
22 363000 ADRIANA CARVALHO PEREIRA E SILVA COSTA PROMOTOR 2A ENTRANCIA ALÉM PARAÍBA - COMARCA; ALEM PARAIBA-PJ-02PJ 1.198,00 0,00 2.537,96 0,00 16.002,33 0,00 0,00 0,00 488,96 31/05/2021
23 605700 ADRIANA COSTA LIRA ASSESSOR/OFICIAL BELO HORIZONTE - COMARCA; COORD ESTADUAL DE DEFESA DA EDUCACAO 1.198,00 0,00 519,00 0,00 0,00 0,00 0,00 0,00 0,00 31/05/2021
24 541100 ADRIANA CRISTINA DE OLIVEIRA OFICIAL DO MP GUAPÉ - COMARCA; GUAPE-PJ-UNPJ 1.198,00 769,39 519,00 0,00 0,00 0,00 0,00 0,00 0,00 31/05/2021
25 254800 ADRIANA DAS GRACAS FERNANDES ANALISTA DO MP UBERABA - COMARCA; UBERABA-PJ-07PJ 1.198,00 0,00 519,00 0,00 4.924,12 0,00 0,00 0,00 451,38 31/05/2021
26 217400 ADRIANA DE CARVALHO CATAO BRAGA ASSESSOR BELO HORIZONTE - COMARCA; DIV FISCAL ADM CONT TERCEIRIZACAO 1.198,00 0,00 519,00 0,00 0,00 0,00 0,00 0,00 0,00 31/05/2021
27 434600 ADRIANA FERREIRA DA SILVA ANALISTA DO MP BELO HORIZONTE - COMARCA; BH-14PJ DEFESA CONSUMIDOR-GAB 112PJ 1.198,00 0,00 519,00 0,00 0,00 0,00 0,00 0,00 0,00 31/05/2021
28 499800 ADRIANA FERREIRA TIAGO OFICIAL DO MP SALINAS - COMARCA; SALINAS-PJ-02PJ 1.198,00 0,00 519,00 0,00 0,00 0,00 0,00 0,00 0,00 31/05/2021
29 543400 ADRIANA GUIMARAES NUNES DE PAULA ANALISTA DO MP PATROCÍNIO - COMARCA; PATROCINIO-PJ-01PJ 1.198,00 0,00 519,00 0,00 0,00 0,00 0,00 0,00 0,00 31/05/2021
30 471500 ADRIANA HORTA DE CARVALHO RODRIGUES DE SOUSA ANALISTA DO MP BELO HORIZONTE - COMARCA; GRUPO ESP PROM JUST DEF PROB ADM PAT PUB 1.198,00 0,00 519,00 0,00 0,00 0,00 0,00 0,00 0,00 31/05/2021
31 314300 ADRIANA JULIA DE SOUZA PROMOT.ENTRANC.ESPECIAL BELO HORIZONTE - COMARCA; BH-25PJ DEFESA DA EDUCACAO-GAB 050PJ 1.198,00 0,00 3.158,04 0,00 11.229,70 0,00 0,00 0,00 0,00 31/05/2021
32 1148500 ADRIANA LACERDA SOARES ESTAGIARIO RAUL SOARES; RAUL SOARES-PJ-UNPJ
33 86400 ADRIANA MOREIRA CALDEIRA BRANT OFICIAL DO MP BELO HORIZONTE - COMARCA; BH-21PJ TUTELA FUNDACOES-SECRETARIA 1.198,00 0,00 519,00 0,00 0,00 0,00 0,00 0,00 0,00 31/05/2021
34 480700 ADRIANA MOREIRA DE AVELLAR CEZILIO OFICIAL DO MP BELO HORIZONTE - COMARCA; BH-18PJ VIOLENCIA DOMESTICA-SECRETARIA 1.198,00 0,00 519,00 0,00 0,00 0,00 0,00 0,00 0,00 31/05/2021
35 326000 ADRIANA PEREIRA CARNEIRO RESENDE OFICIAL DO MP BELO HORIZONTE - COMARCA; BH-25PJ DEFESA DA EDUCACAO-SECRETARIA 1.198,00 0,00 519,00 0,00 0,00 0,00 0,00 0,00 0,00 31/05/2021
36 502200 ADRIANA PETRUCCI DAVINA OFICIAL DO MP PATROCÍNIO - COMARCA; PATROCINIO-PJ-01PJ 1.198,00 769,39 519,00 0,00 0,00 0,00 0,00 0,00 0,00 31/05/2021
37 685200 ADRIANA PRATES DOS SANTOS PROMOTOR SUBSTITUTO NOVA SERRANA - COMARCA; NOVA SERRANA-PJ-04PJ 1.198,00 0,00 661,37 0,00 0,00 0,00 0,00 0,00 0,00 31/05/2021
38 201900 ADRIANA REIS PIMENTA OFICIAL DO MP TEÓFILO OTONI - COMARCA; TEOFILO OTONI-PJ-03PJ 1.198,00 0,00 519,00 0,00 0,00 0,00 0,00 0,00 0,00 31/05/2021
39 278700 ADRIANA RODRIGUES PINTO COELHO AMARAL ANALISTA DO MP BELO HORIZONTE - COMARCA; CGMP-ASSESSORIA JURIDICA 1.198,00 0,00 519,00 0,00 905,52 0,00 0,00 0,00 83,01 31/05/2021
40 468000 ADRIANA SANTOS DE SANTANA MOREIRA ANALISTA DO MP ARAÇUAÍ - COMARCA; ARACUAI-PJ-02PJ 1.198,00 0,00 519,00 0,00 0,00 0,00 0,00 0,00 0,00 31/05/2021
41 290900 ADRIANA TORRES BECK PROMOT.ENTRANC.ESPECIAL BELO HORIZONTE - COMARCA; BH-18PJ VIOLENCIA DOMESTICA-GAB 124PJ 1.198,00 0,00 3.123,64 0,00 0,00 0,00 0,00 0,00 0,00 31/05/2021
42 194700 ADRIANA TSUKIDE OFICIAL DO MP UBERABA - COMARCA; COORD REG BACIAS PARANAIBA BAIXO RIO GRANDE 1.198,00 0,00 519,00 0,00 0,00 0,00 0,00 0,00 0,00 31/05/2021
43 1202300 ADRIANA TULIO DUARTE DOS SANTOS ESTAGIARIO IPATINGA; IPATINGA-PJ-05PJ 0,00 0,00 0,00 27,00 0,00 0,00 0,00 0,00 0,00 31/05/2021
44 291500 ADRIANA VITAL DO VALLE PROMOT.ENTRANC.ESPECIAL SÃO JOÃO DEL REI - COMARCA; SAO JOAO DEL REI-PJ-06PJ 1.198,00 0,00 2.342,73 0,00 5.614,85 0,00 0,00 0,00 514,69 31/05/2021
45 212900 ADRIANO ARANTES BOZOLA PROMOT.ENTRANC.ESPECIAL UBERLÂNDIA - COMARCA; UBERLANDIA-PJ-21PJ 1.198,00 0,00 3.368,91 0,00 16.844,55 0,00 0,00 0,00 514,69 31/05/2021
46 174200 ADRIANO BOTELHO ESTRELA PROMOT.ENTRANC.ESPECIAL BELO HORIZONTE - COMARCA; BH-12PJ JUIZO CRIMINAL-GAB 095PJ 1.198,00 0,00 1.952,27 0,00 5.614,85 0,00 0,00 0,00 514,69 31/05/2021
47 465500 ADRIANO CASSIANO MATOS ANALISTA DO MP ARAXÁ - COMARCA; ARAXA-PJ-02PJ 1.198,00 0,00 519,00 0,00 0,00 0,00 0,00 0,00 0,00 31/05/2021
48 500500 ADRIANO DE ALMEIDA SILVA OFICIAL DO MP UBERABA - COMARCA; UBERABA-PJ-12PJ 1.198,00 769,39 519,00 0,00 0,00 0,00 0,00 0,00 0,00 31/05/2021
49 187200 ADRIANO DE FREITAS MARON OFICIAL DO MP PONTE NOVA - COMARCA; PONTE NOVA-PJ-03PJ 1.198,00 0,00 519,00 0,00 957,70 0,00 0,00 0,00 87,79 31/05/2021
50 344000 ADRIANO DUTRA GOMES DE FARIA PROMOT.ENTRANC.ESPECIAL VESPASIANO - COMARCA; VESPASIANO-PJ-04PJ 1.198,00 0,00 2.494,58 0,00 5.614,85 0,00 0,00 0,00 514,69 31/05/2021
51 477900 ADRIANO FERREIRA DE ALMEIDA OFICIAL DO MP TAIOBEIRAS - COMARCA; TAIOBEIRAS-PJ-UNPJ 1.198,00 0,00 519,00 0,00 0,00 419,98 0,00 0,00 0,00 31/05/2021
52 269101 ADRIANO PEREIRA SILVA ANALISTA DO MP UBERABA - COMARCA; UBERABA-PJ-02PJ 1.198,00 769,39 519,00 0,00 0,00 0,00 0,00 0,00 0,00 31/05/2021
53 414200 ADRIANO RODRIGUES FERNANDES ANALISTA DO MP CARANDAÍ - COMARCA; CARANDAI-PJ-UNPJ 1.198,00 0,00 519,00 0,00 0,00 0,00 0,00 0,00 0,00 31/05/2021
54 536700 ADRIELLE COSTA MARIA MOURAO FIGUEIREDO OFICIAL DO MP SERRO - COMARCA; SERRO-PJ-SECRETARIA 1.198,00 769,39 519,00 0,00 0,00 0,00 0,00 0,00 0,00 31/05/2021
55 514300 ADRIENE DAMASCENO BRAGA ANALISTA DO MP ALFENAS - COMARCA; ALFENAS-PJ-03PJ 1.198,00 769,39 519,00 0,00 0,00 0,00 0,00 0,00 0,00 31/05/2021
56 254600 ADRIENE DOMINGUES COSTA ANALISTA DO MP BELO HORIZONTE - COMARCA; SUPERINTENDENCIA GESTÃO DE PESSOAS
57 252001 ADRIENE GOMES BARRETO ANALISTA DO MP BELO HORIZONTE - COMARCA; BH-19PJ SAUDE-SECRETARIA 047PJ 1.198,00 0,00 519,00 0,00 0,00 0,00 0,00 0,00 0,00 31/05/2021
58 84100 ADROALDO JUNQUEIRA AYRES NETO PROMOT.ENTRANC.ESPECIAL UBERABA - COMARCA; UBERABA-PJ-12PJ 1.198,00 0,00 3.368,91 0,00 5.614,85 0,00 0,00 0,00 514,69 31/05/2021
59 1167400 ADSON GUSTAVO DE OLIVEIRA ESTAGIARIO BELO HORIZONTE; PROC. JUSTICA CRIMINAL 0,00 0,00 0,00 162,00 0,00 0,00 0,00 0,00 0,00 31/05/2021
60 162700 AECIO RABELO PROMOTOR 2A ENTRANCIA LAVRAS - COMARCA; LAVRAS-PJ-04PJ 1.198,00 0,00 2.429,50 0,00 5.334,11 0,00 0,00 0,00 488,96 31/05/2021
61 645000 AFONSO CELSO GUIMARAES JUNIOR OFICIAL DO MP PIRAPORA - COMARCA; PIRAPORA-PJ-01PJ 1.198,00 0,00 519,00 0,00 0,00 0,00 0,00 0,00 175,04 31/05/2021
62 97600 AFONSO HENRIQUE DE MIRANDA TEIXEIRA PROCURADOR DE JUSTICA BELO HORIZONTE - COMARCA; CAO-CONFLITOS AGRARIOS 1.198,00 0,00 3.318,86 0,00 17.731,11 0,00 0,00 0,00 541,78 31/05/2021
63 1207200 AFRA YASMIM DA SILVA ESTAGIARIO BELO HORIZONTE; DIRET DE FORMACAO, APERFEIC. E POS-GRADUACAO
64 610000 AGENOR ANDRADE LEAO PROMOT.ENTRANC.ESPECIAL TEÓFILO OTONI - COMARCA; TEOFILO OTONI-PJ-05PJ 1.198,00 0,00 2.898,90 0,00 16.844,55 0,00 0,00 0,00 514,69 31/05/2021
65 302500 AGENOR JOSE DA SILVA JUNIOR ANALISTA DO MP JUIZ DE FORA - COMARCA; JUIZ DE FORA-PJ-14PJ 1.198,00 0,00 519,00 0,00 871,04 0,00 0,00 0,00 79,85 31/05/2021
66 344100 AGNALDO LUCAS COTRIM PROMOT.ENTRANC.ESPECIAL POUSO ALEGRE - COMARCA; POUSO ALEGRE-PJ-02PJ 1.198,00 0,00 2.659,35 0,00 16.844,55 0,00 0,00 0,00 514,69 31/05/2021
67 67400 AIDA FERNANDES LISBOA MARINHO PROCURADOR DE JUSTICA BELO HORIZONTE - COMARCA; GABINETE DE PROCURADOR DE JUSTIÇA - SALA 604 1.198,00 0,00 2.386,12 0,00 17.731,11 0,00 0,00 0,00 541,78 31/05/2021
68 1160200 AIESKA TALITA QUEIROZ MOTA ESTAGIARIO PIRAPORA; PIRAPORA-PJ-01PJ 0,00 0,00 0,00 171,00 0,00 0,00 0,00 0,00 0,00 31/05/2021
69 1194700 AILA QUINTAO MAYR ESTAGIARIO BELO HORIZONTE; BH-26 CRIME CONT CRIAN ADOL 0,00 0,00 0,00 171,00 0,00 0,00 0,00 0,00 0,00 31/05/2021
70 357500 AILSON WAGNER DE ALENCAR SILVA OFICIAL DO MP BELO HORIZONTE - COMARCA; BH-12PJ JUIZO CRIMINAL-SECRETARIA 1.198,00 0,00 519,00 0,00 0,00 0,00 0,00 0,00 0,00 31/05/2021
71 366400 AILTON ALEXSSANDRO ALVES OFICIAL DO MP PARÁ DE MINAS - COMARCA; PARA DE MINAS-PJ-05PJ 1.198,00 0,00 519,00 0,00 0,00 0,00 0,00 0,00 0,00 31/05/2021
72 318900 AILTON DE CASTRO RIBEIRO JUNIOR OFICIAL DO MP ITAJUBA - COMARCA; ITAJUBA-PJ-01PJ 1.198,00 769,39 519,00 0,00 0,00 0,00 0,00 0,00 0,00 31/05/2021
73 533100 AIMARA DE BRITTO DIAS LEITE PROMOTOR SUBSTITUTO SANTA LUZIA - COMARCA; SANTA LUZIA-PJ-02PJ 1.198,00 0,00 1.518,44 0,00 0,00 0,00 0,00 0,00 0,00 31/05/2021
74 439100 AIRTON BATISTA COSTA NETO NEPOMUCENO PROMOTOR 2A ENTRANCIA ITUIUTABA - COMARCA; ITUIUTABA-PJ-04PJ 1.198,00 0,00 2.660,74 0,00 26.670,55 0,00 0,00 0,00 488,96 31/05/2021
75 341600 ALAM BAENA BERTOLLA DOS SANTOS PROMOTOR 2A ENTRANCIA ARAGUARI - COMARCA; ARAGUARI-PJ-05PJ 1.198,00 0,00 2.603,04 0,00 26.670,55 0,00 0,00 0,00 488,96 31/05/2021
76 175700 ALAN CARRIJO RAMOS PROMOTOR 1A ENTRANCIA PRATÁPOLIS - COMARCA; PRATAPOLIS-PJ-UNPJ 1.198,00 0,00 3.040,44 0,00 15.202,21 0,00 0,00 0,00 464,51 31/05/2021
77 1099500 ALAN GOMES BARBOSA JUNIOR ESTAGIARIO JOAO PINHEIRO; JOAO PINHEIRO-PJ-02PJ 0,00 0,00 0,00 171,00 0,00 0,00 0,00 0,00 0,00 31/05/2021
78 464400 ALAN MONTEIRO GASPAR ANALISTA DO MP SETE LAGOAS - COMARCA; SETE LAGOAS-PJ-08PJ 1.198,00 0,00 519,00 0,00 0,00 0,00 0,00 0,00 0,00 31/05/2021
79 1195800 ALAN PATRICK BORGES OLIVEIRA ESTAGIARIO UBERLANDIA; UBERLANDIA-PJ-02PJ 0,00 0,00 0,00 54,00 0,00 0,00 0,00 0,00 0,00 31/05/2021
80 1244100 ALANA COSTA SALES MOREIRA ESTAGIARIO LAVRAS; LAVRAS-PJ-03PJ 0,00 0,00 0,00 189,00 0,00 0,00 0,00 0,00 0,00 31/05/2021
81 492000 ALANA DE CASTRO FREITAS OFICIAL DO MP ITUMIRIM - COMARCA; ITUMIRIM-PJ-SECRETARIA 1.198,00 0,00 519,00 0,00 0,00 0,00 0,00 0,00 0,00 31/05/2021
82 1200300 ALANA KATHERINE FERREIRA DA SILVA ESTAGIARIO GOVERNADOR VALADARES; COORD REG DO MA DA BACIA DO RIO DOCE 0,00 0,00 0,00 81,00 0,00 0,00 0,00 0,00 0,00 31/05/2021
83 306700 ALANA MARCIA DE OLIVEIRA OFICIAL DO MP BELO HORIZONTE - COMARCA; DIRETORIA DE ADMINISTRACAO FINANCEIRA 1.198,00 0,00 519,00 0,00 0,00 0,00 0,00 0,00 0,00 31/05/2021
84 324500 ALANMAR COUTINHO COSTA OFICIAL DO MP LEOPOLDINA - COMARCA; LEOPOLDINA-PJ-02PJ 1.198,00 0,00 519,00 0,00 0,00 0,00 0,00 0,00 0,00 31/05/2021
85 170800 ALBERTO BOGLIOLO SIRIHAL PROMOT.ENTRANC.ESPECIAL BELO HORIZONTE - COMARCA; BH-05PJ JUIZO SUCESSÕES-GAB CARGO 045PJ 1.198,00 0,00 2.104,12 0,00 16.844,55 0,00 0,00 0,00 514,69 31/05/2021
86 1160400 ALBERTO DOS ANJOS GODEFROID ESTAGIARIO OURO PRETO; OURO PRETO-PJ-01PJ
87 407300 ALBERTO LUIZ SOARES DE OLIVEIRA ANALISTA DO MP BELO HORIZONTE - COMARCA; DIRETORIA DE PROJETOS DE EDIFICACOES 1.198,00 0,00 519,00 0,00 0,00 0,00 0,00 0,00 0,00 31/05/2021
88 118200 ALBERTO PEREIRA DA COSTA OFICIAL DO MP DORES DO INDAIÁ - COMARCA; DORES DO INDAIA-PJ-UNPJ 1.198,00 0,00 519,00 0,00 0,00 0,00 0,00 0,00 0,00 31/05/2021
89 1084700 ALBERTO RISI NETO ESTAGIARIO RIBEIRAO DAS NEVES; RIBEIRAO DAS NEVES-PJ-12PJ 0,00 0,00 0,00 54,00 0,00 0,00 0,00 0,00 0,00 31/05/2021
90 72000 ALBINO VITORIO BERNARDO PROCURADOR DE JUSTICA BELO HORIZONTE - COMARCA; GABINETE DE PROCURADOR DE JUSTIÇA - SALA 710 1.198,00 0,00 1.193,06 0,00 17.731,11 0,00 0,00 0,00 541,78 31/05/2021
91 660700 ALCIDEZIO JOSE DE OLIVEIRA BISPO JUNIOR PROMOT.ENTRANC.ESPECIAL CARATINGA - COMARCA; CARATINGA-PJ-01PJ 1.198,00 0,00 1.908,89 0,00 13.475,64 0,00 0,00 0,00 514,69 31/05/2021
92 282400 ALCILENE MARISE DE ARAUJO ANALISTA DO MP BELO HORIZONTE - COMARCA; BH-23PJ INF-FISC MED SOC FEC 1.198,00 0,00 519,00 0,00 5.433,14 0,00 0,00 0,00 498,04 31/05/2021
93 112600 ALCIONE DA MOTA JARDIM OFICIAL DO MP BELO HORIZONTE - COMARCA; CAO-CRIANCAS E ADOLESCENTES-SECRETARIA 1.198,00 0,00 519,00 0,00 0,00 0,00 0,00 0,00 0,00 31/05/2021
94 396400 ALCIONE DE FREITAS E SILVA ANALISTA DO MP BELO HORIZONTE - COMARCA; ASSESS JUR DO CONS SUPERIOR DO MINISTERIO PUB 1.198,00 0,00 519,00 0,00 0,00 0,00 0,00 0,00 0,00 31/05/2021
95 657400 ALCIONE MARIA FERREIRA ASSESSOR PROCURADOR JUSTICA BELO HORIZONTE - COMARCA; PROC JUST RECURSOS ESP E EXTRAORD CRIMINAIS 1.198,00 0,00 519,00 0,00 0,00 0,00 0,00 0,00 0,00 31/05/2021
96 161600 ALCIONE NERY SOUZA ASSESSOR BELO HORIZONTE - COMARCA; BH-18PJ DIREITOS HUMANOS-SECRETARIA 1.198,00 0,00 519,00 0,00 0,00 0,00 0,00 0,00 0,00 31/05/2021
97 92000 ALCIR ARANTES PROMOT.ENTRANC.ESPECIAL UBERABA - COMARCA; UBERABA-PJ-03PJ 1.198,00 0,00 2.603,04 0,00 16.844,55 0,00 0,00 0,00 514,69 31/05/2021
98 376000 ALDA GOMES LANA OFICIAL DO MP BELO HORIZONTE - COMARCA; BH-18PJ VIOLENCIA DOMESTICA-SECRETARIA 1.198,00 0,00 519,00 0,00 0,00 0,00 0,00 0,00 0,00 31/05/2021
99 148000 ALDA MARTINS SIMOES OFICIAL DO MP BELO HORIZONTE - COMARCA; BH-23PJ CIVEL- FISC ENT AB POL 1.198,00 0,00 519,00 0,00 0,00 0,00 0,00 0,00 0,00 31/05/2021
100 89200 ALDECIR RESENDE BOLLESI DE PLA E SANT'ANNA PROMOT.ENTRANC.ESPECIAL CONTAGEM - COMARCA; CONTAGEM-PJ-08PJ 1.198,00 0,00 2.190,89 0,00 0,00 0,00 0,00 0,00 0,00 31/05/2021
101 457700 ALDERICO DE CARVALHO JUNIOR PROMOTOR 2A ENTRANCIA BELO HORIZONTE - COMARCA; PROC JUST ATUACAO TRIBUNAIS SUPERIORES-GAB002 1.198,00 0,00 2.451,19 0,00 5.334,11 0,00 0,00 0,00 488,96 31/05/2021
102 318400 ALDO CREPALDI JUNIOR OFICIAL DO MP BELO HORIZONTE - COMARCA; DIVISAO DE MATERIAIS 1.198,00 0,00 519,00 0,00 0,00 0,00 0,00 0,00 0,00 31/05/2021
103 604500 ALENIZE APARECIDA RODRIGUES HENRIQUE OFICIAL DO MP RIO NOVO - COMARCA; RIO NOVO-PJ-UNPJ 1.198,00 0,00 519,00 0,00 0,00 0,00 0,00 0,00 0,00 31/05/2021
104 197900 ALESSA DE SOUSA E SILVA OFICIAL DO MP OLIVEIRA - COMARCA; OLIVEIRA-PJ-02PJ 1.198,00 0,00 519,00 0,00 0,00 0,00 0,00 0,00 0,00 31/05/2021
105 428500 ALESSANDRA ALVES DINIZ OFICIAL DO MP BELO HORIZONTE - COMARCA; CENTRAL DE APOIO TECNICO-SECRETARIA 1.198,00 0,00 519,00 0,00 0,00 0,00 0,00 0,00 0,00 31/05/2021
106 1239800 ALESSANDRA ARAUJO DE OLIVEIRA ESTAGIARIO CARANGOLA; CARANGOLA-PJ-02PJ 0,00 0,00 0,00 189,00 0,00 0,00 0,00 0,00 0,00 31/05/2021
107 286801 ALESSANDRA BOTELHO JUNQUEIRA DE MENEZES ANALISTA DO MP PASSOS - COMARCA; PASSOS-PJ-05PJ 1.198,00 769,39 519,00 0,00 0,00 0,00 0,00 0,00 0,00 31/05/2021
108 1069900 ALESSANDRA CAROLINE PELEGRINO ESTAGIARIO BRASOPOLIS; BRASOPOLIS-PJ-UNPJ 0,00 0,00 0,00 81,00 0,00 0,00 0,00 0,00 0,00 31/05/2021
109 307000 ALESSANDRA CRISTINA SANTOS MENDES ANALISTA DO MP BELO HORIZONTE - COMARCA; BH-18PJ VIOLENCIA DOMESTICA-SECRETARIA 1.198,00 0,00 519,00 0,00 0,00 0,00 0,00 0,00 0,00 31/05/2021
110 989400 ALESSANDRA DE CARVALHO PAULA ESTAGIARIO POCOS DE CALDAS; POCOS DE CALDAS-PJ-07PJ
111 264400 ALESSANDRA DE SOUZA SANTOS ANALISTA DO MP BELO HORIZONTE - COMARCA; SUPERINTENDENCIA DOS ORGAOS COLEGIADOS 1.198,00 0,00 519,00 0,00 0,00 0,00 0,00 0,00 0,00 31/05/2021
112 441500 ALESSANDRA DRUMMOND DE FIGUEIREDO ROSSI ANALISTA DO MP BELO HORIZONTE - COMARCA; DIRETORIA DE PROJETOS DE EDIFICACOES 1.198,00 0,00 519,00 0,00 483,34 0,00 0,00 0,00 44,31 31/05/2021
113 524000 ALESSANDRA LUCIOLI DE BARROS GUERRA ANALISTA DO MP BELO HORIZONTE - COMARCA; BH-19PJ SAUDE--SECRETARIA 1.198,00 0,00 519,00 0,00 0,00 0,00 0,00 0,00 0,00 31/05/2021
114 479900 ALESSANDRA MARA ANDRADE DE FARIA OFICIAL DO MP UBERABA - COMARCA; UBERABA-PJ-09PJ 1.198,00 0,00 519,00 0,00 0,00 0,00 0,00 0,00 0,00 31/05/2021
115 226700 ALESSANDRA MARA VASCONCELOS REZENDE OFICIAL DO MP CONSELHEIRO LAFAIETE - COMARCA; CONSELHEIRO LAFAIETE-PJ-07PJ 1.198,00 0,00 519,00 0,00 0,00 0,00 0,00 0,00 0,00 31/05/2021
116 112100 ALESSANDRA MARCIA FERREIRA OFICIAL DO MP BELO HORIZONTE - COMARCA; BELO HORIZONTE- SECRETARIA DAS PROMOTORIAS 1.198,00 0,00 519,00 0,00 0,00 0,00 0,00 0,00 0,00 31/05/2021
117 196500 ALESSANDRA MARIA RIBEIRO LUCIANO OFICIAL DO MP RIO PARANAÍBA - COMARCA; RIO PARANAIBA-PJ-UNPJ 1.198,00 0,00 519,00 0,00 0,00 0,00 0,00 0,00 0,00 31/05/2021
118 91400 ALESSANDRA MENDES VASCONCELOS DE SOUZA OFICIAL DO MP BELO HORIZONTE - COMARCA; BH-23PJ INF-FISC MED SOC AB 1.198,00 0,00 519,00 0,00 0,00 0,00 0,00 0,00 0,00 31/05/2021
119 1257300 ALESSANDRA MIRANDA REZENDE ESTAGIARIO RIBEIRAO DAS NEVES; RIBEIRAO DAS NEVES-PJ-02PJ 0,00 0,00 0,00 36,00 0,00 0,00 0,00 0,00 0,00 31/05/2021
120 290500 ALESSANDRA PINTO CASSIANO PROMOTOR 2A ENTRANCIA BOA ESPERANÇA - COMARCA; BOA ESPERANCA-PJ-02PJ 1.198,00 0,00 1.301,52 0,00 5.334,11 0,00 0,00 0,00 488,96 31/05/2021
121 651700 ALESSANDRA PROFIRIO SOUZA OFICIAL DO MP NOVA ERA - COMARCA; NOVA ERA-PJ-UNPJ 1.198,00 0,00 519,00 0,00 0,00 0,00 0,00 0,00 0,00 31/05/2021
122 384900 ALESSANDRA RODRIGUES ANALISTA DO MP VISCONDE DO RIO BRANCO - COMARCA; VISCONDE DO RIO BRANCO-PJ-03PJ 1.198,00 769,39 519,00 0,00 0,00 0,00 0,00 0,00 0,00 31/05/2021
123 390000 ALESSANDRA SPADANO MASSARA VASCONCELOS OFICIAL DO MP BETIM - COMARCA; BETIM-PJ-10PJ 1.198,00 0,00 519,00 0,00 0,00 0,00 0,00 0,00 0,00 31/05/2021
124 426500 ALESSANDRO CAMPOS DE PAIVA ANALISTA DO MP BELO HORIZONTE - COMARCA; DIR CRIACAO E MIDIAS 1.198,00 0,00 519,00 0,00 0,00 0,00 0,00 0,00 0,00 31/05/2021
125 623400 ALESSANDRO DE OLIVEIRA REZENDE ANALISTA DO MP BELO HORIZONTE - COMARCA; DIRET DE INFORMACAO E CONHECIMENTO-DINC/CEAF 1.198,00 0,00 519,00 0,00 0,00 0,00 0,00 0,00 0,00 31/05/2021
126 1137100 ALESSANDRO GARCIA ESTAGIARIO DIVINOPOLIS; DIVINOPOLIS-PJ-06PJ 0,00 0,00 0,00 81,00 0,00 0,00 0,00 0,00 0,00 31/05/2021
127 174100 ALESSANDRO GARCIA SILVA PROMOT.ENTRANC.ESPECIAL DIVINÓPOLIS - COMARCA; DIVINOPOLIS-PJ-12PJ 1.198,00 0,00 2.429,50 0,00 5.614,85 0,00 0,00 0,00 514,69 31/05/2021
128 308201 ALESSANDRO RAMOS MACHADO PROMOTOR 2A ENTRANCIA ALFENAS - COMARCA; ALFENAS-PJ-04PJ 1.198,00 0,00 2.603,04 0,00 5.334,11 0,00 0,00 0,00 488,96 31/05/2021
129 665700 ALESSANDRO ROGERIO DIAS DE OLIVEIRA PROMOT.ENTRANC.ESPECIAL JANUÁRIA - COMARCA; JANUARIA-PJ-02PJ 1.198,00 0,00 1.431,66 0,00 5.614,85 0,00 0,00 0,00 514,69 31/05/2021
130 420600 ALESSANDRO SILVA OFICIAL DO MP VISCONDE DO RIO BRANCO - COMARCA; VISCONDE DO RIO BRANCO-PJ-02PJ 1.198,00 0,00 519,00 0,00 0,00 0,00 0,00 0,00 0,00 31/05/2021
131 171100 ALESSIA ALVES DE ALVARENGA SANTA BARBARA PROMOT.ENTRANC.ESPECIAL CONSELHEIRO LAFAIETE - COMARCA; CONSELHEIRO LAFAIETE-PJ-06PJ 1.198,00 0,00 3.368,91 0,00 16.844,55 0,00 0,00 0,00 514,69 31/05/2021
132 57800 ALESSIO GUIMARAES PROCURADOR DE JUSTICA BELO HORIZONTE - COMARCA; GABINETE DE PROCURADOR DE JUSTIÇA - SALA 508 1.198,00 0,00 2.603,04 0,00 0,00 0,00 0,00 0,00 0,00 31/05/2021
133 375301 ALETHEIA PATRICIA ASSIS MORAIS MOREIRA ANALISTA DO MP ITABIRA - COMARCA; ITABIRA-PJ-02PJ 1.198,00 1.538,78 519,00 0,00 0,00 0,00 0,00 0,00 0,00 31/05/2021
134 382300 ALEX CARVALHO LIMA ANALISTA DO MP UBERLÂNDIA - COMARCA; UBERLANDIA-PJ-14PJ 1.198,00 0,00 519,00 0,00 0,00 0,00 0,00 0,00 0,00 31/05/2021
135 195201 ALEX DE CASTRO PEREIRA ANALISTA DO MP UBERABA - COMARCA; UBERABA-PJ-09PJ 1.198,00 0,00 519,00 0,00 975,18 0,00 0,00 0,00 89,39 31/05/2021
136 358900 ALEX DE PAULA LANZA ASSESSOR BELO HORIZONTE - COMARCA; DIR CONTEUDO JORNALISTICO 1.198,00 769,39 519,00 0,00 0,00 0,00 0,00 0,00 0,00 31/05/2021
137 171400 ALEX FERNANDES SANTIAGO PROMOT.ENTRANC.ESPECIAL JUIZ DE FORA - COMARCA; JUIZ DE FORA-PJ-08PJ 1.198,00 0,00 1.757,05 0,00 16.844,55 0,00 0,00 0,00 514,69 31/05/2021
138 685300 ALEX RAFAEL BITTENCOURT PROMOTOR SUBSTITUTO LEOPOLDINA - COMARCA; LEOPOLDINA-PJ-04PJ 1.198,00 0,00 759,22 0,00 0,00 0,00 0,00 0,00 0,00 31/05/2021
139 178400 ALEX RODRIGO SALDANHA GUIMARAES OFICIAL DO MP BELO HORIZONTE - COMARCA; DIRETORIA DE SISTEMAS DE INFORMACAO 1.198,00 0,00 519,00 0,00 0,00 0,00 0,00 0,00 0,00 31/05/2021
140 314100 ALEX SOARES NACIF PROMOT.ENTRANC.ESPECIAL CONTAGEM - COMARCA; CONTAGEM-PJ-15PJ 1.198,00 0,00 911,06 0,00 5.614,85 0,00 0,00 0,00 514,69 31/05/2021
141 413500 ALEX VILELA OLIVEIRA ANALISTA DO MP GOVERNADOR VALADARES - COMARCA; COORD REG PJ DEF EDU DIR CRIANCA ADOL RIODOCE 1.198,00 0,00 519,00 0,00 0,00 0,00 0,00 0,00 0,00 31/05/2021
142 1274500 ALEXANDER MAXIMILIANO FERREIRA SILVA ESTAGIARIO BELO HORIZONTE; BH-13ª PJ JUÍXO DE TÓXICOS 0,00 0,00 0,00 126,00 0,00 0,00 0,00 0,00 0,00 31/05/2021
143 264300 ALEXANDRA FATIMA SARAIVA SOARES ANALISTA DO MP BELO HORIZONTE - COMARCA; CENTRAL DE APOIO TECN-SETOR DE MEIO AMBIENTE 1.198,00 0,00 519,00 0,00 0,00 0,00 0,00 0,00 0,00 31/05/2021
144 488000 ALEXANDRA LARA PAIS DE CARVALHO ANALISTA DO MP SERRO - COMARCA; SERRO-PJ-UNPJ 1.198,00 0,00 519,00 0,00 0,00 0,00 0,00 0,00 0,00 31/05/2021
145 256300 ALEXANDRA SANTOS GOMES OFICIAL DO MP BELO HORIZONTE - COMARCA; DIRETORIA GESTAO COMPRAS LICITACOES 1.198,00 0,00 519,00 0,00 0,00 0,00 0,00 0,00 0,00 31/05/2021
146 236300 ALEXANDRE ALVES DE OLIVEIRA PROMOT.ENTRANC.ESPECIAL BELO HORIZONTE - COMARCA; BH-26 CRIME CONT CRIAN ADOL-GAB 169PJ 1.198,00 0,00 997,83 0,00 16.844,55 0,00 0,00 0,00 514,69 31/05/2021
147 403300 ALEXANDRE AUGUSTO RODRIGUES ANALISTA DO MP ÁGUAS FORMOSAS - COMARCA; AGUAS FORMOSAS-PJ-UNPJ 1.198,00 1.538,78 519,00 0,00 0,00 0,00 0,00 0,00 0,00 31/05/2021
148 640900 ALEXANDRE BARBOSA MASCARENHAS ANALISTA DO MP BETIM - COMARCA; BETIM-PJ-02PJ 1.198,00 0,00 519,00 0,00 0,00 0,00 0,00 0,00 0,00 31/05/2021
149 311700 ALEXANDRE BARCELOS RESENDE OFICIAL DO MP BELO HORIZONTE - COMARCA; BH-19PJ SAUDE-SECRETARIA 047PJ 1.198,00 769,39 519,00 0,00 0,00 0,00 0,00 0,00 0,00 31/05/2021
150 293700 ALEXANDRE BRASILEIRO DE QUEIROZ PROMOT.ENTRANC.ESPECIAL BELO HORIZONTE - COMARCA; BH-12PJ JUIZO CRIMINAL-GAB 092PJ 1.198,00 0,00 3.368,91 0,00 16.844,55 0,00 0,00 0,00 514,69 31/05/2021
151 285600 ALEXANDRE CAMPOS DE OLIVEIRA OFICIAL DO MP UBERABA - COMARCA; COORD REG BACIAS PARANAIBA BAIXO RIO GRANDE 1.198,00 0,00 519,00 0,00 0,00 0,00 0,00 0,00 0,00 31/05/2021
152 509200 ALEXANDRE CAPUANO DE REZENDE ANALISTA DO MP BELO HORIZONTE - COMARCA; BH-07PJ 02 TRIBUNAL DO JURI-GAB 109PJ 1.198,00 0,00 519,00 0,00 0,00 0,00 0,00 0,00 0,00 31/05/2021
153 229400 ALEXANDRE CARLOS BOTREL DIRETOR/OFICIAL BELO HORIZONTE - COMARCA; SUPERINTENDENCIA DOS ORGAOS COLEGIADOS 1.198,00 0,00 519,00 0,00 905,52 0,00 0,00 0,00 83,01 31/05/2021
154 411900 ALEXANDRE CARVALHO SANTOS RIBEIRO ANALISTA DO MP OLIVEIRA - COMARCA; OLIVEIRA-PJ-02PJ 1.198,00 769,39 519,00 0,00 0,00 0,00 0,00 0,00 0,00 31/05/2021
155 1229600 ALEXANDRE CESAR GILSOGAMO GOMES DE OLIVEIRA JUNIOR ESTAGIARIO PARA DE MINAS; PARA DE MINAS-PJ-04PJ 0,00 0,00 0,00 99,00 0,00 0,00 0,00 0,00 0,00 31/05/2021
156 1245200 ALEXANDRE CHAVES SAMPAIO ESTAGIARIO BELO HORIZONTE; BH-12PJ JUIZO CRIMINAL-GAB 095PJ 0,00 0,00 0,00 153,00 0,00 0,00 0,00 0,00 0,00 31/05/2021
157 641600 ALEXANDRE DA SILVA ASSUNCAO OFICIAL DO MP BELO HORIZONTE - COMARCA; SERVICO MEDICO-DEPTO PERIC MEDICA SAUDE OCUP 1.198,00 0,00 519,00 0,00 0,00 0,00 0,00 0,00 0,00 31/05/2021
158 201200 ALEXANDRE DE ALENCAR CORDEIRO OFICIAL DO MP ÁGUAS FORMOSAS - COMARCA; AGUAS FORMOSAS-PJ-UNPJ 1.198,00 0,00 519,00 0,00 5.511,41 0,00 0,00 0,00 505,21 31/05/2021
159 288200 ALEXANDRE DE VASCONCELOS COSTA KER ANALISTA DO MP BELO HORIZONTE - COMARCA; BH-03PJ EMPRESARIAL-SECRETARIA 1.198,00 0,00 519,00 0,00 871,04 0,00 0,00 0,00 79,85 31/05/2021
160 445000 ALEXANDRE DIOGENES OLIVEIRA ANALISTA DO MP SALINAS - COMARCA; SALINAS-PJ-02PJ 1.198,00 769,39 519,00 0,00 0,00 0,00 0,00 0,00 0,00 31/05/2021
161 1032000 ALEXANDRE EVARISTO CUNHA BARBOSA ESTAGIARIO CAPELINHA; CAPELINHA-PJ-01PJ 0,00 0,00 0,00 162,00 0,00 0,00 0,00 0,00 0,00 31/05/2021
162 665800 ALEXANDRE FIGUEIREDO MORATO PROMOTOR 2A ENTRANCIA PIRAPORA - COMARCA; PIRAPORA-PJ-04PJ 1.198,00 0,00 715,83 0,00 0,00 0,00 0,00 0,00 0,00 31/05/2021
163 463400 ALEXANDRE LEAL WINKELSTROTER ANALISTA DO MP TEÓFILO OTONI - COMARCA; TEOFILO OTONI-PJ-04PJ 1.198,00 0,00 519,00 0,00 0,00 0,00 0,00 0,00 0,00 31/05/2021
164 96600 ALEXANDRE LIBERO BARONI PROMOT.ENTRANC.ESPECIAL SETE LAGOAS - COMARCA; SETE LAGOAS-PJ-04PJ 1.198,00 0,00 2.819,96 0,00 17.967,52 0,00 0,00 0,00 514,69 31/05/2021
165 1189100 ALEXANDRE LOPES PEREIRA ESTAGIARIO CANAPOLIS; CANAPOLIS-PJ-UNPJ
166 615700 ALEXANDRE LUIZ DE CASTRO MACIEL ANALISTA DO MP IBIRITÉ - COMARCA; IBIRITE-PJ-02PJ 1.198,00 0,00 519,00 0,00 0,00 0,00 0,00 0,00 0,00 31/05/2021
167 356900 ALEXANDRE MOISES MENDONCA E ARAUJO OFICIAL DO MP UBERABA - COMARCA; UBERABA-PJ-13PJ 1.198,00 0,00 519,00 0,00 0,00 0,00 0,00 0,00 0,00 31/05/2021
168 232100 ALEXANDRE MOTTA BENEVIDES PROMOT.ENTRANC.ESPECIAL BELO HORIZONTE - COMARCA; BH-12PJ JUIZO CRIMINAL-GAB 094PJ 1.198,00 0,00 2.342,73 0,00 5.614,85 0,00 0,00 0,00 514,69 31/05/2021
169 633300 ALEXANDRE NONATO MARTINS OFICIAL DO MP IGARAPÉ - COMARCA; IGARAPE-PJ-02PJ 1.198,00 0,00 519,00 0,00 0,00 0,00 0,00 0,00 0,00 31/05/2021
170 469900 ALEXANDRE PEREIRA GUEDES ANALISTA DO MP CATAGUASES - COMARCA; CATAGUASES-PJ-03PJ 1.198,00 0,00 519,00 0,00 0,00 0,00 0,00 0,00 0,00 31/05/2021
171 208700 ALEXANDRE RESENDE FRAGA ANALISTA DO MP BELO HORIZONTE - COMARCA; BH-19PJ SAUDE-SECRETARIA 130PJ 1.198,00 0,00 519,00 0,00 0,00 0,00 0,00 0,00 0,00 31/05/2021
172 156900 ALEXANDRE REZENDE GRILLO PROMOTOR 2A ENTRANCIA SÃO GONÇALO DO SAPUCAÍ - COMARCA; SAO GONCALO DO SAPUCAI-PJ-02PJ 1.198,00 0,00 2.733,19 0,00 26.670,55 0,00 0,00 0,00 488,96 31/05/2021
173 216401 ALEXANDRE RIBEIRO DE LIMA MAIORINO ANALISTA DO MP UBERABA - COMARCA; UBERABA-PJ-03PJ 1.198,00 0,00 519,00 0,00 938,05 0,00 0,00 0,00 85,99 31/05/2021
174 475100 ALEXANDRE TEOTONIO COSTA ANALISTA DO MP ARAGUARI - COMARCA; ARAGUARI-PJ-01PJ 1.198,00 0,00 519,00 0,00 0,00 0,00 0,00 0,00 0,00 31/05/2021
175 339000 ALEXANDRE VITOR CARDOSO OFICIAL DO MP BELO HORIZONTE - COMARCA; PROMOT ESTADUAL DE DEF PATRI CULT E TUR DE MG 1.198,00 0,00 519,00 0,00 0,00 0,00 0,00 0,00 0,00 31/05/2021
176 1088900 ALEXANDRE VITOR FONSECA ALVES ESTAGIARIO BELO HORIZONTE; BH-19PJ SAUDE-RECEPCAO 0,00 0,00 0,00 9,00 0,00 0,00 0,00 0,00 0,00 31/05/2021
177 694000 ALEXANDRO ANTONIO PORTO E SOUZA INVESTIGADOR DE POLICIA 2 BELO HORIZONTE - COMARCA; GAECO - SETOR POLICIAL CIVIL 1.198,00 0,00 0,00 0,00 0,00 0,00 0,00 0,00 0,00 31/05/2021
178 678900 ALEXIA DUARTE TORRES ASSESSOR PROCURADOR JUSTICA BELO HORIZONTE - COMARCA; GABINETE DE PROCURADOR DE JUSTIÇA - SALA 502 1.198,00 0,00 519,00 0,00 0,00 0,00 0,00 0,00 0,00 31/05/2021
179 1273800 ALEXIA LUNA PIMENTA RABELO ESTAGIARIO BELO HORIZONTE; COORD ESTADUAL DE DEFESA DOS ANIMAIS 0,00 0,00 0,00 99,00 0,00 0,00 0,00 0,00 0,00 31/05/2021
180 623100 ALEXSANDER BATISTA AGUIAR ANALISTA DO MP BELO HORIZONTE - COMARCA; DIRETORIA DE SUPORTE E MANUTENCAO 1.198,00 769,39 519,00 0,00 0,00 0,00 0,00 0,00 0,00 31/05/2021
181 1170300 ALEXSANDER MERCURY CASSEMIRO ALVES ESTAGIARIO BELO HORIZONTE; BH-09PJ AUDITORIA MILITAR-GAB 074PJ
182 513300 ALFSON MIRANDA BRAGA ANALISTA DO MP BELO HORIZONTE - COMARCA; BH-12PJ JUIZO CRIMINAL-GAB 092PJ 1.198,00 0,00 519,00 0,00 0,00 0,00 0,00 0,00 0,00 31/05/2021
183 157000 ALI MAHMOUD FAYEZ AYOUB PROMOTOR 2A ENTRANCIA GUAXUPÉ - COMARCA; GUAXUPE-PJ-02PJ 1.198,00 0,00 2.733,19 0,00 26.670,55 0,00 0,00 0,00 488,96 31/05/2021
184 1178100 ALICE ARAUJO CAMPOS ESTAGIARIO PARACATU; PARACATU-PJ-04PJ 0,00 0,00 0,00 171,00 0,00 0,00 0,00 0,00 0,00 31/05/2021
185 485300 ALICE DE MELLO VILELA PROMOT.ENTRANC.ESPECIAL CONTAGEM - COMARCA; CONTAGEM-PJ-03PJ 1.198,00 0,00 867,68 0,00 4.491,88 0,00 0,00 0,00 308,82 31/05/2021
186 1286400 ALICE FARIA TAYACOL ESTAGIARIO ITUIUTABA; ITUIUTABA-PJ-05PJ 0,00 0,00 0,00 36,00 0,00 0,00 0,00 0,00 0,00 31/05/2021
187 1270700 ALICE LEAO GUERRA ESTAGIARIO JUIZ DE FORA; JUIZ DE FORA-PJ-03PJ 0,00 0,00 0,00 117,00 0,00 0,00 0,00 0,00 0,00 31/05/2021
188 618400 ALICE MAGALHAES MACEDO DE CARVALHO ANALISTA DO MP IPATINGA - COMARCA; IPATINGA-PJ-10PJ 1.198,00 769,39 519,00 0,00 0,00 0,00 0,00 0,00 0,00 31/05/2021
189 1217000 ALICE MARIA RIBEIRO DINIZ ESTAGIARIO BELO HORIZONTE; PROC JUST RECURSOS ESP E EXTRAORD CRIMINAIS 0,00 0,00 0,00 180,00 0,00 0,00 0,00 0,00 0,00 31/05/2021
190 1128600 ALICE OLIVEIRA BOTTARO ESTAGIARIO BELO HORIZONTE; PROMOT ESTADUAL DE DEF PATRI CULT E TUR DE MG
191 471000 ALICE TITONELI MOREIRA ANALISTA DO MP MIRADOURO - COMARCA; MIRADOURO-PJ-UNPJ 1.198,00 769,39 519,00 0,00 0,00 99,60 0,00 0,00 0,00 31/05/2021
192 1206000 ALICIA PAULA RODRIGUES DE LIMA ESTAGIARIO TIROS; TIROS-PJ-UNPJ 0,00 0,00 0,00 180,00 0,00 0,00 0,00 0,00 0,00 31/05/2021
193 1164000 ALINE APARECIDA CUSTODIO ESTAGIARIO SAO SEBASTIAO DO PARAISO; SAO SEBASTIAO DO PARAISO-PJ-01PJ 0,00 0,00 0,00 153,00 0,00 0,00 0,00 0,00 0,00 31/05/2021
194 1138500 ALINE ARAUJO GONCALVES DE SOUZA ESTAGIARIO BELO HORIZONTE; BH-25PJ DEFESA DA EDUCACAO-SECRETARIA 0,00 0,00 0,00 9,00 0,00 0,00 0,00 0,00 0,00 31/05/2021
195 622400 ALINE BALBINO PORTUGAL LOPES ANALISTA DO MP TRÊS PONTAS - COMARCA; TRES PONTAS-PJ-03PJ 1.198,00 769,39 519,00 0,00 0,00 0,00 0,00 0,00 0,00 31/05/2021
196 373000 ALINE BOTELHO RESENDE OFICIAL DO MP JUIZ DE FORA - COMARCA; JUIZ DE FORA-PJ-22PJ 1.198,00 0,00 519,00 0,00 0,00 0,00 0,00 0,00 0,00 31/05/2021
197 1276000 ALINE BRAGA MESSIAS ESTAGIARIO BELO HORIZONTE; BH-02PJ FAMILIA-GAB 023PJ
198 699800 ALINE CRISTINA DE OLIVEIRA AMARAL BARBOSA ASSESSOR PROCURADOR JUSTICA BELO HORIZONTE - COMARCA; GABINETE DE PROCURADOR DE JUSTIÇA - SALA 904 1.198,00 0,00 519,00 0,00 0,00 0,00 0,00 0,00 0,00 31/05/2021
199 407700 ALINE CRISTINA RODRIGUES PEREIRA COORDENADOR/ANALISTA BELO HORIZONTE - COMARCA; DIRETORIA DE PROJETOS DE EDIFICACOES 1.198,00 769,39 519,00 0,00 0,00 0,00 0,00 0,00 0,00 31/05/2021
200 193100 ALINE CRISTINA SENA OLIVEIRA OFICIAL DO MP UBERLÂNDIA - COMARCA; UBERLANDIA-PJ-03PJ 1.198,00 769,39 519,00 0,00 3.313,11 0,00 0,00 0,00 303,70 31/05/2021
201 554200 ALINE CRISTINA SILVA SOUZA OFICIAL DO MP TIROS - COMARCA; TIROS-PJ-UNPJ 1.198,00 0,00 519,00 0,00 0,00 0,00 0,00 0,00 0,00 31/05/2021
202 505500 ALINE DA CUNHA MARREIROS OLIVEIRA ANALISTA DO MP EUGENÓPOLIS - COMARCA; EUGENOPOLIS-PJ-UNPJ 1.198,00 1.923,48 519,00 0,00 0,00 0,00 0,00 0,00 0,00 31/05/2021
203 433500 ALINE DE MELO QUEIROZ ASSESSOR/OFICIAL BELO HORIZONTE - COMARCA; ASSESSORIA TECNICA DO PROCON-MG 1.198,00 769,39 519,00 0,00 5.988,97 0,00 0,00 0,00 548,99 31/05/2021
204 691100 ALINE DE MELO SOUZA ASSESSOR PROCURADOR JUSTICA BELO HORIZONTE - COMARCA; GABINETE DE PROCURADOR DE JUSTIÇA - SALA 401 1.198,00 0,00 519,00 0,00 0,00 0,00 0,00 0,00 0,00 31/05/2021
205 542700 ALINE DE SOUSA ALBINO ANALISTA DO MP CONTAGEM - COMARCA; CONTAGEM-PJ-09PJ 1.198,00 0,00 519,00 0,00 0,00 0,00 0,00 0,00 0,00 31/05/2021
206 330000 ALINE DIORIO MAYRINK OFICIAL DO MP BELO HORIZONTE - COMARCA; BH-15PJ M AMB PAT HIST CULT-GAB 115PJ 1.198,00 0,00 519,00 0,00 0,00 0,00 0,00 0,00 0,00 31/05/2021
207 499000 ALINE FERREIRA LOPES ANALISTA DO MP TEÓFILO OTONI - COMARCA; COORD. DE DEF. DO PAT. PUBLICO-JEQUIT./MUCURI 1.198,00 0,00 519,00 0,00 0,00 0,00 0,00 0,00 0,00 31/05/2021
208 405300 ALINE LAIA CARDOZO DIRETOR/ANALISTA BELO HORIZONTE - COMARCA; SUPERINTENDENCIA LOGISTICA SERVICOS 1.198,00 0,00 519,00 0,00 0,00 0,00 0,00 0,00 0,00 31/05/2021
209 278200 ALINE MARCIA FARIA BARBOSA FERNANDES OFICIAL DO MP BARBACENA - COMARCA; BARBACENA-PJ-SECRETARIA 1.198,00 0,00 519,00 0,00 0,00 0,00 0,00 0,00 0,00 31/05/2021
210 1091400 ALINE MARIA MARTINS SILVA ESTAGIARIO FORMIGA; FORMIGA-PJ-01PJ 0,00 0,00 0,00 117,00 0,00 0,00 0,00 0,00 0,00 31/05/2021
211 389000 ALINE NERI NOBRE ANALISTA DO MP MONTES CLAROS - COMARCA; COORD REG PJ DEF EDUC DIR CRIANCA ADOL NORTE 1.198,00 0,00 519,00 0,00 0,00 0,00 0,00 0,00 0,00 31/05/2021
212 1138600 ALINE OLIVEIRA DE FATIMA ESTAGIARIO PARACATU; GAECO REGIONAL DE PARACATU 0,00 0,00 0,00 180,00 0,00 0,00 0,00 0,00 0,00 31/05/2021
213 294600 ALINE PATRICIA SILVA VIEIRA OFICIAL DO MP UBERLÂNDIA - COMARCA; UBERLANDIA-PJ-03PJ 1.198,00 0,00 519,00 0,00 0,00 0,00 1.445,27 0,00 0,00 31/05/2021
214 420000 ALINE RODRIGUES CAMOROPIN ANALISTA DO MP SABARÁ - COMARCA; SABARA-PJ-02PJ 1.198,00 0,00 519,00 0,00 0,00 0,00 0,00 0,00 0,00 31/05/2021
215 699600 ALINE SEPULVEDA ROSA PIRES ASSESSOR PROCURADOR JUSTICA BELO HORIZONTE - COMARCA; GABINETE DE PROCURADOR DE JUSTIÇA - SALA 905 1.198,00 0,00 519,00 0,00 0,00 0,00 0,00 0,00 0,00 31/05/2021
216 408300 ALINE SILVA ARAUJO DE PAULA ANALISTA DO MP SÃO SEBASTIÃO DO PARAÍSO - COMARCA; SAO SEBASTIAO DO PARAISO-PJ-02PJ 1.198,00 769,39 519,00 0,00 0,00 0,00 0,00 0,00 0,00 31/05/2021
217 665900 ALINE SILVA BARROS PROMOTOR 2A ENTRANCIA VARZEA DA PALMA - COMARCA; VARZEA DA PALMA-PJ-01PJ 1.198,00 0,00 815,83 0,00 5.334,11 0,00 0,00 0,00 488,96 31/05/2021
218 1182600 ALINE SILVA MONTOVANI ESTAGIARIO VARGINHA; VARGINHA-PJ-07PJ 0,00 0,00 0,00 171,00 0,00 0,00 0,00 0,00 0,00 31/05/2021
219 1138200 ALINE STEFANE DE OLIVEIRA ASSUNCAO ESTAGIARIO BELO HORIZONTE; BH-23PJ INFRACIONAL 0,00 0,00 0,00 45,00 0,00 0,00 0,00 0,00 0,00 31/05/2021
220 425400 ALINE TRINDADE DE FREITAS CAMPOS OFICIAL DO MP BELO HORIZONTE - COMARCA; BH-14PJ DEFESA CONSUMIDOR-SECRETARIA 1.198,00 0,00 519,00 0,00 0,00 0,00 0,00 0,00 648,01 31/05/2021
221 1111700 ALINI PEREIRA DE ALMEIDA ESTAGIARIO VICOSA; VICOSA-PJ-04PJ
222 1077600 ALINY SANTOS ARRUDA ESTAGIARIO BELO HORIZONTE; BH-13PJ JUIZO DE TOXICOS-GAB 149PJ 0,00 0,00 0,00 108,00 0,00 0,00 0,00 0,00 0,00 31/05/2021
223 1255800 ALISANGELA DIAS DE SOUZA ESTAGIARIO 0,00 0,00 0,00 81,00 0,00 0,00 0,00 0,00 0,00 31/05/2021
224 517200 ALISSOM PEREIRA DA SILVA ANALISTA DO MP BORDA DA MATA - COMARCA; BORDA DA MATA-PJ-UNPJ 1.198,00 769,39 519,00 0,00 0,00 0,00 0,00 0,00 0,00 31/05/2021
225 442400 ALISSON LABRE ANALISTA DO MP VARGINHA - COMARCA; VARGINHA-PJ-03PJ 1.198,00 0,00 519,00 0,00 0,00 0,00 0,00 0,00 0,00 31/05/2021
226 643800 ALLAN PAUL FONSECA DE CASTRO ASSESSOR/OFICIAL CONTAGEM - COMARCA; CONTAGEM-PJ-SECRETARIA 1.198,00 769,39 519,00 0,00 0,00 0,00 0,00 0,00 0,00 31/05/2021
227 612900 ALLAN VINICIUS VIEIRA ARAUJO COORDENADOR/OFICIAL BELO HORIZONTE - COMARCA; DIRETORIA DE GESTAO DOCUMENTAL 1.198,00 0,00 519,00 0,00 0,00 0,00 0,00 0,00 0,00 31/05/2021
228 1275700 ALLAN WILIAN PRATES PINTO FIDELES ESTAGIARIO CURVELO; CURVELO-PJ-04PJ 0,00 0,00 0,00 171,00 0,00 0,00 0,00 0,00 0,00 31/05/2021
229 1081200 ALLANA RODRIGUES DA CRUZ ESTAGIARIO PEDRA AZUL; PEDRA AZUL-PJ-01PJ 0,00 0,00 0,00 90,00 0,00 0,00 0,00 0,00 0,00 31/05/2021
230 349000 ALLEC RODRIGUES VIEIRA OFICIAL DO MP BELO HORIZONTE - COMARCA; EXTINTA-COORD EST DEF DIR FAM PES DEFIC IDOSO 1.198,00 0,00 519,00 0,00 40,28 0,00 0,00 0,00 1.010,65 31/05/2021
231 532400 ALLENDER BARRETO LIMA DA SILVA PROMOTOR 1A ENTRANCIA BELO HORIZONTE - COMARCA; COORD COMB RACISMO E TODA FORM DISCRIM 1.198,00 0,00 759,22 0,00 5.067,40 0,00 0,00 0,00 464,51 31/05/2021
232 297300 ALLYSON SALIBA MONTEIRO LAIZO ANALISTA DO MP CONSELHEIRO LAFAIETE - COMARCA; CONSELHEIRO LAFAIETE-PJ-03PJ 1.198,00 1.538,78 519,00 0,00 978,65 0,00 0,00 0,00 89,71 31/05/2021
233 68900 ALMIR ALVES MOREIRA PROCURADOR DE JUSTICA BELO HORIZONTE - COMARCA; GABINETE DE PROCURADOR DE JUSTIÇA - SALA 1012 1.198,00 0,00 2.494,58 0,00 9.456,59 0,00 0,00 0,00 541,78 31/05/2021
234 226601 ALMIR GERALDO GUIMARAES PROMOTOR 2A ENTRANCIA MATEUS LEME - COMARCA; MATEUS LEME-PJ-02PJ 1.198,00 0,00 2.169,20 0,00 5.334,11 0,00 0,00 0,00 488,96 31/05/2021
235 303700 ALMIR LOPES LOURES ANALISTA DO MP BELO HORIZONTE - COMARCA; CENTRAL DE APOIO TECN-SETOR DE MEIO AMBIENTE 1.198,00 0,00 519,00 0,00 978,65 0,00 0,00 0,00 89,71 31/05/2021
236 1253700 ALOISIO CORREA DE FARIA JUNIOR ESTAGIARIO GOVERNADOR VALADARES; COOR REG APOIO COM INC MOB VALE DO RIO DOCE 0,00 0,00 0,00 45,00 0,00 0,00 0,00 0,00 0,00 31/05/2021
237 440700 ALOISIO CUNHA SOARES JUNIOR PROMOTOR 2A ENTRANCIA PATROCÍNIO - COMARCA; PATROCINIO-PJ-04PJ 1.198,00 0,00 2.060,74 0,00 19.202,80 0,00 0,00 0,00 488,96 31/05/2021
238 90600 ALOISIO RABELO DE REZENDE PROMOT.ENTRANC.ESPECIAL VARGINHA - COMARCA; VARGINHA-PJ-01PJ 1.198,00 0,00 2.711,49 0,00 5.614,85 0,00 0,00 0,00 514,69 31/05/2021
239 696600 ALOIZIO MARTINS JALES JUNIOR ASSESSOR PROMOTOR JUSTICA CAMPESTRE - COMARCA; CAMPESTRE-PJ-SECRETARIA 1.198,00 0,00 519,00 0,00 0,00 0,00 0,00 0,00 0,00 31/05/2021
240 515900 ALTAIR NEVES JUNIOR OFICIAL DO MP BELO HORIZONTE - COMARCA; BH-01PJ FAZENDA PUBLICA-SECRETARIA 1.198,00 0,00 519,00 0,00 0,00 0,00 0,00 0,00 0,00 31/05/2021
241 290800 ALUISIA BERALDO RIBEIRO PROMOT.ENTRANC.ESPECIAL UBERLÂNDIA - COMARCA; UBERLANDIA-PJ-14PJ 1.198,00 0,00 1.344,90 0,00 5.614,85 0,00 0,00 0,00 514,69 31/05/2021
242 233300 ALVARINDO BATISTA ANALISTA DO MP BELO HORIZONTE - COMARCA; NUCLEO APOIO TECNICO ESP COMUNICACAO 1.198,00 769,39 519,00 0,00 0,00 0,00 0,00 0,00 0,00 31/05/2021
243 1234100 ALVARO DA SILVEIRA ROSA JUNIOR ESTAGIARIO DIVINOPOLIS; COORD REG DO MA DA BACIA DO ALTO SAO FRANC 0,00 0,00 0,00 108,00 0,00 0,00 0,00 0,00 0,00 31/05/2021
244 1256800 ALVARO EPIFANIO GOMES JUNIOR ESTAGIARIO ITABIRA; ITABIRA-PJ-03PJ 0,00 0,00 0,00 117,00 0,00 0,00 0,00 0,00 0,00 31/05/2021
245 1171700 ALVIM JUNIO DE LIMA ESTAGIARIO BARBACENA; BARBACENA-PJ-02PJ 0,00 0,00 0,00 54,00 0,00 0,00 0,00 0,00 0,00 31/05/2021
246 1165500 ALYCE RAMALHO PRIMO ESTAGIARIO BELO HORIZONTE; PROC. JUSTICA DE HABEAS CORPUS
247 1216900 ALYNE MARIA EMERICK RABELO ESTAGIARIO MANHUMIRIM; MANHUMIRIM-PJ-01PJ 0,00 0,00 0,00 54,00 0,00 0,00 0,00 0,00 0,00 31/05/2021
248 344400 ALYSSON CARDOZO CEMBRANEL PROMOT.ENTRANC.ESPECIAL BELO HORIZONTE - COMARCA; BH-CENTRAL DE RECEPÇÃO DE FLAGRANTES 1.198,00 0,00 1.989,51 0,00 8.983,76 0,00 0,00 0,00 514,69 31/05/2021
249 274100 ALYSSON CARVALHO VIDAL DE LACERDA OFICIAL DO MP MANHUAÇU - COMARCA; MANHUACU-PJ-01PJ 1.198,00 0,00 519,00 0,00 0,00 0,00 0,00 0,00 0,00 31/05/2021
250 1176600 AMANDA ANDREA IDENAGA CASTANHEIRA ESTAGIARIO FRUTAL; FRUTAL-PJ-05PJ 0,00 0,00 0,00 108,00 0,00 0,00 0,00 0,00 0,00 31/05/2021
251 1235400 AMANDA APARECIDA NERY ESTAGIARIO MACHADO; MACHADO-PJ-01PJ 0,00 0,00 0,00 90,00 0,00 0,00 0,00 0,00 0,00 31/05/2021
252 621000 AMANDA BASTOS ALVES ANALISTA DO MP BELO HORIZONTE - COMARCA; BH-07PJ 02 TRIBUNAL DO JURI-GAB 066PJ 1.198,00 0,00 519,00 0,00 0,00 0,00 0,00 0,00 0,00 31/05/2021
253 1041500 AMANDA CALDEIRA DE OLIVEIRA ESTAGIARIO BELO HORIZONTE; SUPERINTENDÊNCIA DE ENGENHARIA E ARQUITETURA 0,00 0,00 0,00 63,00 0,00 0,00 0,00 0,00 0,00 31/05/2021
254 1253500 AMANDA CAROLINE DIAS GONCALVES ESTAGIARIO PATROCINIO; PATROCINIO-PJ-05PJ 0,00 0,00 0,00 117,00 0,00 0,00 0,00 0,00 0,00 31/05/2021
255 1220800 AMANDA CAROLINY GONCALVES FONSECA ESTAGIARIO RIBEIRAO DAS NEVES; RIBEIRAO DAS NEVES-PJ-07PJ
256 1284600 AMANDA CHRISTINA OLIVEIRA DA SILVA ESTAGIARIO BELO HORIZONTE; PROC JUST RECURSOS ESP E EXTRAORD CRIMINAIS 0,00 0,00 0,00 63,00 0,00 0,00 0,00 0,00 0,00 31/05/2021
257 521700 AMANDA CRISTINA AGUIAR MACHADO OFICIAL DO MP CONGONHAS - COMARCA; CONGONHAS-PJ-01PJ 1.198,00 0,00 519,00 0,00 0,00 0,00 0,00 0,00 0,00 31/05/2021
258 1039800 AMANDA CRISTINA ALVES SANTOS ESTAGIARIO JOAO MONLEVADE; JOAO MONLEVADE-PJ-01PJ 0,00 0,00 0,00 144,00 0,00 0,00 0,00 0,00 0,00 31/05/2021
259 1086900 AMANDA CRISTINA FERREIRA DE SOUSA ESTAGIARIO VESPASIANO; VESPASIANO-PJ-06PJ 0,00 0,00 0,00 18,00 0,00 0,00 0,00 0,00 0,00 31/05/2021
260 1280700 AMANDA DE ARAUJO CARVALHO ESTAGIARIO ARACUAI; ARACUAI-PJ-01PJ 0,00 0,00 0,00 126,00 0,00 0,00 0,00 0,00 0,00 31/05/2021
261 613400 AMANDA DE ASSIS IUNES SANTOS ANALISTA DO MP CONGONHAS - COMARCA; CONGONHAS-PJ-01PJ 1.198,00 0,00 519,00 0,00 0,00 0,00 0,00 0,00 0,00 31/05/2021
262 695900 AMANDA DE OLIVEIRA ASSESSOR PROCURADOR JUSTICA BELO HORIZONTE - COMARCA; PROC JUST ATUACAO TRIBUNAIS SUPERIORES-GAB004 1.198,00 0,00 519,00 0,00 0,00 0,00 0,00 0,00 0,00 31/05/2021
263 520800 AMANDA DE SOUZA MACHADO ANALISTA DO MP BAEPENDI - COMARCA; BAEPENDI-PJ-UNPJ 1.198,00 0,00 519,00 0,00 0,00 0,00 0,00 0,00 0,00 31/05/2021
264 663900 AMANDA DENISE GONCALVES DA SILVA ASSESSOR BELO HORIZONTE - COMARCA; DIRET DE FORMACAO, APERFEIC. E POS-GRADUACAO 1.198,00 0,00 519,00 0,00 0,00 0,00 0,00 0,00 0,00 31/05/2021
265 1095700 AMANDA DOS SANTOS FERREIRA ESTAGIARIO MONTES CLAROS; MONTES CLAROS-PJ-14PJ 0,00 0,00 0,00 189,00 0,00 0,00 0,00 0,00 0,00 31/05/2021
266 1230600 AMANDA EMERICK DA SILVA ESTAGIARIO MANHUMIRIM; MANHUMIRIM-PJ-02PJ
267 1183300 AMANDA GABRIELA GONCALVES DE MIRANDA ESTAGIARIO BELO HORIZONTE; CENTRAL DE APOIO TECNICO
268 1153000 AMANDA GIL DE SOUZA ESTAGIARIO MONTES CLAROS; MONTES CLAROS-PJ-09PJ 0,00 0,00 0,00 189,00 0,00 0,00 0,00 0,00 0,00 31/05/2021
269 1027600 AMANDA GOMES BARBOSA ESTAGIARIO VARGINHA; VARGINHA-PJ-06PJ 0,00 0,00 0,00 108,00 0,00 0,00 0,00 0,00 0,00 31/05/2021
270 1059400 AMANDA GONTIJO DE LACERDA ESTAGIARIO PATOS DE MINAS; PATOS DE MINAS-PJ-06PJ
271 677000 AMANDA LETICIA MESSIAS PEGO ASSESSOR PROMOTOR JUSTICA CORAÇÃO DE JESUS - COMARCA; CORACAO DE JESUS-PJ-UNPJ 1.198,00 0,00 519,00 0,00 0,00 0,00 0,00 0,00 0,00 31/05/2021
272 1166600 AMANDA LUIZA NUNES SOARES ESTAGIARIO BELO HORIZONTE; BH-18PJ VIOLENCIA DOMESTICA-GAB 053PJ 0,00 0,00 0,00 81,00 0,00 0,00 0,00 0,00 0,00 31/05/2021
273 1014500 AMANDA MACHADO SOUZA ESTAGIARIO PASSOS; PASSOS-PJ-06PJ 0,00 0,00 0,00 108,00 0,00 0,00 0,00 0,00 0,00 31/05/2021
274 1014600 AMANDA MAGALHAES DE CARVALHO E SILVA ESTAGIARIO BELO HORIZONTE; PROC. JUSTICA CIVEL
275 666000 AMANDA MERLINI DUTRA OSIPE PROMOTOR SUBSTITUTO CATAGUASES - COMARCA; CATAGUASES-PJ-01PJ 1.198,00 0,00 1.431,66 0,00 0,00 0,00 0,00 0,00 0,00 31/05/2021
276 1157400 AMANDA MIQUELINO RIBEIRO ESTAGIARIO UBERABA; UBERABA-PJ-13PJ 0,00 0,00 0,00 72,00 0,00 0,00 0,00 0,00 0,00 31/05/2021
277 1076900 AMANDA PEREIRA MACEDO ESTAGIARIO UBERLANDIA; UBERLANDIA-PJ-07PJ 0,00 0,00 0,00 99,00 0,00 0,00 0,00 0,00 0,00 31/05/2021
278 1093100 AMANDA REGINA DE ALMEIDA E SILVA ESTAGIARIO JUIZ DE FORA; JUIZ DE FORA-PJ-02PJ
279 1204000 AMANDA RODRIGUES SOARES ESTAGIARIO TEOFILO OTONI; COORD REG SAUDE MACRORREGIAO SANIT NORDESTE
280 1071000 AMANDA SALIS LOTT ESTAGIARIO BELO HORIZONTE; BH-15PJ M AMB PAT HIST CULT-GAB 115PJ 0,00 0,00 0,00 36,00 0,00 0,00 0,00 0,00 0,00 31/05/2021
281 1100000 AMANDA SANTOS DIAS ESTAGIARIO ERVALIA; ERVALIA-PJ-UNPJ 0,00 0,00 0,00 162,00 0,00 0,00 0,00 0,00 0,00 31/05/2021
282 1237600 AMANDA SILVESTRE PATRUS ANANIAS ESTAGIARIO BELO HORIZONTE; BH-19PJ SAUDE-GAB 150PJ 0,00 0,00 0,00 36,00 0,00 0,00 0,00 0,00 0,00 31/05/2021
283 543100 AMANDA VIEIRA FREITAS BRESSANE ANALISTA DO MP VARGINHA - COMARCA; COORD REG DEF ORDEM ECON TRIB VARGINHA 1.198,00 0,00 519,00 0,00 0,00 0,00 0,00 0,00 0,00 31/05/2021
284 1024900 AMANDA XAVIER DA COSTA ESTAGIARIO JEQUERI; JEQUERI-PJ-UNPJ 0,00 0,00 0,00 189,00 0,00 0,00 0,00 0,00 0,00 31/05/2021
285 656701 AMARILDO ODILON REZENDE DE AGUIAR INVESTIGADOR DE POLICIA 2 BELO HORIZONTE - COMARCA; CAO-ORDEM ECONOMICA E TRIBUTARIA 1.198,00 0,00 0,00 0,00 0,00 0,00 0,00 0,00 0,00 31/05/2021
286 434400 AMARILIS ASSIS SIMAO CURCIO ANALISTA DO MP MANHUAÇU - COMARCA; MANHUACU-PJ-SECRETARIA 1.198,00 0,00 519,00 0,00 0,00 0,00 0,00 0,00 0,00 31/05/2021
287 652000 AMAURI SILVA ALVES ASSESSOR/OFICIAL BELO HORIZONTE - COMARCA; BH-23PJ INFRACIONAL-SEC EXP 1.198,00 0,00 519,00 0,00 0,00 0,00 0,00 0,00 0,00 31/05/2021
288 58000 AMELIA GUARIZE DE CASTRO OFICIAL DO MP JUIZ DE FORA - COMARCA; JUIZ DE FORA-PJ-SECRETARIA 1.198,00 0,00 519,00 0,00 0,00 0,00 0,00 0,00 0,00 31/05/2021
289 324301 AMERICA SUELI FERREIRA DA SILVA ANALISTA DO MP MONTE CARMELO - COMARCA; MONTE CARMELO-PJ-02PJ 1.198,00 769,39 519,00 0,00 0,00 0,00 0,00 0,00 0,00 31/05/2021
290 273300 AMUJACY DE BRITO ASSIZ OFICIAL DO MP BELO HORIZONTE - COMARCA; BH-12PJ JUIZO CRIMINAL-SECRETARIA 1.198,00 0,00 519,00 0,00 0,00 0,00 0,00 0,00 0,00 31/05/2021
291 482200 ANA ALICE LOPES ACHTSCHIN ANALISTA DO MP BELO HORIZONTE - COMARCA; PROC JUST ATUACAO TRIBUNAIS SUPERIORES-GAB002 1.198,00 0,00 519,00 0,00 0,00 0,00 0,00 0,00 0,00 31/05/2021
292 490400 ANA AMELIA PAULINO GARCIA OFICIAL DO MP CONTAGEM - COMARCA; CONTAGEM-PJ-SECRETARIA 1.198,00 0,00 519,00 0,00 0,00 0,00 0,00 0,00 0,00 31/05/2021
293 690400 ANA ANGELICA MOREIRA DA CUNHA ASSESSOR PROMOTOR JUSTICA TIMÓTEO - COMARCA; TIMOTEO-PJ-02PJ 1.198,00 0,00 519,00 0,00 0,00 0,00 0,00 0,00 0,00 31/05/2021
294 671300 ANA BARBARA CANEDO OLIVEIRA PROMOTOR 2A ENTRANCIA ALMENARA - COMARCA; ALMENARA-PJ-02PJ 1.198,00 0,00 715,83 0,00 0,00 0,00 0,00 0,00 0,00 31/05/2021
295 1128400 ANA BEATRIZ DE MELO FERNANDES ESTAGIARIO MESQUITA; MESQUITA-PJ-UNPJ 0,00 0,00 0,00 144,00 0,00 0,00 0,00 0,00 0,00 31/05/2021
296 1280900 ANA BEATRIZ DIAS DE AZEVEDO ESTAGIARIO POUSO ALEGRE; POUSO ALEGRE-PJ-06PJ 0,00 0,00 0,00 126,00 0,00 0,00 0,00 0,00 0,00 31/05/2021
297 1211700 ANA CARLA LIMA REIS ESTAGIARIO TEIXEIRAS; TEIXEIRAS-PJ-UNPJ 0,00 0,00 0,00 189,00 0,00 0,00 0,00 0,00 0,00 31/05/2021
298 1263400 ANA CARLA SOUZA FERREIRA ESTAGIARIO JUIZ DE FORA; JUIZ DE FORA-PJ-12PJ 0,00 0,00 0,00 108,00 0,00 0,00 0,00 0,00 0,00 31/05/2021
299 1147800 ANA CAROLINA AFONSO OMENA ESTAGIARIO ITUIUTABA; ITUIUTABA-PJ-02PJ 0,00 0,00 0,00 90,00 0,00 0,00 0,00 0,00 0,00 31/05/2021
300 279100 ANA CAROLINA ARAUJO PEREIRA ANALISTA DO MP BELO HORIZONTE - COMARCA; DIRETORIA DE PROJETOS DE EDIFICACOES 1.198,00 0,00 519,00 0,00 0,00 0,00 0,00 0,00 0,00 31/05/2021
301 653300 ANA CAROLINA CYRNE DINIZ ASSESSOR BELO HORIZONTE - COMARCA; CENTRAL DE APOIO TECNICO-SETOR CONTABIL 1.198,00 0,00 519,00 0,00 0,00 0,00 0,00 0,00 0,00 31/05/2021
302 1165800 ANA CAROLINA DA COSTA ESTAGIARIO SAO JOAO EVANGELISTA; SAO JOAO EVANGELISTA-PJ-UNPJ 0,00 0,00 0,00 162,00 0,00 0,00 0,00 0,00 0,00 31/05/2021
303 359400 ANA CAROLINA DE ABREU FARIA ASSESSOR BELO HORIZONTE - COMARCA; SUPERINTENDÊNCIA DE ENGENHARIA E ARQUITETURA 1.198,00 769,39 519,00 0,00 0,00 0,00 0,00 0,00 0,00 31/05/2021
304 408500 ANA CAROLINA DE CASTRO CARVALHO ANALISTA DO MP BARBACENA - COMARCA; BARBACENA - SECRETARIA DAS PJS CRIMINAIS 1.198,00 0,00 519,00 0,00 0,00 0,00 0,00 0,00 0,00 31/05/2021
305 688000 ANA CAROLINA DE OLIVEIRA PINTO ASSESSOR PROCURADOR JUSTICA BELO HORIZONTE - COMARCA; GABINETE DE PROCURADOR DE JUSTIÇA - SALA 1014 1.198,00 0,00 519,00 0,00 0,00 0,00 0,00 0,00 0,00 31/05/2021
306 1252200 ANA CAROLINA DE SOUZA SOBRAL ESTAGIARIO BELO HORIZONTE; BH-08PJ JUIZADO ESPECIAL 0,00 0,00 0,00 162,00 0,00 0,00 0,00 0,00 0,00 31/05/2021
307 598900 ANA CAROLINA DUARTE DA SILVA INVESTIGADOR DE POLICIA 2 BELO HORIZONTE - COMARCA; PROC JUST ESP ACOES COMP ORIG CRIMINAL-SEC 1.198,00 0,00 0,00 0,00 0,00 0,00 0,00 0,00 0,00 31/05/2021
308 420200 ANA CAROLINA FERNANDES SILVA ANALISTA DO MP BELO HORIZONTE - COMARCA; GABINETE DE PROCURADOR DE JUSTIÇA - SALA 704 1.198,00 0,00 519,00 0,00 4.234,04 0,00 0,00 0,00 388,12 31/05/2021
309 522100 ANA CAROLINA FERNANDINO VIDAL PEREIRA SANTOS OFICIAL DO MP BELO HORIZONTE - COMARCA; SECRETARIA DO PROCON-MG 1.198,00 0,00 519,00 0,00 0,00 0,00 0,00 0,00 0,00 31/05/2021
310 244700 ANA CAROLINA GARCIA COSTA PROMOT.ENTRANC.ESPECIAL BELO HORIZONTE - COMARCA; BH-23PJ INFRACIONAL-GAB 147PJ 1.198,00 0,00 2.733,19 0,00 5.614,85 0,00 0,00 0,00 514,69 31/05/2021
311 502400 ANA CAROLINA GONCALVES FERNANDES ANALISTA DO MP IPATINGA - COMARCA; IPATINGA-PJ-01PJ 1.198,00 769,39 519,00 0,00 0,00 0,00 0,00 0,00 0,00 31/05/2021
312 529900 ANA CAROLINA GONCALVES PECANHA CHEQUER ANALISTA DO MP MANHUAÇU - COMARCA; MANHUACU-PJ-04PJ 1.198,00 1.538,78 519,00 0,00 0,00 0,00 0,00 0,00 0,00 31/05/2021
313 1193100 ANA CAROLINA JANUARIO SILVA ESTAGIARIO BELO HORIZONTE; BH-18PJ VIOLENCIA DOMESTICA 0,00 0,00 0,00 90,00 0,00 0,00 0,00 0,00 0,00 31/05/2021
314 1106000 ANA CAROLINA LEITE CHAVES ESTAGIARIO BELO HORIZONTE; BH-12PJ JUIZO CRIMINAL 0,00 0,00 0,00 90,00 0,00 0,00 0,00 0,00 0,00 31/05/2021
315 1207700 ANA CAROLINA LETAYF CAMPOS ESTAGIARIO JUIZ DE FORA; JUIZ DE FORA-PJ-25PJ 0,00 0,00 0,00 45,00 0,00 0,00 0,00 0,00 0,00 31/05/2021
316 1202400 ANA CAROLINA MARTINS DE ANDRADE ESTAGIARIO UBA; UBA-PJ-02PJ 0,00 0,00 0,00 45,00 0,00 0,00 0,00 0,00 0,00 31/05/2021
317 1137800 ANA CAROLINA MIRANDA DE MEIRELES MOUTINHO ESTAGIARIO SETE LAGOAS; SETE LAGOAS-PJ-05PJ 0,00 0,00 0,00 45,00 0,00 0,00 0,00 0,00 0,00 31/05/2021
318 431900 ANA CAROLINA MOTTA GUATIMOSIM ANALISTA DO MP BELO HORIZONTE - COMARCA; ASSESSORIA JURIDICO-ADMINISTRATIVA 1.198,00 769,39 519,00 0,00 0,00 0,00 0,00 0,00 0,00 31/05/2021
319 1268100 ANA CAROLINA RODRIGUES FIGUEIREDO ESTAGIARIO IGARAPE; IGARAPE-PJ-04PJ 0,00 0,00 0,00 27,00 0,00 0,00 0,00 0,00 0,00 31/05/2021
320 1249200 ANA CAROLINA TEIXEIRA PERUSSIO PAIVA ESTAGIARIO JUIZ DE FORA; COORD REG PJ DEF EDU DIR CRIAN ADOL ZONA MATA 0,00 0,00 0,00 18,00 0,00 0,00 0,00 0,00 0,00 31/05/2021
321 490600 ANA CAROLINA XAVIER GODOY ANALISTA DO MP BELO HORIZONTE - COMARCA; BH-18PJ DIREITOS HUMANOS-SECRETARIA 1.198,00 1.538,78 519,00 0,00 0,00 0,00 0,00 0,00 0,00 31/05/2021
322 313700 ANA CAROLINA ZAMBOM PINTO COELHO PROMOT.ENTRANC.ESPECIAL SABARÁ - COMARCA; SABARA-PJ-01PJ 1.198,00 0,00 1.301,52 0,00 28.074,25 0,00 0,00 0,00 514,69 31/05/2021
323 1220900 ANA CAROLINE CARVALHO MARTINS ESTAGIARIO IPATINGA; IPATINGA-PJ-01PJ 0,00 0,00 0,00 171,00 0,00 0,00 0,00 0,00 0,00 31/05/2021
324 1188000 ANA CAROLINE DA CRUZ SILVA ESTAGIARIO CURVELO; CURVELO-PJ-04PJ 0,00 0,00 0,00 171,00 144,60 0,00 0,00 0,00 0,00 31/05/2021
325 1142100 ANA CAROLINE FERRAZ CHAIB ESTAGIARIO CONCEICAO DO RIO VERDE; CONCEICAO DO RIO VERDE-PJ-UNPJ 0,00 0,00 0,00 108,00 0,00 0,00 0,00 0,00 0,00 31/05/2021
326 1074500 ANA CAROLINE MONTEIRO DE BARROS ESTAGIARIO IPATINGA; IPATINGA-PJ-10PJ 0,00 0,00 0,00 180,00 0,00 0,00 0,00 0,00 0,00 31/05/2021
327 1206100 ANA CAROLINE OLIVEIRA PEREIRA ESTAGIARIO BELO HORIZONTE; BH-21PJ TUTELA FUNDACOES-SECRETARIA
328 600300 ANA CAROLINE PEREIRA DINIZ ANALISTA DO MP BELO HORIZONTE - COMARCA; PROC JUST ESP ACOES COMP ORIG CRIMINAL-SEC 1.198,00 769,39 519,00 0,00 0,00 0,00 0,00 0,00 0,00 31/05/2021
329 615800 ANA CAROLINE PEREIRA OLIVEIRA OFICIAL DO MP ALFENAS - COMARCA; ALFENAS-PJ-06PJ 1.198,00 0,00 519,00 0,00 0,00 0,00 0,00 0,00 0,00 31/05/2021
330 1209600 ANA CAROLINE RODRIGUES DOS SANTOS ESTAGIARIO
331 229202 ANA CECILIA JUNQUEIRA GOUVEA PROMOT.ENTRANC.ESPECIAL RIBEIRÃO DAS NEVES - COMARCA; RIBEIRAO DAS NEVES-PJ-08PJ 1.198,00 0,00 2.060,74 0,00 5.614,85 0,00 0,00 0,00 514,69 31/05/2021
332 324800 ANA CECILIA MENDES DA SILVA OFICIAL DO MP OURO FINO - COMARCA; OURO FINO-PJ-01PJ 1.198,00 0,00 519,00 0,00 0,00 0,00 0,00 0,00 0,00 31/05/2021
333 1162800 ANA CLARA BARBI LIMA ESTAGIARIO BELO HORIZONTE; PROC. JUSTICA CRIMINAL 0,00 0,00 0,00 90,00 0,00 0,00 0,00 0,00 0,00 31/05/2021
334 1266100 ANA CLARA CORDEIRO DUARTE NUNES ESTAGIARIO NOVA LIMA; NOVA LIMA-PJ-SECRETARIA 0,00 0,00 0,00 27,00 0,00 0,00 0,00 0,00 0,00 31/05/2021
335 1092000 ANA CLARA DE SOUZA ESTAGIARIO BELO HORIZONTE; PROC. JUSTICA CIVEL
336 1154400 ANA CLARA DE SOUZA II ESTAGIARIO ARAXA; ARAXA-PJ-03PJ 0,00 0,00 0,00 36,00 0,00 0,00 0,00 0,00 0,00 31/05/2021
337 1210000 ANA CLARA GUIMARAES ROSA ESTAGIARIO IGARAPE; IGARAPE-PJ-03PJ 0,00 0,00 0,00 63,00 0,00 0,00 0,00 0,00 0,00 31/05/2021
338 704100 ANA CLARA MARTINS ALBUQUERQUE ASSESSOR BELO HORIZONTE - COMARCA; CAO-CRIANCAS E ADOLESCENTES-ASS TECNICA 1.524,73 0,00 1.038,00 0,00 0,00 0,00 0,00 0,00 820,34 31/05/2021
339 1165900 ANA CLARA PORTO REIS ESTAGIARIO PATROCINIO; PATROCINIO-PJ-01PJ 0,00 0,00 0,00 162,00 0,00 0,00 0,00 0,00 0,00 31/05/2021
340 1199400 ANA CLARA RIBEIRO GONCALVES ESTAGIARIO BELO HORIZONTE; ASSESSORIA DE COMUNICACAO INTEGRADA
341 1221000 ANA CLARA ROMANCINI RENNO DE ASSIS ESTAGIARIO ITAJUBA; ITAJUBA-PJ-04PJ 0,00 0,00 0,00 90,00 0,00 0,00 0,00 0,00 0,00 31/05/2021
342 698700 ANA CLARA SANTOS ALMEIDA ASSESSOR PROMOTOR JUSTICA SABINÓPOLIS - COMARCA; SABINOPOLIS-PJ-UNPJ 1.198,00 0,00 519,00 0,00 0,00 0,00 0,00 0,00 0,00 31/05/2021
343 1259600 ANA CLARA SOARES PEREIRA BARBOSA ESTAGIARIO PATOS DE MINAS; PATOS DE MINAS-PJ-07PJ 0,00 0,00 0,00 153,00 0,00 0,00 0,00 0,00 0,00 31/05/2021
344 441300 ANA CLAUDIA ALKIMIM MIRANDA BOMTEMPO ANALISTA DO MP MONTES CLAROS - COMARCA; MONTES CLAROS-PJ-11PJ 1.198,00 0,00 519,00 0,00 0,00 0,00 0,00 0,00 0,00 31/05/2021
345 1068500 ANA CLAUDIA ALVES MACHADO ESTAGIARIO ITAUNA; ITAUNA-PJ-01PJ
346 1156600 ANA CLAUDIA ALVIM SANTOS BERTOLI ESTAGIARIO JANAUBA; JANAUBA-PJ-01PJ 0,00 0,00 0,00 108,00 0,00 0,00 0,00 0,00 0,00 31/05/2021
347 642500 ANA CLAUDIA DA COSTA NAVES OFICIAL DO MP MONTE CARMELO - COMARCA; MONTE CARMELO-PJ-02PJ 1.198,00 769,39 519,00 0,00 0,00 0,00 0,00 0,00 0,00 31/05/2021
348 1149600 ANA CLAUDIA DE ALMEIDA FERREIRA ESTAGIARIO POCO FUNDO; POCO FUNDO-PJ-UNPJ 0,00 0,00 0,00 189,00 0,00 0,00 0,00 0,00 0,00 31/05/2021
349 1028100 ANA CLAUDIA FERNANDES MENDES ESTAGIARIO BRUMADINHO; BRUMADINHO-PJ-02PJ 0,00 0,00 0,00 180,00 0,00 0,00 0,00 0,00 0,00 31/05/2021
350 1166700 ANA CLAUDIA FERREIRA DA SILVA ESTAGIARIO BELO HORIZONTE; BH-16PJ HABITACAO URBANISMO-GAB 117PJ 0,00 0,00 0,00 63,00 0,00 0,00 0,00 0,00 0,00 31/05/2021
351 1239900 ANA CLAUDIA GOIANAZES MOREIRA ESTAGIARIO BELO HORIZONTE; BH-18PJ VIOLENCIA DOMESTICA-GAB 044PJ 0,00 0,00 0,00 171,00 0,00 0,00 0,00 0,00 0,00 31/05/2021
352 1110600 ANA CLAUDIA JUSTINO SILVA ESTAGIARIO IBIRITE; IBIRITE-PJ-02PJ 0,00 0,00 0,00 81,00 0,00 0,00 0,00 0,00 0,00 31/05/2021
353 341500 ANA CLAUDIA LOPES PROMOT.ENTRANC.ESPECIAL BELO HORIZONTE - COMARCA; BH-07PJ 01 TRIBUNAL DO JURI-GAB 077PJ 1.198,00 0,00 2.735,06 0,00 16.844,55 0,00 0,00 0,00 514,69 31/05/2021
354 604900 ANA CLAUDIA OLIVEIRA DE MIRANDA OFICIAL DO MP PONTE NOVA - COMARCA; PONTE NOVA-PJ-04PJ 1.198,00 0,00 519,00 0,00 0,00 0,00 0,00 0,00 0,00 31/05/2021
355 1131000 ANA CLAUDIA OLIVEIRA PEREIRA ESTAGIARIO BELO HORIZONTE; PROMOT ESTADUAL DE DEF PATRI CULT E TUR DE MG 0,00 0,00 0,00 9,00 0,00 0,00 0,00 0,00 0,00 31/05/2021
356 1257400 ANA CLAUDIA SMOLNY PINTO ESTAGIARIO LAMBARI; LAMBARI-PJ-UNPJ
357 1085500 ANA CLERIA DE OLIVEIRA SOUZA ESTAGIARIO GOVERNADOR VALADARES; GOVERNADOR VALADARES-PJ-13PJ 0,00 0,00 0,00 162,00 0,00 0,00 0,00 0,00 0,00 31/05/2021
358 379300 ANA CRISTINA ALVES FLAVIO ANALISTA DO MP SÃO GOTARDO - COMARCA; SAO GOTARDO-PJ-01PJ 1.198,00 769,39 519,00 0,00 687,56 0,00 0,00 0,00 63,03 31/05/2021
359 461200 ANA CRISTINA ALVES PASCHOAL ANALISTA DO MP SANTA LUZIA - COMARCA; SANTA LUZIA-PJ-03PJ 1.198,00 0,00 519,00 0,00 0,00 0,00 0,00 0,00 0,00 31/05/2021
360 514100 ANA CRISTINA ARAUJO ASSUNCAO ANALISTA DO MP BELO HORIZONTE - COMARCA; ASSESS JUR DO CONS SUPERIOR DO MINISTERIO PUB 1.198,00 769,39 519,00 0,00 0,00 0,00 0,00 0,00 0,00 31/05/2021
361 113400 ANA CRISTINA BRAGA ALBUQUERQUE ASSESSOR/ANALISTA BELO HORIZONTE - COMARCA; ASSESS ESP ADM E FINANCEIRA DO PGJ ADJ ADM 1.198,00 0,00 519,00 0,00 5.673,96 0,00 0,00 0,00 520,11 31/05/2021
362 233800 ANA CRISTINA BRAGA SOARES OFICIAL DO MP CONTAGEM - COMARCA; CONTAGEM-PJ-SECRETARIA 1.198,00 0,00 519,00 0,00 0,00 0,00 0,00 0,00 0,00 31/05/2021
363 1234200 ANA CRISTINA CHAVES ESTAGIARIO JANAUBA; JANAUBA-PJ-03PJ 0,00 0,00 0,00 117,00 0,00 0,00 0,00 0,00 0,00 31/05/2021
364 186400 ANA CRISTINA DE AZEVEDO LOPES OFICIAL DO MP UBÁ - COMARCA; UBA-PJ-01PJ 1.198,00 0,00 519,00 0,00 0,00 0,00 0,00 0,00 0,00 31/05/2021
365 693000 ANA CRISTINA DE MELO SILVEIRA ASSESSOR PROCURADOR JUSTICA BELO HORIZONTE - COMARCA; GABINETE DE PROCURADOR DE JUSTIÇA - SALA 504 1.198,00 769,39 519,00 0,00 0,00 0,00 0,00 0,00 0,00 31/05/2021
366 465100 ANA CRISTINA DE OLIVEIRA GUIMARAES ANALISTA DO MP ITAJUBA - COMARCA; ITAJUBA-PJ-05PJ 1.198,00 1.538,78 519,00 0,00 0,00 0,00 0,00 0,00 0,00 31/05/2021
367 500600 ANA CRISTINA LATADO SUDARIO ANALISTA DO MP UBERLÂNDIA - COMARCA; UBERLANDIA-PJ-09PJ 1.198,00 0,00 519,00 0,00 0,00 0,00 0,00 0,00 0,00 31/05/2021
368 331400 ANA CRISTINA RIBEIRO ALVES OFICIAL DO MP BAMBUÍ - COMARCA; BAMBUI-PJ-UNPJ 1.198,00 0,00 519,00 0,00 0,00 0,00 0,00 0,00 0,00 31/05/2021
369 1021500 ANA CRISTINA SILVEIRA BATISTA ESTAGIARIO CONTAGEM; CONTAGEM-PJ-23PJ
370 1212000 ANA ELISA LEAL ROCHA ESTAGIARIO BELO HORIZONTE; BH-13ª PJ JUÍXO DE TÓXICOS 0,00 0,00 0,00 90,00 0,00 0,00 0,00 0,00 0,00 31/05/2021
371 249300 ANA ELOINA MARTINS OFICIAL DO MP BETIM - COMARCA; BETIM-PJ-02PJ 1.198,00 0,00 519,00 0,00 0,00 0,00 0,00 0,00 0,00 31/05/2021
372 611500 ANA FLAVIA AFONSO DRUMOND AMORIM PROMOTOR 2A ENTRANCIA PIRAPORA - COMARCA; PIRAPORA-PJ-02PJ 1.198,00 0,00 0,00 0,00 5.334,11 0,00 0,00 0,00 488,96 31/05/2021
373 257400 ANA FLAVIA CAMBRAIA ANALISTA DO MP BELO HORIZONTE - COMARCA; BH-19PJ SAUDE-SECRETARIA 150PJ 1.198,00 0,00 519,00 0,00 941,38 0,00 0,00 0,00 86,29 31/05/2021
374 1066000 ANA FLAVIA CARDOSO DE ABREU ESTAGIARIO BELO HORIZONTE; CENTRAL DE APOIO TECNICO-SETOR CONTABIL
375 1230700 ANA FLAVIA CARDOSO VIZOTTO ESTAGIARIO BELO HORIZONTE; BH-12PJ JUIZO CRIMINAL-GAB 104PJ 0,00 0,00 0,00 9,00 0,00 0,00 0,00 0,00 72,30 31/05/2021
376 248201 ANA FLAVIA DE MORAIS SOUZA ANALISTA DO MP DIVINÓPOLIS - COMARCA; DIVINOPOLIS-PJ-01PJ 1.198,00 769,39 519,00 0,00 0,00 0,00 0,00 0,00 0,00 31/05/2021
377 621100 ANA FLAVIA DINIZ TEODORO OFICIAL DO MP SANTA LUZIA - COMARCA; SANTA LUZIA-PJ-06PJ 1.198,00 0,00 519,00 0,00 0,00 0,00 0,00 0,00 0,00 31/05/2021
378 1137900 ANA FLAVIA FIGUEIREDO SALOMAO ESTAGIARIO TEOFILO OTONI; TEOFILO OTONI-PJ-08PJ 0,00 0,00 0,00 45,00 0,00 0,00 0,00 0,00 0,00 31/05/2021
379 238600 ANA FLAVIA FRANCO OFICIAL DO MP BELO HORIZONTE - COMARCA; DIRETORIA DE PESSOAL ADMINISTRATIVO - DPAD 1.198,00 0,00 519,00 0,00 0,00 0,00 0,00 0,00 0,00 31/05/2021
380 1123700 ANA FLAVIA GRACIELE GUIMARAES PAIVA ESTAGIARIO SANTA LUZIA; SANTA LUZIA-PJ-01PJ 0,00 0,00 0,00 45,00 0,00 0,00 0,00 0,00 0,00 31/05/2021
381 690000 ANA FLAVIA LURIAN DE PAIVA ASSESSOR PROCURADOR JUSTICA BELO HORIZONTE - COMARCA; GABINETE DE PROCURADOR DE JUSTIÇA - SALA 609 1.198,00 0,00 519,00 0,00 0,00 0,00 0,00 0,00 0,00 31/05/2021
382 1275200 ANA FLAVIA MARTINS CAMPOS ESTAGIARIO ALMENARA; ALMENARA-PJ-01PJ 0,00 0,00 0,00 171,00 0,00 0,00 0,00 0,00 0,00 31/05/2021
383 1032100 ANA FLAVIA PEREIRA ESTAGIARIO BELO HORIZONTE; PROC JUST RECURSOS ESP E EXTRAORD CRIMINAIS 0,00 0,00 0,00 90,00 0,00 0,00 0,00 0,00 0,00 31/05/2021
384 402900 ANA FLAVIA PORTES DE CARVALHO ANALISTA DO MP BELO HORIZONTE - COMARCA; DIRET DE PLANOS PROJETOS E PROGRAMAS INST 1.198,00 0,00 519,00 0,00 0,00 0,00 0,00 0,00 0,00 31/05/2021
385 526300 ANA GABRIELA BRITO MELO ROCHA PROMOTOR 2A ENTRANCIA TRÊS PONTAS - COMARCA; TRES PONTAS-PJ-03PJ 1.198,00 0,00 1.518,44 0,00 0,00 0,00 0,00 0,00 0,00 31/05/2021
386 1254700 ANA HELENA SANTOS DE OLIVEIRA ESTAGIARIO ITABIRA; ITABIRA-PJ-05PJ 0,00 0,00 0,00 117,00 0,00 0,00 0,00 0,00 0,00 31/05/2021
387 1195300 ANA HELOISA MARQUES OLIVEIRA CARNEIRO ESTAGIARIO BELO HORIZONTE; BH-18PJ DIREITOS HUMANOS-GAB 125PJ 0,00 0,00 0,00 18,00 0,00 0,00 0,00 0,00 0,00 31/05/2021
388 1172400 ANA JULIA DE VILHENA ESTAGIARIO IBIRACI; IBIRACI-PJ-UNPJ 0,00 0,00 0,00 171,00 0,00 0,00 0,00 0,00 0,00 31/05/2021
389 1135300 ANA JULIA DIXINI CARVALHO ESTAGIARIO TRES PONTAS; TRES PONTAS-PJ-03PJ 0,00 0,00 0,00 90,00 0,00 0,00 0,00 0,00 0,00 31/05/2021
390 1262100 ANA JULIA SILVA PEREIRA ESTAGIARIO LAVRAS; LAVRAS-PJ-02PJ 0,00 0,00 0,00 153,00 0,00 0,00 0,00 0,00 0,00 31/05/2021
391 382700 ANA KARENINA SALDANHA GONTIJO ANALISTA DO MP BELO HORIZONTE - COMARCA; ASSESS TECNICO-JUR JUNTO AS PROC. DE JUST 1.198,00 769,39 519,00 0,00 0,00 0,00 0,00 0,00 0,00 31/05/2021
392 620500 ANA KARINE DE ANDRADE OLIVEIRA ANALISTA DO MP RIBEIRÃO DAS NEVES - COMARCA; RIBEIRAO NEVES-SEC PJ EXECUCAO PENAL 1.198,00 0,00 519,00 0,00 0,00 0,00 0,00 0,00 0,00 31/05/2021
393 1255500 ANA KAROLINA DAS VIRGENS COSTA ESTAGIARIO
394 1208400 ANA KAROLINE ARAUJO DA SILVA ESTAGIARIO SANTA LUZIA; SANTA LUZIA-PJ-07PJ 0,00 0,00 0,00 54,00 0,00 0,00 0,00 0,00 0,00 31/05/2021
395 1259400 ANA KAROLINE DOS SANTOS ESTAGIARIO
396 1055000 ANA LAURA FREITAS MARTINS ESTAGIARIO SETE LAGOAS; SETE LAGOAS-PJ-01PJ 0,00 0,00 0,00 117,00 0,00 0,00 0,00 0,00 0,00 31/05/2021
397 1174700 ANA LAURA PEREIRA DIAS ESTAGIARIO DIAMANTINA; DIAMANTINA-PJ-01PJ 0,00 0,00 0,00 72,00 0,00 0,00 0,00 0,00 0,00 31/05/2021
398 57400 ANA LEIA SALOMAO E RIBEIRO PROMOT.ENTRANC.ESPECIAL JUIZ DE FORA - COMARCA; JUIZ DE FORA-PJ-02PJ 1.198,00 0,00 1.301,52 0,00 5.614,85 0,00 0,00 0,00 514,69 31/05/2021
399 1275900 ANA LETICIA DE ANDRADE ESTAGIARIO IBIA; IBIA-PJ-UNPJ 0,00 0,00 0,00 135,00 0,00 0,00 0,00 0,00 0,00 31/05/2021
400 224300 ANA LETICIA MARTINS DE SOUZA PROMOT.ENTRANC.ESPECIAL CONTAGEM - COMARCA; CONTAGEM-PJ-13PJ 1.198,00 0,00 0,00 0,00 0,00 0,00 0,00 0,00 0,00 31/05/2021
401 1034000 ANA LIVIA DE FREITAS SILVA ESTAGIARIO PARAOPEBA; PARAOPEBA-PJ-UNPJ 0,00 0,00 0,00 45,00 0,00 0,00 0,00 0,00 0,00 31/05/2021
402 1174300 ANA LIVIA GOMES VIEIRA ESTAGIARIO BELO HORIZONTE; BH-23PJ CIVEL 0,00 0,00 0,00 18,00 0,00 0,00 0,00 0,00 0,00 31/05/2021
403 462200 ANA LUCIA ANDRADE TOMICH OTTONI ANALISTA DO MP TEÓFILO OTONI - COMARCA; TEOFILO OTONI-PJ-07PJ 1.198,00 0,00 519,00 0,00 0,00 0,00 0,00 0,00 0,00 31/05/2021
404 504100 ANA LUCIA CATAO DE CARVALHO OFICIAL DO MP BELO HORIZONTE - COMARCA; BH-09PJ AUDITORIA MILITAR-SECRETARIA 1.198,00 0,00 519,00 0,00 0,00 0,00 0,00 0,00 0,00 31/05/2021
405 274700 ANA LUCIA DE ALENCAR BRAGATO OFICIAL DO MP UBERABA - COMARCA; UBERABA-PJ-07PJ 1.198,00 0,00 519,00 0,00 0,00 0,00 0,00 0,00 0,00 31/05/2021
406 509400 ANA LUCIA DORNELAS MALLOSTO ANALISTA DO MP JUIZ DE FORA - COMARCA; JUIZ DE FORA-PJ-25PJ 1.198,00 0,00 519,00 0,00 0,00 0,00 0,00 0,00 0,00 31/05/2021
407 114600 ANA LUCIA JUNQUEIRA MUZZI CAVALIERI PROMOT.ENTRANC.ESPECIAL JUIZ DE FORA - COMARCA; JUIZ DE FORA-PJ-12PJ 1.198,00 0,00 2.733,19 0,00 5.614,85 0,00 0,00 0,00 514,69 31/05/2021
408 302600 ANA LUCIA LOPES SANTOS OFICIAL DO MP BELO HORIZONTE - COMARCA; DIVISÃO DE FISCALIZAÇÃO DAS RELAÇÕES DE CONSU 1.198,00 0,00 519,00 0,00 0,00 0,00 1.445,27 0,00 0,00 31/05/2021
409 1030200 ANA LUISA ARAUJO MORAIS ESTAGIARIO CAMPO BELO; CAMPO BELO-PJ-03PJ 0,00 0,00 0,00 90,00 192,80 0,00 0,00 0,00 0,00 31/05/2021
410 1103200 ANA LUISA DE LANA COELHO ESTAGIARIO BELO HORIZONTE; GABINETE DE PROCURADOR DE JUSTIÇA - SALA 715
411 702000 ANA LUISA DE OLIVEIRA RIBEIRO ASSESSOR PROCURADOR JUSTICA BELO HORIZONTE - COMARCA; ASSESS TECNICO-JUR JUNTO AS PROC. DE JUST 1.198,00 0,00 519,00 0,00 0,00 0,00 0,00 0,00 0,00 31/05/2021
412 493400 ANA LUISA NOGUEIRA MOREIRA ANALISTA DO MP BELO HORIZONTE - COMARCA; BH-19PJ SAUDE-SECRETARIA 130PJ 1.198,00 0,00 519,00 0,00 0,00 0,00 0,00 0,00 0,00 31/05/2021
413 389300 ANA LUISA REUTER LIMA COORDENADOR/ANALISTA BELO HORIZONTE - COMARCA; DIRETORIA DE SISTEMAS DE INFORMACAO 1.198,00 0,00 519,00 0,00 0,00 0,00 0,00 0,00 0,00 31/05/2021
414 1112300 ANA LUISA RODRIGUES DUARTE ESTAGIARIO BELO HORIZONTE; EXTINTA-COORD EST DEF DIR FAM PES DEFIC IDOSO 0,00 0,00 0,00 81,00 0,00 0,00 0,00 0,00 0,00 31/05/2021
415 1235500 ANA LUISA RODRIGUES SOUSA ESTAGIARIO 0,00 0,00 0,00 135,00 0,00 0,00 0,00 0,00 0,00 31/05/2021
416 1141900 ANA LUISA SOUSA GUIMARAES ESTAGIARIO UBERABA; UBERABA-PJ-10PJ 0,00 0,00 0,00 99,00 0,00 0,00 0,00 0,00 0,00 31/05/2021
417 1197700 ANA LUIZA AGUILAR DE REZENDE ESTAGIARIO BELO HORIZONTE; PROC. JUSTICA DIR. DIFUSOS E COLETIVOS 0,00 0,00 0,00 36,00 0,00 0,00 0,00 0,00 0,00 31/05/2021
418 1089000 ANA LUIZA ALESSI FERREIRA DE CARVALHO ESTAGIARIO BELO HORIZONTE; BH-02PJ FAMILIA
419 1248700 ANA LUIZA ANDRADE KOLASCO ESTAGIARIO BELO HORIZONTE; TOXICOS-13 PJ- COORDENACAO 0,00 0,00 0,00 72,00 0,00 0,00 0,00 0,00 0,00 31/05/2021
420 441100 ANA LUIZA DA COSTA E CRUZ PROMOTOR SUBSTITUTO BETIM - COMARCA; BETIM-PJ-04PJ 1.198,00 0,00 911,06 0,00 18.242,65 0,00 0,00 0,00 464,51 31/05/2021
421 161000 ANA LUIZA DE ABREU MOREIRA PROMOT.ENTRANC.ESPECIAL BELO HORIZONTE - COMARCA; BH-03PJ EMPRESARIAL-GAB 037PJ 1.198,00 0,00 3.145,33 0,00 5.614,85 0,00 0,00 0,00 514,69 31/05/2021
422 1108900 ANA LUIZA DE OLIVEIRA REIS ESTAGIARIO SABARA; SABARA-PJ-03PJ 0,00 0,00 0,00 63,00 0,00 0,00 0,00 0,00 0,00 31/05/2021
423 480600 ANA LUIZA FERNANDES FRAGA E GRECO COORDENADOR/OFICIAL BELO HORIZONTE - COMARCA; OUVIDORIA DO MPMG 1.198,00 0,00 519,00 0,00 0,00 0,00 0,00 0,00 0,00 31/05/2021
424 1133300 ANA LUIZA FERREIRA VAZ ESTAGIARIO DIVINOPOLIS; DIVINOPOLIS-PJ-12PJ 0,00 0,00 0,00 63,00 0,00 0,00 0,00 0,00 0,00 31/05/2021
425 1154800 ANA LUIZA GIORNI NOCCHI ESTAGIARIO BELO HORIZONTE; PROC. JUSTICA CIVEL
426 685400 ANA LUIZA HENRIQUES BERGER MACHADO PROMOTOR SUBSTITUTO JEQUITINHONHA - COMARCA; JEQUITINHONHA-PJ-UNPJ 1.198,00 0,00 715,83 0,00 0,00 0,00 0,00 0,00 0,00 31/05/2021
427 517800 ANA LUIZA MAGALHAES CIRINO PIOTO DE MELO OFICIAL DO MP BELO HORIZONTE - COMARCA; DIVISAO DE MANUTENCAO PREDIAL 1.579,15 769,39 1.038,00 0,00 0,00 0,00 0,00 0,00 1.777,77 31/05/2021
428 1217100 ANA LUIZA MOREIRA FERNANDES ESTAGIARIO RIO CASCA; RIO CASCA-PJ-UNPJ 0,00 0,00 0,00 180,00 0,00 0,00 0,00 0,00 0,00 31/05/2021
429 1214300 ANA LUIZA SCHUFFNER RIBEIRO ESTAGIARIO BELO HORIZONTE; PROCURADORIA DE JUSTIÇA CRIMINAL
430 1145200 ANA LUIZA SILVA FIDELIS ESTAGIARIO VISCONDE DO RIO BRANCO; VISCONDE DO RIO BRANCO-PJ-02PJ 0,00 0,00 0,00 81,00 0,00 0,00 0,00 0,00 0,00 31/05/2021
431 1055200 ANA LUIZA SILVA PEREIRA CRUZ ESTAGIARIO 0,00 0,00 0,00 180,00 0,00 0,00 0,00 0,00 0,00 31/05/2021
432 1021000 ANA LUIZA SILVA SANTIAGO ESTAGIARIO BELO HORIZONTE; CAO-CRIMINAL-GABINETES 0,00 0,00 0,00 36,00 0,00 0,00 0,00 0,00 0,00 31/05/2021
433 1260700 ANA LUIZA SOARES BISPO ESTAGIARIO SETE LAGOAS; SETE LAGOAS-PJ-06PJ 0,00 0,00 0,00 162,00 0,00 0,00 0,00 0,00 0,00 31/05/2021
434 1171500 ANA LUIZA TEIXEIRA CUNHA ESTAGIARIO ITAPAGIPE; ITAPAGIPE-PJ-UNPJ 0,00 0,00 0,00 162,00 0,00 0,00 0,00 0,00 0,00 31/05/2021
435 481400 ANA MARCIA CANDIDA FERREIRA OFICIAL DO MP BRUMADINHO - COMARCA; BRUMADINHO-PJ-02PJ 1.198,00 0,00 519,00 0,00 0,00 0,00 0,00 0,00 0,00 31/05/2021
436 114700 ANA MARIA CAMILO DA HORA E ROCHA PROMOT.ENTRANC.ESPECIAL MONTES CLAROS - COMARCA; MONTES CLAROS-PJ-05PJ 1.198,00 0,00 2.819,96 0,00 0,00 0,00 0,00 0,00 0,00 31/05/2021
437 1247900 ANA MARIA FONSECA ROSA ESTAGIARIO PATOS DE MINAS; PATOS DE MINAS-PJ-02PJ 0,00 0,00 0,00 36,00 0,00 0,00 0,00 0,00 0,00 31/05/2021
438 643100 ANA MARIA LOPES MIRANDA ANALISTA DO MP BELO HORIZONTE - COMARCA; CAO-FUNDACOES 1.198,00 0,00 519,00 0,00 0,00 0,00 0,00 0,00 0,00 31/05/2021
439 556400 ANA MARIA OLIVEIRA SOUZA OFICIAL DO MP ITAPECERICA - COMARCA; ITAPECERICA-PJ-UNPJ 1.198,00 0,00 519,00 0,00 0,00 0,00 0,00 0,00 0,00 31/05/2021
440 409600 ANA OLIVIA FARIA ROSENBURG ANALISTA DO MP BELO HORIZONTE - COMARCA; DIRETORIA DO COLEGIO E DA CAMARA DE PJ 1.198,00 0,00 519,00 0,00 1.353,20 0,00 0,00 0,00 124,04 31/05/2021
441 461500 ANA PAULA ALVES CARVALHO ANALISTA DO MP UBERLÂNDIA - COMARCA; UBERLANDIA-PJ-25PJ 1.198,00 0,00 519,00 0,00 0,00 0,00 0,00 0,00 0,00 31/05/2021
442 523200 ANA PAULA ALVES DA SILVA OFICIAL DO MP GOVERNADOR VALADARES - COMARCA; GOVERNADOR VALADARES-PJ-10PJ 1.198,00 3.076,47 519,00 0,00 0,00 0,00 0,00 0,00 0,00 31/05/2021
443 381200 ANA PAULA BARROS PEREIRA RIGHI ANALISTA DO MP BELO HORIZONTE - COMARCA; PROC JUST ATUACAO TRIBUNAIS SUPERIORES-GAB003 1.198,00 769,39 519,00 0,00 0,00 0,00 0,00 0,00 0,00 31/05/2021
444 696400 ANA PAULA CARVALHO SILVA ASSESSOR PROMOTOR JUSTICA PERDÕES - COMARCA; PERDOES-PJ-UNPJ 1.198,00 0,00 519,00 0,00 0,00 0,00 0,00 0,00 0,00 31/05/2021
445 700900 ANA PAULA CRAVO SALOME ASSESSOR BELO HORIZONTE - COMARCA; PROCURADOR-GERAL DE JUSTIÇA 1.198,00 0,00 519,00 0,00 0,00 0,00 0,00 0,00 0,00 31/05/2021
446 227200 ANA PAULA DA SILVA CAMPOLINA ANALISTA DO MP BELO HORIZONTE - COMARCA; DIRETORIA DE ORCAMENTO-DIOR/SPC 1.198,00 0,00 519,00 0,00 5.646,04 0,00 0,00 0,00 517,55 31/05/2021
447 1114000 ANA PAULA DE OLIVEIRA SANTOS ESTAGIARIO ARAGUARI; ARAGUARI-PJ-07PJ 0,00 0,00 0,00 18,00 0,00 0,00 0,00 0,00 0,00 31/05/2021
448 1275600 ANA PAULA DE SOUZA OLIVEIRA ESTAGIARIO MURIAE; MURIAE-PJ-07PJ 0,00 0,00 0,00 72,00 0,00 0,00 0,00 0,00 0,00 31/05/2021
449 278500 ANA PAULA DIAS CAPANEMA OFICIAL DO MP BELO HORIZONTE - COMARCA; DIRETORIA DE SEGURANCA 1.198,00 0,00 519,00 0,00 0,00 0,00 0,00 0,00 0,00 31/05/2021
450 1158900 ANA PAULA FONSECA ANDRADE ESTAGIARIO BELO HORIZONTE; CENTRAL DE APOIO TECNICO-SETOR DE ENGENHARIA
451 327300 ANA PAULA GARCIA MAXIMO OFICIAL DO MP UNAÍ - COMARCA; UNAI-PJ-01PJ 1.198,00 0,00 519,00 0,00 0,00 0,00 0,00 0,00 0,00 31/05/2021
452 1229100 ANA PAULA GOMES MIRANDA ESTAGIARIO BELO HORIZONTE; BH-12PJ JUIZO CRIMINAL-GAB 092PJ 0,00 0,00 0,00 63,00 0,00 0,00 0,00 0,00 0,00 31/05/2021
453 270000 ANA PAULA GOULART CRUZ DE MAGALHAES ANALISTA DO MP BELO HORIZONTE - COMARCA; PROC JUST ESP ACOES COMP ORIG CRIMINAL-ASSESS 1.198,00 0,00 519,00 0,00 0,00 0,00 0,00 0,00 0,00 31/05/2021
454 262100 ANA PAULA KOMATSUZAKI ABIJAUDI ANALISTA DO MP BELO HORIZONTE - COMARCA; BH-17PJ PATRIMONIO PUBLICO-SECRETARIA 1.198,00 0,00 519,00 0,00 0,00 0,00 0,00 0,00 0,00 31/05/2021
455 671400 ANA PAULA LIMA DA SILVA PROMOTOR 1A ENTRANCIA RIO CASCA - COMARCA; RIO CASCA-PJ-UNPJ 1.198,00 0,00 715,83 0,00 5.067,40 0,00 0,00 0,00 464,51 31/05/2021
456 222600 ANA PAULA LOURENCO DE PAULA PROMOTOR 2A ENTRANCIA ITUIUTABA - COMARCA; ITUIUTABA-PJ-03PJ 1.198,00 0,00 3.200,47 0,00 5.334,11 0,00 0,00 0,00 488,96 31/05/2021
457 106200 ANA PAULA MENDES RODRIGUES PROCURADOR DE JUSTICA BELO HORIZONTE - COMARCA; PROC JUSTICA DIR DIFUSOS E COLETIVOS-GAB007 1.198,00 0,00 1.193,06 0,00 17.731,11 0,00 0,00 0,00 541,78 31/05/2021
458 1065000 ANA PAULA MINARINI DA SILVA ESTAGIARIO CATAGUASES; CATAGUASES-PJ-01PJ 0,00 0,00 0,00 153,00 0,00 0,00 0,00 0,00 0,00 31/05/2021
459 278900 ANA PAULA MOREIRA GURGEL COORDENADOR/ANALISTA BELO HORIZONTE - COMARCA; DIRETORIA-GERAL 1.198,00 0,00 519,00 0,00 5.966,20 0,00 0,00 0,00 546,90 31/05/2021
460 1082100 ANA PAULA NOBRE PEREIRA ESTAGIARIO 0,00 0,00 0,00 189,00 0,00 0,00 0,00 0,00 0,00 31/05/2021
461 1185200 ANA PAULA QUINTELA PENA LOPES ESTAGIARIO CARATINGA; CARATINGA-PJ-07PJ 0,00 0,00 0,00 189,00 0,00 0,00 0,00 0,00 0,00 31/05/2021
462 484400 ANA PAULA RESENDE DORNELLAS DE AZEVEDO PROMOTOR SUBSTITUTO RIBEIRÃO DAS NEVES - COMARCA; RIBEIRAO DAS NEVES-PJ-06PJ 1.198,00 0,00 2.956,90 0,00 5.067,40 0,00 0,00 0,00 464,51 31/05/2021
463 425701 ANA PAULA ROCHA ANALISTA DO MP BELO HORIZONTE - COMARCA; ASSESSORIA DE COMUNICACAO INTEGRADA 1.198,00 769,39 519,00 0,00 0,00 0,00 0,00 0,00 0,00 31/05/2021
464 692700 ANA PAULA RODRIGUES GOMES GONCALVES ASSESSOR PROCURADOR JUSTICA BELO HORIZONTE - COMARCA; GABINETE DE PROCURADOR DE JUSTIÇA - SALA 1012 1.198,00 769,39 519,00 0,00 0,00 0,00 0,00 0,00 0,00 31/05/2021
465 395601 ANA PAULA SALGE OLIVEIRA ANALISTA DO MP UBERABA - COMARCA; UBERABA-PJ-15PJ 1.198,00 0,00 519,00 0,00 0,00 0,00 0,00 0,00 0,00 31/05/2021
466 1150000 ANA PAULA SANTIAGO TEIXEIRA SANTOS ESTAGIARIO GUANHAES; GUANHAES-PJ-02PJ 0,00 0,00 0,00 99,00 0,00 0,00 0,00 0,00 0,00 31/05/2021
467 473200 ANA PAULA SCOTTON BRASIL ANALISTA DO MP JUIZ DE FORA - COMARCA; JUIZ DE FORA-PJ-07PJ 1.198,00 769,39 519,00 0,00 0,00 0,00 0,00 0,00 0,00 31/05/2021
468 633600 ANA PAULA SILVA FERNANDES OFICIAL DO MP CATAGUASES - COMARCA; CATAGUASES-PJ-04PJ 1.198,00 0,00 519,00 0,00 0,00 0,00 0,00 0,00 0,00 31/05/2021
469 470900 ANA PAULA VALADARES ANALISTA DO MP PITANGUI - COMARCA; PITANGUI-PJ-01PJ 1.198,00 0,00 519,00 0,00 0,00 0,00 0,00 0,00 0,00 31/05/2021
470 447000 ANA PAULA VALENTIM DE ARAUJO ANALISTA DO MP BELO HORIZONTE - COMARCA; PROC JUST ESP ACOES COMP ORIG CRIMINAL-ASSESS 1.198,00 0,00 519,00 0,00 0,00 0,00 0,00 0,00 0,00 31/05/2021
471 604200 ANA PAULA VIANA E SILVA OFICIAL DO MP BELO HORIZONTE - COMARCA; BH-17PJ PATRIMONIO PUBLICO-SECRETARIA 1.198,00 0,00 519,00 0,00 0,00 0,00 0,00 0,00 0,00 31/05/2021
472 505400 ANA PAULA VIEIRA SOUTO OFICIAL DO MP ALMENARA - COMARCA; ALMENARA-PJ-01PJ 1.198,00 0,00 519,00 0,00 0,00 0,00 0,00 0,00 0,00 31/05/2021
473 280200 ANA RACHEL BRANDAO LADEIRA ROLAND DIRETOR/ANALISTA BELO HORIZONTE - COMARCA; DIRETORIA-GERAL 1.198,00 0,00 519,00 0,00 0,00 0,00 0,00 0,00 0,00 31/05/2021
474 691000 ANA RACHEL DOS REIS E SENA COSTA ASSESSOR PROMOTOR JUSTICA BELO HORIZONTE - COMARCA; GABINETE DE PROCURADOR DE JUSTIÇA - SALA 601 1.198,00 0,00 519,00 0,00 0,00 0,00 0,00 0,00 0,00 31/05/2021
475 601200 ANA REGINA RIBEIRO COORDENADOR/ANALISTA BELO HORIZONTE - COMARCA; DIV FISCAL ADM CONT TERCEIRIZACAO 1.198,00 0,00 519,00 0,00 0,00 0,00 0,00 0,00 0,00 31/05/2021
476 1053100 ANA RITA FERREIRA PIMENTA DOS SANTOS ESTAGIARIO BOCAIUVA; BOCAIUVA-PJ-03PJ 0,00 0,00 0,00 54,00 0,00 0,00 0,00 0,00 0,00 31/05/2021
477 1229700 ANA RITA FONSECA ESTAGIARIO FORMIGA; FORMIGA-PJ-03PJ 0,00 0,00 0,00 171,00 0,00 0,00 0,00 0,00 0,00 31/05/2021
478 384700 ANA RODRIGUES PEREIRA MARRA ANALISTA DO MP COROMANDEL - COMARCA; COROMANDEL-PJ-01PJ 1.198,00 769,39 519,00 0,00 0,00 0,00 0,00 0,00 0,00 31/05/2021
479 232700 ANA SILVIA SEMBLANO NAKAMURA ASSESSOR/OFICIAL BELO HORIZONTE - COMARCA; CENT DE APOIO TEC-SETOR DEF,IDOSO E INFANC 1.198,00 0,00 519,00 0,00 0,00 0,00 0,00 0,00 0,00 31/05/2021
480 1123000 ANA TELMA APARECIDA COSTA ESTAGIARIO
481 530300 ANA TEREZA RIBEIRO SALLES GIACOMINI PROMOTOR SUBSTITUTO CONTAGEM - COMARCA; CONTAGEM-PJ-19PJ 1.198,00 0,00 2.386,12 0,00 5.067,40 0,00 0,00 0,00 464,51 31/05/2021
482 1147700 ANA VICTORIA DOS PASSOS CAETANO ESTAGIARIO GOVERNADOR VALADARES; GOVERNADOR VALADARES-PJ-16PJ 0,00 0,00 0,00 9,00 0,00 0,00 0,00 0,00 0,00 31/05/2021
483 602100 ANACLETO FRANCISCO MARCIER PIMENTA OFICIAL DO MP SÃO JOÃO DEL REI - COMARCA; SAO JOAO DEL REI-PJ-03PJ 1.198,00 0,00 519,00 0,00 0,00 0,00 0,00 0,00 0,00 31/05/2021
484 310400 ANADEJE DO CARMO DINIZ ARAUJO OFICIAL DO MP BELO HORIZONTE - COMARCA; DIRETORIA DE PESSOAL ADMINISTRATIVO - DPAD 1.198,00 0,00 519,00 0,00 0,00 0,00 0,00 0,00 0,00 31/05/2021
485 337000 ANAILDES MARIA MENDES OFICIAL DO MP JANAÚBA - COMARCA; JANAUBA-PJ-02PJ 1.198,00 769,39 519,00 0,00 0,00 0,00 0,00 0,00 0,00 31/05/2021
486 1170500 ANANDA EVELYN AURELIO DE SOUZA ESTAGIARIO CONTAGEM; COORD REG DEF ORDEM ECON TRIB CONTAGEM 0,00 0,00 0,00 72,00 0,00 0,00 0,00 0,00 0,00 31/05/2021
487 192900 ANATALIA CERQUEIRA LIMA PERES OFICIAL DO MP UBERABA - COMARCA; COORD REG SAUDE MACROR SANIT TRIANGULO SUL 1.198,00 0,00 519,00 0,00 0,00 0,00 0,00 0,00 0,00 31/05/2021
488 377400 ANDEIRSON DA MATTA BARBOSA ANALISTA DO MP POUSO ALEGRE - COMARCA; POUSO ALEGRE-PJ-01PJ 1.198,00 769,39 519,00 0,00 0,00 0,00 0,00 0,00 0,00 31/05/2021
489 317400 ANDERSON DA SILVA BICALHO OFICIAL DO MP CONTAGEM - COMARCA; CONTAGEM-PJ-SECRETARIA 1.198,00 0,00 519,00 0,00 0,00 0,00 0,00 0,00 0,00 31/05/2021
490 506900 ANDERSON DE SOUZA DAMIANI ANALISTA DO MP BELO HORIZONTE - COMARCA; DIRETORIA DE PAGAMENTO DE PESSOAL-DPAG 1.198,00 0,00 519,00 0,00 0,00 0,00 0,00 0,00 0,00 31/05/2021
491 410000 ANDERSON DE SOUZA NETO ASSESSOR BELO HORIZONTE - COMARCA; DIRETORIA DE ADMINISTRACAO FINANCEIRA 1.198,00 0,00 519,00 0,00 0,00 0,00 0,00 0,00 0,00 31/05/2021
492 181900 ANDERSON FLAVIO DE OLIVEIRA OFICIAL DO MP ITAGUARA - COMARCA; ITAGUARA-PJ-SECRETARIA 1.198,00 0,00 519,00 0,00 0,00 0,00 0,00 0,00 0,00 31/05/2021
493 333200 ANDERSON JOSE DE FREITAS OFICIAL DO MP IPATINGA - COMARCA; IPATINGA-PJ-04PJ 1.198,00 0,00 519,00 0,00 0,00 0,00 1.445,27 0,00 0,00 31/05/2021
494 699400 ANDERSON LUIZ CABRAL ASSESSOR PROMOTOR JUSTICA ALÉM PARAÍBA - COMARCA; ALEM PARAIBA-PJ-03PJ 1.198,00 0,00 519,00 0,00 0,00 0,00 0,00 0,00 0,00 31/05/2021
495 462100 ANDERSON LUIZ GUIMARAES CARDOSO ANALISTA DO MP BARBACENA - COMARCA; BARBACENA-PJ-02PJ 1.198,00 0,00 519,00 0,00 0,00 0,00 0,00 0,00 0,00 31/05/2021
496 429700 ANDERSON MELO DE SOUZA ASSESSOR/OFICIAL BELO HORIZONTE - COMARCA; DIRET DE ESTAGIOS E CONVENIOS ACADEMICOS 1.198,00 0,00 519,00 0,00 0,00 0,00 0,00 0,00 0,00 31/05/2021
497 545600 ANDERSON MENDES PROCOPIO FERREIRA ANALISTA DO MP BELO HORIZONTE - COMARCA; BH-12PJ JUIZO CRIMINAL-GAB 089PJ 1.198,00 0,00 519,00 0,00 0,00 0,00 0,00 0,00 0,00 31/05/2021
498 519900 ANDERSON MOREIRA DOEHLER ANALISTA DO MP TEÓFILO OTONI - COMARCA; COORD REG SAUDE MACRORREGIAO SANIT NORDESTE 1.198,00 0,00 519,00 0,00 0,00 0,00 0,00 0,00 0,00 31/05/2021
499 103000 ANDERSON TADEU DE DEUS ASSESSOR BELO HORIZONTE - COMARCA; BH-26 CRIME CONT CRIAN ADOL-SECRETARIA 1.198,00 0,00 519,00 0,00 0,00 0,00 0,00 0,00 0,00 31/05/2021
500 652500 ANDERSON TADEU LOPES INVESTIGADOR DE POLICIA 2 CONTAGEM - COMARCA; COORD REG DEF ORDEM ECON TRIB CONTAGEM 1.198,00 0,00 0,00 0,00 0,00 0,00 0,00 0,00 0,00 31/05/2021
501 309200 ANDITYAS SOARES DE MOURA COSTA MATOS ANALISTA DO MP BELO HORIZONTE - COMARCA; GABINETE DE PROCURADOR DE JUSTIÇA - SALA 909 1.198,00 0,00 519,00 0,00 0,00 0,00 0,00 0,00 0,00 31/05/2021
502 1080700 ANDRE ARAUJO GABRIEL REIS ESTAGIARIO BARBACENA; BARBACENA-PJ-05PJ
503 519200 ANDRE BORJA LANA ANALISTA DO MP BELO HORIZONTE - COMARCA; DIR CONTEUDO JORNALISTICO 1.198,00 0,00 519,00 0,00 0,00 0,00 0,00 0,00 0,00 31/05/2021
504 486000 ANDRE CARDOSO CAVALCANTI PROMOTOR 2A ENTRANCIA ITAJUBA - COMARCA; ITAJUBA-PJ-02PJ 1.198,00 0,00 3.200,47 0,00 11.735,04 0,00 0,00 0,00 488,96 31/05/2021
505 224900 ANDRE CHIO MAXIMO PROMOT.ENTRANC.ESPECIAL VESPASIANO - COMARCA; VESPASIANO-PJ-02PJ 1.198,00 0,00 2.958,91 0,00 11.229,70 0,00 0,00 0,00 0,00 31/05/2021
506 1253200 ANDRE DE MUYLDER OLIVEIRA ESTAGIARIO BELO HORIZONTE; DIV FISCAL ADM CONT TERCEIRIZACAO 0,00 0,00 0,00 171,00 0,00 0,00 0,00 0,00 0,00 31/05/2021
507 102400 ANDRE DE OLIVEIRA ANDRADE PROMOT.ENTRANC.ESPECIAL BELO HORIZONTE - COMARCA; BH-02PJ FAMILIA-GAB 030PJ 1.198,00 0,00 3.368,91 0,00 16.844,55 0,00 0,00 0,00 514,69 31/05/2021
508 656000 ANDRE DE OLIVEIRA SOUSA INVESTIGADOR DE POLICIA 2 BELO HORIZONTE - COMARCA; GAECO - SETOR POLICIAL CIVIL 1.198,00 0,00 0,00 0,00 0,00 0,00 0,00 0,00 0,00 31/05/2021
509 79200 ANDRE ESTEVAO UBALDINO PEREIRA PROCURADOR DE JUSTICA BELO HORIZONTE - COMARCA; GABINETE DE PROCURADOR DE JUSTIÇA - SALA 502 1.198,00 0,00 3.546,22 0,00 29.551,85 0,00 0,00 0,00 541,78 31/05/2021
510 1103000 ANDRE FELIPE ROSA DA SILVA ESTAGIARIO BARBACENA; BARBACENA-PJ-SECRETARIA 0,00 0,00 0,00 36,00 0,00 0,00 0,00 0,00 0,00 31/05/2021
511 637200 ANDRE FERNANDES DA CUNHA OFICIAL DO MP MORADA NOVA DE MINAS - COMARCA; MORADA NOVA DE MINAS-PJ-UNPJ 1.198,00 0,00 519,00 0,00 0,00 0,00 0,00 0,00 0,00 31/05/2021
512 162800 ANDRE FERNANDO COLUCCO PROMOTOR 2A ENTRANCIA CASSIA - COMARCA; CASSIA-PJ-02PJ 1.198,00 0,00 2.776,57 0,00 16.002,33 0,00 0,00 0,00 488,96 31/05/2021
513 1131900 ANDRE FERREIRA ESTAGIARIO POCOS DE CALDAS; POCOS DE CALDAS-PJ-04PJ 0,00 0,00 0,00 81,00 0,00 0,00 0,00 0,00 0,00 31/05/2021
514 651500 ANDRE GONCALVES MARANHAO OFICIAL DO MP JACINTO - COMARCA; JACINTO-PJ-SECRETARIA 1.198,00 0,00 519,00 0,00 0,00 0,00 0,00 0,00 0,00 31/05/2021
515 1246100 ANDRE HENRIQUE DO CARMO COSTA ESTAGIARIO RIBEIRAO DAS NEVES; RIBEIRAO DAS NEVES-PJ-09PJ 0,00 0,00 0,00 36,00 0,00 0,00 0,00 0,00 0,00 31/05/2021
516 439200 ANDRE LEITE DE ALMEIDA PROMOT.ENTRANC.ESPECIAL VESPASIANO - COMARCA; VESPASIANO-PJ-03PJ 1.198,00 0,00 1.344,90 0,00 5.614,85 0,00 0,00 0,00 514,69 31/05/2021
517 1226000 ANDRE LUCAS IZAC DE SOUZA ESTAGIARIO BELO HORIZONTE; COORD DE INCLUSAO E MOBILIZACAO SOCIAIS
518 166900 ANDRE LUIS ALVES DE MELO PROMOTOR 2A ENTRANCIA ARAGUARI - COMARCA; ARAGUARI-PJ-01PJ 1.198,00 0,00 3.200,47 0,00 0,00 0,00 0,00 0,00 0,00 31/05/2021
519 85000 ANDRE LUIS GARCIA DE PINHO PROMOT.ENTRANC.ESPECIAL DISPONIBILIDADE COMPULSORIA-COMARCA; DISPONIBILIDADE COMPULSORIA - UNIDADE 0,00 0,00 2.945,65 0,00 0,00 0,00 0,00 0,00 0,00 31/05/2021
520 521900 ANDRE LUIS GOMES SILVA ANALISTA DO MP FORMIGA - COMARCA; FORMIGA-PJ-02PJ 1.198,00 769,39 519,00 0,00 0,00 0,00 0,00 0,00 0,00 31/05/2021
521 340800 ANDRE LUIS MACHADO ARANTES PROMOTOR 2A ENTRANCIA PARÁ DE MINAS - COMARCA; PARA DE MINAS-PJ-05PJ 1.198,00 0,00 2.603,04 0,00 5.614,85 0,00 0,00 0,00 2.199,15 31/05/2021
522 1196600 ANDRE LUIS SILVEIRA BEZERRA ESTAGIARIO BELO HORIZONTE; PROC. JUSTICA DIR. DIFUSOS E COLETIVOS
523 304300 ANDRE LUIZ AVELAR ANALISTA DO MP BELO HORIZONTE - COMARCA; DIRETORIA DE REDES E BANCOS DE DADOS 1.198,00 0,00 519,00 0,00 0,00 0,00 0,00 0,00 0,00 31/05/2021
524 666100 ANDRE LUIZ FERREIRA VALADARES PROMOTOR 2A ENTRANCIA VARZEA DA PALMA - COMARCA; VARZEA DA PALMA-PJ-02PJ 1.198,00 0,00 1.462,83 0,00 5.334,11 0,00 0,00 0,00 488,96 31/05/2021
525 530200 ANDRE LUIZ NOLLI MERRIGHI PROMOT.ENTRANC.ESPECIAL SETE LAGOAS - COMARCA; SETE LAGOAS-PJ-03PJ 1.198,00 0,00 2.646,42 0,00 5.614,85 0,00 0,00 0,00 514,69 31/05/2021
526 1270300 ANDRE LUIZ SILVA MILANEZ ESTAGIARIO 0,00 0,00 0,00 144,00 0,00 0,00 0,00 0,00 0,00 31/05/2021
527 397400 ANDRE PATARO MYRRHA DE PAULA E SILVA ANALISTA DO MP BELO HORIZONTE - COMARCA; ASSESSORIA JURIDICO-ADMINISTRATIVA 1.198,00 769,39 519,00 0,00 0,00 0,00 0,00 0,00 0,00 31/05/2021
528 533200 ANDRE PEREIRA MAFIA PROMOTOR 2A ENTRANCIA ALÉM PARAÍBA - COMARCA; ALEM PARAIBA-PJ-01PJ 1.198,00 0,00 759,22 0,00 5.334,11 0,00 0,00 0,00 488,96 31/05/2021
529 441200 ANDRE SALLES DIAS PINTO PROMOTOR 2A ENTRANCIA IGARAPÉ - COMARCA; IGARAPE-PJ-01PJ 1.198,00 0,00 2.480,74 0,00 21.336,44 0,00 0,00 0,00 488,96 31/05/2021
530 237800 ANDRE SILVARES VASCONCELOS PROMOTOR 2A ENTRANCIA PIUMHI - COMARCA; PIUMHI-PJ-02PJ 1.198,00 0,00 2.537,96 0,00 26.670,55 0,00 0,00 0,00 488,96 31/05/2021
531 231800 ANDRE SPERLING PRADO PROMOT.ENTRANC.ESPECIAL BELO HORIZONTE - COMARCA; COORD DE INCLUSAO E MOBILIZACAO SOCIAIS 1.198,00 0,00 2.624,73 0,00 24.705,34 0,00 0,00 0,00 514,69 31/05/2021
532 666300 ANDRE TANURE DOMINGUES FIGUEIREDO PROMOTOR SUBSTITUTO MONTES CLAROS - COMARCA; MONTES CLAROS-PJ-01PJ 1.198,00 0,00 1.641,20 0,00 5.067,40 0,00 0,00 0,00 464,51 31/05/2021
533 650100 ANDRE THOME VARGAS OFICIAL DO MP LEOPOLDINA - COMARCA; LEOPOLDINA-PJ-04PJ 1.198,00 0,00 519,00 0,00 0,00 0,00 0,00 0,00 0,00 31/05/2021
534 231600 ANDRE TUMA DELBIM FERREIRA PROMOT.ENTRANC.ESPECIAL UBERABA - COMARCA; COORD REG PJ DEF EDUC DIR CRIANCA ADOL TRIANG 1.198,00 0,00 1.626,90 0,00 5.614,85 0,00 0,00 0,00 514,69 31/05/2021
535 671500 ANDRE VALDERRAMAS FRANCO PROMOTOR SUBSTITUTO CAPINÓPOLIS - COMARCA; CAPINOPOLIS-PJ-UNPJ 1.198,00 0,00 607,37 0,00 14.188,73 0,00 0,00 0,00 464,51 31/05/2021
536 548500 ANDRE VINICIUS CARVALHO MEIRA ANALISTA DO MP JUIZ DE FORA - COMARCA; JUIZ DE FORA-PJ-24PJ 1.198,00 0,00 519,00 0,00 4.427,11 0,00 0,00 0,00 405,82 31/05/2021
537 297200 ANDRE WILLE ROSARIO ANALISTA DO MP BELO HORIZONTE - COMARCA; ASSESSORIA ESPECIAL DO PGJ 1.198,00 0,00 519,00 0,00 905,52 0,00 0,00 0,00 83,01 31/05/2021
538 224500 ANDREA BASILIO GONCALVES GOLLOP PROMOT.ENTRANC.ESPECIAL BELO HORIZONTE - COMARCA; BH-18PJ VIOLENCIA DOMESTICA-GAB 186PJ 1.198,00 0,00 3.368,91 0,00 0,00 0,00 0,00 0,00 0,00 31/05/2021
539 666400 ANDREA CLEMENTE BARBOSA DE SOUZA PROMOTOR SUBSTITUTO ITAÚNA - COMARCA; ITAUNA-PJ-05PJ 1.198,00 0,00 2.559,35 0,00 0,00 0,00 0,00 0,00 0,00 31/05/2021
540 423600 ANDREA COSTA GUALBERTO ALVES ANALISTA DO MP GOVERNADOR VALADARES - COMARCA; COORD REG PJ DEF EDU DIR CRIANCA ADOL RIODOCE 1.198,00 0,00 519,00 0,00 0,00 0,00 0,00 0,00 0,00 31/05/2021
541 198600 ANDREA CRISTINA ANDRADE COSTA E SOUZA OFICIAL DO MP MONTES CLAROS - COMARCA; MONTES CLAROS-PJ-15PJ 1.198,00 0,00 519,00 0,00 3.420,93 0,00 0,00 0,00 313,59 31/05/2021
542 230600 ANDREA CRISTINA CALDAS SANTIAGO PROMOT.ENTRANC.ESPECIAL CONSELHEIRO LAFAIETE - COMARCA; CONSELHEIRO LAFAIETE-PJ-07PJ 1.198,00 0,00 1.431,67 0,00 16.844,55 0,00 0,00 0,00 514,69 31/05/2021
543 467300 ANDREA DE CASSIA PENNA ALVERNAZ ANALISTA DO MP PONTE NOVA - COMARCA; PONTE NOVA-PJ-01PJ 1.198,00 0,00 519,00 0,00 0,00 0,00 0,00 0,00 0,00 31/05/2021
544 308000 ANDREA DE CASSIA SANTOS OLIVEIRA ANALISTA DO MP BELO HORIZONTE - COMARCA; COORD DE GABINETE DO PGJ 1.198,00 0,00 519,00 0,00 871,04 0,00 0,00 0,00 79,85 31/05/2021
545 106300 ANDREA DE FIGUEIREDO SOARES PROCURADOR DE JUSTICA BELO HORIZONTE - COMARCA; GABINETE DE PROCURADOR DE JUSTIÇA - SALA 709 1.198,00 0,00 3.058,56 0,00 17.731,11 0,00 0,00 0,00 541,78 31/05/2021
546 349500 ANDREA DE OLIVEIRA LOIOLA REGIS OFICIAL DO MP IGUATAMA - COMARCA; IGUATAMA-PJ-UNPJ 1.198,00 0,00 519,00 0,00 0,00 0,00 0,00 0,00 0,00 31/05/2021
547 287900 ANDREA FERNANDES PENA MARTINS OFICIAL DO MP MONTES CLAROS - COMARCA; MONTES CLAROS-PJ-09PJ 1.198,00 0,00 519,00 0,00 0,00 0,00 0,00 0,00 0,00 31/05/2021
548 300800 ANDREA FERREIRA ANALISTA DO MP LAVRAS - COMARCA; LAVRAS-PJ-04PJ 1.198,00 0,00 519,00 0,00 0,00 0,00 0,00 0,00 0,00 31/05/2021
549 395100 ANDREA LANNA MENDES NOVAIS ANALISTA DO MP BELO HORIZONTE - COMARCA; PROMOT ESTADUAL DE DEF PATRI CULT E TUR DE MG 1.198,00 0,00 519,00 0,00 0,00 0,00 0,00 0,00 0,00 31/05/2021
550 67300 ANDREA LEAO MAGALHAES ROQUE ASSESSOR BELO HORIZONTE - COMARCA; COORD ESTADUAL COMBATE CRIMES CIBERNETICOS 1.198,00 0,00 519,00 0,00 0,00 0,00 0,00 0,00 0,00 31/05/2021
551 335700 ANDREA LOPES PEREIRA ANALISTA DO MP GOVERNADOR VALADARES - COMARCA; COORD REG DO MA DA BACIA DO RIO DOCE 1.198,00 0,00 519,00 0,00 871,04 0,00 0,00 0,00 79,85 31/05/2021
552 224700 ANDREA MARIA NESSRALLA BAHURY PROMOT.ENTRANC.ESPECIAL BELO HORIZONTE - COMARCA; BH-12PJ JUIZO CRIMINAL-GAB 089PJ 1.198,00 0,00 2.386,12 0,00 11.229,70 0,00 0,00 0,00 0,00 31/05/2021
553 167000 ANDREA MISMOTTO CARELLI PROMOT.ENTRANC.ESPECIAL BELO HORIZONTE - COMARCA; COORD ESTADUAL DE DEFESA DA EDUCACAO 1.198,00 0,00 997,83 0,00 16.844,55 0,00 0,00 0,00 514,69 31/05/2021
554 389200 ANDREA TUPINI DOS SANTOS TRISTAO DA ROCHA COORDENADOR/OFICIAL BELO HORIZONTE - COMARCA; BH-13ª PJ JUÍZO DE TÓXICOS-SECRETARIA 1.198,00 0,00 519,00 0,00 0,00 0,00 0,00 0,00 0,00 31/05/2021
555 1071200 ANDREI LUCAS BASILIO SANTANA ESTAGIARIO JANUARIA; JANUARIA-PJ-01PJ 0,00 0,00 0,00 171,00 0,00 0,00 0,00 0,00 0,00 31/05/2021
556 419000 ANDREIA BARBOSA DE ALMEIDA ANALISTA DO MP BELO HORIZONTE - COMARCA; GABINETE DE PROCURADOR DE JUSTIÇA - SALA 705 1.198,00 0,00 519,00 0,00 0,00 0,00 0,00 0,00 0,00 31/05/2021
557 281501 ANDREIA CARLA COSTA ANALISTA DO MP UBÁ - COMARCA; UBA-PJ-02PJ 1.198,00 0,00 519,00 0,00 0,00 0,00 0,00 0,00 0,00 31/05/2021
558 477100 ANDREIA DE ALMEIDA RIBEIRO MELO OFICIAL DO MP CONTAGEM - COMARCA; CONTAGEM-PJ-SECRETARIA 1.198,00 0,00 519,00 0,00 0,00 0,00 0,00 0,00 0,00 31/05/2021
559 1170600 ANDREIA DE PAULA CAMPOS NUNES ESTAGIARIO ANDRELANDIA; ANDRELANDIA-PJ-UNPJ 0,00 0,00 0,00 189,00 0,00 0,00 0,00 0,00 0,00 31/05/2021
560 619000 ANDREIA FERREIRA NORONHA COORDENADOR/OFICIAL BELO HORIZONTE - COMARCA; DIRETORIA DE SERVICO CRIMINAL 1.198,00 0,00 519,00 0,00 0,00 0,00 0,00 0,00 0,00 31/05/2021
561 424000 ANDREIA LUCIA COUTO ANALISTA DO MP BELO HORIZONTE - COMARCA; BH-18PJ DIREITOS HUMANOS-SECRETARIA 1.198,00 0,00 519,00 0,00 0,00 0,00 0,00 0,00 0,00 31/05/2021
562 1138400 ANDREIA MARIA FIRMO ESTAGIARIO BELO HORIZONTE; PROC. JUSTICA DIR. DIFUSOS E COLETIVOS 0,00 0,00 0,00 18,00 0,00 0,00 0,00 0,00 0,00 31/05/2021
563 370100 ANDREIA MARIA SILVA PINTO OFICIAL DO MP CORONEL FABRICIANO - COMARCA; CORONEL FABRICIANO-PJ-01PJ 1.198,00 769,39 519,00 0,00 0,00 0,00 0,00 0,00 0,00 31/05/2021
564 382100 ANDREIA NATALI PEREIRA DE OLIVEIRA OFICIAL DO MP PRADOS - COMARCA; PRADOS-PJ-UNPJ 1.198,00 0,00 519,00 0,00 0,00 0,00 0,00 0,00 0,00 31/05/2021
565 198701 ANDREIA NUNES DURAES PROMOTOR 2A ENTRANCIA BOCAIÚVA - COMARCA; BOCAIUVA-PJ-02PJ 1.198,00 0,00 0,00 0,00 16.002,33 0,00 0,00 0,00 488,96 31/05/2021
566 275200 ANDREIA RIBEIRO FREITAS OFICIAL DO MP VIÇOSA - COMARCA; VICOSA-PJ-04PJ 1.198,00 0,00 519,00 0,00 0,00 0,00 0,00 0,00 0,00 31/05/2021
567 1162900 ANDREIA RODRIGUES DE SOUZA ESTAGIARIO
568 352200 ANDREIA XAVIER PEREIRA OFICIAL DO MP CLÁUDIO - COMARCA; CLAUDIO-PJ-UNPJ 1.198,00 0,00 519,00 0,00 0,00 0,00 0,00 0,00 0,00 31/05/2021
569 638500 ANDRESA ALVES FEITOSA CASAGRANDE ANALISTA DO MP LAVRAS - COMARCA; COORD REG DO MA DA BACIA DO RIO GRANDE 1.198,00 0,00 519,00 0,00 0,00 0,00 0,00 0,00 0,00 31/05/2021
570 1072000 ANDRESA MENDES ASSIS ESTAGIARIO BELO HORIZONTE; PROC JUST ESP ACOES COMP ORIG CRIMINAL-ASSESS
571 1221100 ANDRESSA BARBOSA PARANHOS ESTAGIARIO PATOS DE MINAS; COORD REG SAUDE MACRORREGIAO SANIT NOROESTE 0,00 0,00 0,00 126,00 0,00 0,00 0,00 0,00 0,00 31/05/2021
572 210000 ANDRESSA DE OLIVEIRA LANCHOTTI PROMOT.ENTRANC.ESPECIAL BELO HORIZONTE - COMARCA; BH-12PJ JUIZO CRIMINAL-GAB 104PJ 1.198,00 0,00 3.368,91 0,00 16.844,55 0,00 0,00 0,00 514,69 31/05/2021
573 1203800 ANDRESSA DORNELAS BORGES ESTAGIARIO PATOS DE MINAS; PATOS DE MINAS-PJ-SECRETARIA 0,00 0,00 0,00 135,00 0,00 0,00 0,00 0,00 0,00 31/05/2021
574 383700 ANDRESSA EDUARDO SOUZA ANALISTA DO MP OURO BRANCO - COMARCA; OURO BRANCO-PJ-SECRETARIA 1.198,00 769,39 519,00 0,00 0,00 0,00 0,00 0,00 0,00 31/05/2021
575 485500 ANDRESSA ISABELLE FERREIRA BARRETO PROMOTOR 2A ENTRANCIA CONCEICAO DAS ALAGOAS - COMARCA; CONCEICAO DAS ALAGOAS-PJ-02PJ 1.198,00 0,00 2.451,19 0,00 5.334,11 0,00 0,00 0,00 488,96 31/05/2021
576 678400 ANDRESSA LUIZA SILVA LOPES ASSESSOR PROMOTOR JUSTICA CARMO DO PARANAÍBA - COMARCA; CARMO DO PARANAIBA-PJ-02PJ 1.198,00 0,00 519,00 0,00 0,00 0,00 0,00 0,00 0,00 31/05/2021
577 1005700 ANDRESSA MARIA ROCHA BARBOSA ESTAGIARIO SANTA MARIA DO SUACUI; SANTA MARIA DO SUACUI-PJ-UNPJ
578 1273700 ANDRESSA MARTINS GUERRA ESTAGIARIO UBERLANDIA; GAECO REGIONAL DE UBERLANDIA 0,00 0,00 0,00 171,00 0,00 0,00 0,00 0,00 0,00 31/05/2021
579 426200 ANDRESSA MENDES CASAL OFICIAL DO MP BELO HORIZONTE - COMARCA; DIR ESTRUTURA E PROCESSOS ORGANIZACIONAIS 1.198,00 0,00 519,00 0,00 0,00 0,00 0,00 0,00 0,00 31/05/2021
580 390100 ANDRESSA RIBEIRO PUCCI OFICIAL DO MP UBERABA - COMARCA; UBERABA-PJ-14PJ 1.198,00 0,00 519,00 0,00 0,00 0,00 0,00 0,00 0,00 31/05/2021
581 462500 ANDREZA APARECIDA COSTA E SILVA ANALISTA DO MP CONSELHEIRO LAFAIETE - COMARCA; CONSELHEIRO LAFAIETE-PJ-02PJ 1.198,00 0,00 519,00 0,00 0,00 0,00 0,00 0,00 0,00 31/05/2021
582 677700 ANDREZA DE LOURDES FERREIRA DE PAIVA ASSESSOR PROMOTOR JUSTICA ABRE CAMPO - COMARCA; ABRE CAMPO-PJ-01PJ 1.198,00 0,00 519,00 0,00 0,00 0,00 0,00 0,00 0,00 31/05/2021
583 537800 ANDREZZA LUZIA DE OLIVEIRA ALVES ANALISTA DO MP PATOS DE MINAS - COMARCA; COORD REG PJ DEF EDU DIR CRI ADO AL PAR NOROE 1.198,00 0,00 519,00 0,00 0,00 0,00 0,00 0,00 0,00 31/05/2021
584 1074700 ANDRINE HOLLERBACH DOS SANTOS ESTAGIARIO TEOFILO OTONI; TEOFILO OTONI-PJ-06PJ 0,00 0,00 0,00 108,00 0,00 0,00 0,00 0,00 0,00 31/05/2021
585 491600 ANE PATRICIA RIBEIRO ANALISTA DO MP SETE LAGOAS - COMARCA; SETE LAGOAS-PJ-11PJ 1.198,00 0,00 519,00 0,00 0,00 0,00 0,00 0,00 0,00 31/05/2021
586 361900 ANELISA CARDOSO RIBEIRO PROMOTOR 2A ENTRANCIA CAETÉ - COMARCA; CAETE-PJ-02PJ 1.198,00 0,00 1.735,36 0,00 5.334,11 0,00 0,00 0,00 488,96 31/05/2021
587 465800 ANELISE GAMA ASSESSOR BELO HORIZONTE - COMARCA; BH-18PJ VIOLENCIA DOMESTICA-SECRETARIA 1.198,00 0,00 519,00 0,00 0,00 0,00 0,00 0,00 0,00 31/05/2021
588 535200 ANELIZE FERNANDA ALVES VILARINHO OFICIAL DO MP CAPINÓPOLIS - COMARCA; CAPINOPOLIS-PJ-UNPJ 1.198,00 769,39 519,00 0,00 0,00 0,00 0,00 0,00 0,00 31/05/2021
589 197200 ANGELA COELHO SALDANHA OFICIAL DO MP PARÁ DE MINAS - COMARCA; PARA DE MINAS-PJ-03PJ 1.198,00 0,00 519,00 0,00 3.420,93 0,00 0,00 0,00 313,59 31/05/2021
590 307400 ANGELA CRISTINA GONCALVES MUNIZ ANALISTA DO MP UBERLÂNDIA - COMARCA; UBERLANDIA-PJ-SEC FAMILIA 1.198,00 0,00 519,00 0,00 0,00 0,00 0,00 0,00 0,00 31/05/2021
591 157100 ANGELA FABERO PROMOT.ENTRANC.ESPECIAL BELO HORIZONTE - COMARCA; BH-23PJ INFRACIONAL-GAB 145PJ 1.198,00 0,00 3.340,56 0,00 11.229,70 0,00 0,00 0,00 514,69 31/05/2021
592 191800 ANGELA MARIA DE OLIVEIRA OFICIAL DO MP GUARANÉSIA - COMARCA; GUARANESIA-PJ-SECRETARIA 1.198,00 0,00 519,00 0,00 5.192,49 0,00 0,00 0,00 475,98 31/05/2021
593 497400 ANGELA MARIA HENRIQUES ANALISTA DO MP BELO HORIZONTE - COMARCA; COORD REG BACIAS RIO VELHAS E PARAOPEBA 1.198,00 0,00 519,00 0,00 0,00 0,00 0,00 0,00 0,00 31/05/2021
594 54600 ANGELA MARIA PEREIRA GRAVINA PROMOT.ENTRANC.ESPECIAL JUIZ DE FORA - COMARCA; JUIZ DE FORA-PJ-11PJ 1.198,00 0,00 1.301,52 0,00 5.614,85 0,00 0,00 0,00 514,69 31/05/2021
595 260700 ANGELICA CRISTINA AZEVEDO MOREIRA MOUCO OFICIAL DO MP UBÁ - COMARCA; UBA-PJ-05PJ 1.198,00 0,00 519,00 0,00 0,00 0,00 0,00 0,00 0,00 31/05/2021
596 1196700 ANGELICA DE MELO ANDRADE ESTAGIARIO CONTAGEM; CONTAGEM-PJ-11PJ 0,00 0,00 0,00 99,00 0,00 0,00 0,00 0,00 0,00 31/05/2021
597 1252800 ANGELICA DE SOUZA CORTES ESTAGIARIO GOVERNADOR VALADARES; GOVERNADOR VALADARES-PJ-12PJ
598 334600 ANGELICA PANISSA DE FREITAS GALLATI OFICIAL DO MP GUAXUPÉ - COMARCA; GUAXUPE-PJ-02PJ 1.198,00 769,39 519,00 0,00 0,00 0,00 0,00 0,00 0,00 31/05/2021
599 660400 ANGELICA POLLYANA QUEIROZ DE MEDEIROS PROMOTOR 2A ENTRANCIA FRUTAL - COMARCA; FRUTAL-PJ-05PJ 1.198,00 0,00 715,83 0,00 0,00 0,00 0,00 0,00 0,00 31/05/2021
600 521100 ANGELICA SALES MOREIRA OFICIAL DO MP BELO HORIZONTE - COMARCA; BH-02PJ FAMILIA-SECRETARIA 1.198,00 0,00 519,00 0,00 0,00 0,00 0,00 0,00 0,00 31/05/2021
601 466500 ANGELLO MARQUES AGRELLI ANALISTA DO MP MAR DE ESPANHA - COMARCA; MAR DE ESPANHA-PJ-UNPJ 1.198,00 0,00 519,00 0,00 0,00 0,00 0,00 0,00 0,00 31/05/2021
602 222700 ANGELO ALEXANDRE MARZANO PROMOT.ENTRANC.ESPECIAL SANTA LUZIA - COMARCA; SANTA LUZIA-PJ-07PJ 1.198,00 0,00 2.494,58 0,00 16.844,55 0,00 0,00 0,00 514,69 31/05/2021
603 167100 ANGELO ANSANELLI JUNIOR PROMOTOR 2A ENTRANCIA FORMIGA - COMARCA; FORMIGA-PJ-02PJ 1.198,00 0,00 3.049,80 0,00 5.334,11 0,00 0,00 0,00 488,96 31/05/2021
604 363300 ANGELO VERDOLIN HENRIQUES ANALISTA DO MP SETE LAGOAS - COMARCA; SETE LAGOAS-PJ-04PJ 1.198,00 769,39 519,00 0,00 0,00 0,00 0,00 0,00 0,00 31/05/2021
605 267600 ANIBAL TAMAOKI PROMOT.ENTRANC.ESPECIAL BELO HORIZONTE - COMARCA; BH-18PJ VIOLENCIA DOMESTICA-GAB 053PJ 1.198,00 0,00 911,06 0,00 5.614,85 0,00 0,00 0,00 514,69 31/05/2021
606 250900 ANISIO APARECIDO SANTOS OFICIAL DO MP MARIANA - COMARCA; MARIANA-PJ-02PJ 1.198,00 0,00 519,00 0,00 0,00 0,00 0,00 0,00 0,00 31/05/2021
607 651200 ANITA MARIA SANT ANA DE MATTOS FONTES OFICIAL DO MP ERVÁLIA - COMARCA; ERVALIA-PJ-UNPJ 1.198,00 0,00 519,00 0,00 0,00 0,00 0,00 0,00 0,00 31/05/2021
608 1256500 ANNA CAROLINA BARBOSA METZKER ESTAGIARIO POCOS DE CALDAS; POCOS DE CALDAS-PJ-06PJ 0,00 0,00 0,00 72,00 0,00 0,00 0,00 0,00 0,00 31/05/2021
609 1183400 ANNA CAROLINA DE SENNA BARCANTE ESTAGIARIO FORMIGA; FORMIGA-PJ-04PJ 0,00 0,00 0,00 180,00 0,00 0,00 0,00 0,00 0,00 31/05/2021
610 698100 ANNA CAROLINA POLICARIO BERTOLIN ASSESSOR PROCURADOR JUSTICA BELO HORIZONTE - COMARCA; PROC. JUSTICA DIR. DIFUSOS E COLETIVOS-SEC 1.198,00 0,00 519,00 0,00 0,00 0,00 0,00 0,00 0,00 31/05/2021
611 253400 ANNA FLAVIA LEHMAN BATTAGLIA DIRETOR/ANALISTA BELO HORIZONTE - COMARCA; CAO-PATRIMONIO PUBLICO 1.198,00 0,00 519,00 0,00 1.080,69 0,00 0,00 0,00 99,06 31/05/2021
612 1043200 ANNA FRANCIELE DA SILVA ESTAGIARIO BELO HORIZONTE; CAO-FUNDACOES 0,00 0,00 0,00 18,00 0,00 0,00 0,00 0,00 0,00 31/05/2021
613 1153400 ANNA GABRIELA SILVA SOUZA ESTAGIARIO UBERLANDIA; UBERLANDIA-PJ-02PJ 0,00 0,00 0,00 63,00 0,00 0,00 0,00 0,00 0,00 31/05/2021
614 1277800 ANNA LUISA BRAZ RODRIGUES ESTAGIARIO BELO HORIZONTE; BH-02PJ FAMILIA-GAB 027PJ
615 1190300 ANNA LUISA MARTINS NOGUEIRA ESTAGIARIO LAGOA SANTA; LAGOA SANTA - 03ª PJ 0,00 0,00 0,00 72,00 0,00 0,00 0,00 0,00 0,00 31/05/2021
616 688800 ANNA LUIZA MATTOS DUARTE ASSESSOR PROCURADOR JUSTICA BELO HORIZONTE - COMARCA; GABINETE DE PROCURADOR DE JUSTIÇA - SALA 305 1.198,00 0,00 519,00 0,00 0,00 0,00 0,00 0,00 0,00 31/05/2021
617 1269400 ANNA LUIZA VIRTUOSO ESTAGIARIO IPATINGA; GAECO REGIONAL DE IPATINGA 0,00 0,00 0,00 171,00 0,00 0,00 0,00 0,00 0,00 31/05/2021
618 1247700 ANNA RAFAELA LESSA DA SILVA ESTAGIARIO ITUIUTABA; ITUIUTABA-PJ-04PJ 0,00 0,00 0,00 162,00 0,00 0,00 0,00 0,00 0,00 31/05/2021
619 1230900 ANNE CAROLINE DASSUMPCAO FONSECA ESTAGIARIO DIVINOPOLIS; DIVINOPOLIS-PJ-03PJ 0,00 0,00 0,00 108,00 0,00 0,00 0,00 0,00 0,00 31/05/2021
620 1017900 ANNE VIEIRA TEODORAK PEGO ESTAGIARIO BELO HORIZONTE; BH-23PJ INFRACIONAL-GAB 142PJ 0,00 0,00 0,00 9,00 0,00 0,00 0,00 0,00 0,00 31/05/2021
621 447600 ANNGELUCE ALCANTARA DE CAMPOS OFICIAL DO MP DIVINÓPOLIS - COMARCA; DIVINOPOLIS-PJ-SECRETARIA 1.198,00 0,00 519,00 0,00 0,00 0,00 0,00 0,00 0,00 31/05/2021
622 119600 ANSELMO BORGES PARREIRAS OFICIAL DO MP BONFIM - COMARCA; BONFIM-PJ-UNPJ 1.198,00 0,00 519,00 0,00 0,00 0,00 0,00 0,00 0,00 31/05/2021
623 630300 ANTONIA GOMES RAMALHO OFICIAL DO MP NOVO CRUZEIRO - COMARCA; NOVO CRUZEIRO-PJ-UNPJ 1.198,00 1.538,78 519,00 0,00 0,00 0,00 0,00 0,00 0,00 31/05/2021
624 332400 ANTONIA MARIA MAMEDE OFICIAL DO MP UBERLÂNDIA - COMARCA; COORD REG PP TRIANGULO MINEIRO UBERLANDIA 1.198,00 0,00 519,00 0,00 0,00 0,00 0,00 0,00 0,00 31/05/2021
625 73100 ANTONIO AURELIO SANTOS PROCURADOR DE JUSTICA BELO HORIZONTE - COMARCA; CAO-CONFLITOS AGRARIOS 1.198,00 0,00 2.603,04 0,00 17.731,11 0,00 0,00 0,00 541,78 31/05/2021
626 157300 ANTONIO BORGES DA SILVA PROMOTOR 2A ENTRANCIA SÃO LOURENÇO - COMARCA; SAO LOURENCO-PJ-02PJ 1.198,00 0,00 3.123,64 0,00 26.670,55 0,00 0,00 0,00 488,96 31/05/2021
627 401600 ANTONIO CARLOS GUEDES AROUCA ANALISTA DO MP BELO HORIZONTE - COMARCA; CAO-PESSOAS IDOSAS E PESSOAS COM DEFICIENCIA 1.198,00 0,00 519,00 0,00 0,00 0,00 0,00 0,00 0,00 31/05/2021
628 76600 ANTONIO DE PADOVA MARCHI JUNIOR PROCURADOR DE JUSTICA BELO HORIZONTE - COMARCA; GABINETE DE PROCURADOR DE JUSTIÇA - SALA 1006 1.198,00 0,00 2.624,73 0,00 17.731,11 0,00 0,00 0,00 541,78 31/05/2021
629 101900 ANTONIO DIAS MAIA PROCURADOR DE JUSTICA BELO HORIZONTE - COMARCA; GABINETE DE PROCURADOR DE JUSTIÇA - SALA 808 1.198,00 0,00 2.603,04 0,00 17.731,11 0,00 0,00 0,00 541,78 31/05/2021
630 84600 ANTONIO DIOGO DA ROCHA PROMOTOR 1A ENTRANCIA BOTELHOS - COMARCA; BOTELHOS-PJ-UNPJ 1.198,00 0,00 2.603,04 0,00 15.202,21 0,00 0,00 0,00 464,51 31/05/2021
631 333900 ANTONIO GONCALVES DE SOUZA FILHO OFICIAL DO MP BELO HORIZONTE - COMARCA; DIRETORIA DE CONTABILIDADE 1.198,00 0,00 519,00 0,00 0,00 0,00 0,00 0,00 0,00 31/05/2021
632 340600 ANTONIO HENRIQUE FRANCO LOPES PROMOT.ENTRANC.ESPECIAL BELO HORIZONTE - COMARCA; ASSESSORIA ESPECIAL-GABINETE DOS ASSESSORES 1.198,00 0,00 1.735,36 0,00 5.614,85 0,00 0,00 0,00 514,69 31/05/2021
633 67600 ANTONIO JOAQUIM SCHELLENBERGER FERNANDES PROCURADOR DE JUSTICA BELO HORIZONTE - COMARCA; PROC JUSTICA DIR DIFUSOS E COLETIVOS-GAB004 1.198,00 0,00 3.546,22 0,00 5.910,37 0,00 0,00 0,00 541,78 31/05/2021
634 77300 ANTONIO JOSE CHINELATO PROCURADOR DE JUSTICA BELO HORIZONTE - COMARCA; GABINETE DE PROCURADOR DE JUSTIÇA - SALA 1008 1.198,00 0,00 0,00 0,00 17.731,11 0,00 0,00 0,00 541,78 31/05/2021
635 211800 ANTONIO JOSE DE OLIVEIRA PROMOTOR 2A ENTRANCIA PASSOS - COMARCA; PASSOS-PJ-06PJ 1.198,00 0,00 3.058,56 0,00 26.670,55 0,00 0,00 0,00 488,96 31/05/2021
636 1272200 ANTONIO MANOEL SANTOS DA SILVA ESTAGIARIO BELO HORIZONTE; PROC. JUSTICA CRIMINAL 0,00 0,00 0,00 189,00 0,00 0,00 0,00 0,00 0,00 31/05/2021
637 176100 ANTONIO MARCELO CAMPOS CAMPANELLA OFICIAL DO MP BELO HORIZONTE - COMARCA; COORD DE GABINETE DO PGJ 1.198,00 0,00 519,00 0,00 5.497,93 0,00 0,00 0,00 503,98 31/05/2021
638 321001 ANTONIO OLINTO VIEIRA MACHADO ANALISTA DO MP BELO HORIZONTE - COMARCA; CENTRAL DE APOIO TECN-SETOR DE MEIO AMBIENTE 1.198,00 0,00 519,00 0,00 0,00 0,00 0,00 0,00 0,00 31/05/2021
639 356200 ANTONIO PAULA DA SILVA OFICIAL DO MP JUIZ DE FORA - COMARCA; JUIZ DE FORA-PJ-20PJ 1.198,00 0,00 519,00 0,00 0,00 0,00 0,00 0,00 0,00 31/05/2021
640 63400 ANTONIO PEDRO DA SILVA MELO PROMOT.ENTRANC.ESPECIAL SÃO JOÃO DEL REI - COMARCA; SAO JOAO DEL REI-PJ-01PJ 1.198,00 0,00 2.603,04 0,00 16.844,55 0,00 0,00 0,00 514,69 31/05/2021
641 119900 ANTONIO RODRIGUES DE PINHO OFICIAL DO MP GUANHÃES - COMARCA; GUANHAES-PJ-01PJ 1.198,00 769,39 519,00 0,00 5.028,82 0,00 0,00 0,00 460,98 31/05/2021
642 373300 ANTONIO SERGIO ANANIAS OFICIAL DO MP AIURUOCA - COMARCA; AIURUOCA-PJ-UNPJ 1.198,00 0,00 519,00 0,00 0,00 0,00 0,00 0,00 0,00 31/05/2021
643 93500 ANTONIO SERGIO ROCHA DE PAULA PROCURADOR DE JUSTICA BELO HORIZONTE - COMARCA; PROC JUSTICA DIR DIFUSOS E COLETIVOS-GAB003 1.198,00 0,00 3.471,44 0,00 0,00 0,00 0,00 0,00 0,00 31/05/2021
644 68700 ANTONIO SERGIO TONET PROCURADOR DE JUSTICA BELO HORIZONTE - COMARCA; GABINETE DE PROCURADOR DE JUSTIÇA - SALA 913 1.198,00 0,00 1.713,66 0,00 29.551,85 0,00 0,00 0,00 541,78 31/05/2021
645 608100 ANTONIO SIDINEY VIEIRA LEMOS ANALISTA DO MP PIRAPORA - COMARCA; PIRAPORA-PJ-01PJ 1.198,00 0,00 519,00 0,00 0,00 0,00 0,00 0,00 0,00 31/05/2021
646 374700 ANTONIO SILVA NETO OFICIAL DO MP BELO HORIZONTE - COMARCA; GAECO - SECRETARIA 1.198,00 0,00 519,00 0,00 0,00 0,00 0,00 0,00 0,00 31/05/2021
647 636700 ANTONIUS VITORIANO FERNANDES OFICIAL DO MP BELO HORIZONTE - COMARCA; ASSESSORIA JURIDICA DO PROCON-MG 1.198,00 0,00 519,00 0,00 0,00 0,00 0,00 0,00 0,00 31/05/2021
648 1188100 ANY KARLA DE SOUZA GOMES SANTOS ESTAGIARIO MEDINA; MEDINA-PJ-UNPJ 0,00 0,00 0,00 162,00 0,00 0,00 0,00 0,00 0,00 31/05/2021
649 413200 ANY PEREIRA SILVA ANALISTA DO MP TRÊS PONTAS - COMARCA; TRES PONTAS-PJ-01PJ 1.198,00 0,00 519,00 0,00 0,00 0,00 0,00 0,00 0,00 31/05/2021
650 151401 APARECIDA DE FATIMA MENDES DE ALMEIDA ASSESSOR JUIZ DE FORA - COMARCA; JUIZ DE FORA-PJ-SECRETARIA 1.198,00 0,00 519,00 0,00 0,00 0,00 0,00 0,00 0,00 31/05/2021
651 329300 APARECIDA MARIA MELO DE ASSIS OFICIAL DO MP BELO HORIZONTE - COMARCA; BH-18PJ DIREITOS HUMANOS-SECRETARIA 1.198,00 0,00 519,00 0,00 0,00 0,00 0,00 0,00 0,00 31/05/2021
652 475300 APARECIDA MARLENE FREIRE ROSA ANALISTA DO MP BELO HORIZONTE - COMARCA; BH-02PJ FAMILIA-SECRETARIA 1.198,00 0,00 519,00 0,00 0,00 0,00 0,00 0,00 0,00 31/05/2021
653 653000 APARECIDA ROSA DE LIMA ASSESSOR BELO HORIZONTE - COMARCA; SECRETARIA PROCESSOS DISCIPES ADMINISTRATIVOS 1.198,00 0,00 519,00 0,00 0,00 0,00 0,00 0,00 0,00 31/05/2021
654 354500 APARECIDA VIEIRA DE CARVALHO OFICIAL DO MP BELO HORIZONTE - COMARCA; DIVISÃO DE EDUCAÇÃO PARA O CONSUMO 1.198,00 0,00 519,00 0,00 0,00 0,00 0,00 0,00 0,00 31/05/2021
655 551000 ARACELES BICALHO FELIX ANALISTA DO MP MANHUAÇU - COMARCA; MANHUACU-PJ-02PJ 1.198,00 0,00 519,00 0,00 0,00 0,00 0,00 0,00 0,00 31/05/2021
656 286200 ARACELI MEDRADO DOS SANTOS LIMA OFICIAL DO MP PARACATU - COMARCA; PARACATU-PJ-03PJ 1.198,00 0,00 519,00 0,00 0,00 0,00 0,00 0,00 0,00 31/05/2021
657 112200 ARAQUEM AUGUSTO DE MATOS AGENTE DO MP BELO HORIZONTE - COMARCA; BH-23PJ CIVEL-SEC EXP CIVEIS 1.198,00 0,00 519,00 0,00 4.464,65 0,00 0,00 0,00 409,26 31/05/2021
658 280600 ARDUINO FRATTEZI ANALISTA DO MP BELO HORIZONTE - COMARCA; CENTRAL DE APOIO TECNICO-SETOR CONTABIL 1.198,00 0,00 519,00 0,00 905,52 0,00 0,00 0,00 83,01 31/05/2021
659 67700 ARESLAN EUSTAQUIO MARTINS PROMOTOR 1A ENTRANCIA CARMO DA MATA - COMARCA; CARMO DA MATA-PJ-UNPJ 1.198,00 0,00 3.015,18 0,00 10.134,81 0,00 0,00 0,00 0,00 31/05/2021
660 1278200 ARIADNA AMANDA DE OLIVEIRA ESTAGIARIO LAVRAS; LAVRAS-PJ-05PJ 0,00 0,00 0,00 126,00 0,00 0,00 0,00 0,00 0,00 31/05/2021
661 1090300 ARIADNE ALENCAR SOUZA ESTAGIARIO GOVERNADOR VALADARES; GOVERNADOR VALADARES-PJ-15PJ 0,00 0,00 0,00 63,00 0,00 0,00 0,00 0,00 0,00 31/05/2021
662 1178300 ARIANA DA SILVA MIRANDA ESTAGIARIO DIVINOPOLIS; DIVINOPOLIS-PJ-12PJ 0,00 0,00 0,00 54,00 0,00 0,00 0,00 0,00 0,00 31/05/2021
663 520201 ARIANE DE FATIMA CARVALHO ALMEIDA RODRIGUES ANALISTA DO MP VESPASIANO - COMARCA; VESPASIANO-PJ-04PJ 1.198,00 769,39 519,00 0,00 0,00 0,00 0,00 0,00 0,00 31/05/2021
664 1261600 ARIANE SOUZA MAGALHAES ESTAGIARIO IPATINGA; IPATINGA-PJ-11PJ 0,00 0,00 0,00 171,00 0,00 0,00 0,00 0,00 0,00 31/05/2021
665 1079800 ARICIA FERNANDES DRUMOND SOARES ESTAGIARIO BETIM; BETIM-PJ-04PJ 0,00 0,00 0,00 90,00 0,00 0,00 0,00 0,00 0,00 31/05/2021
666 1116700 ARIEL DE OLIVEIRA SANTOS ESTAGIARIO DIVINOPOLIS; DIVINOPOLIS-PJ-09PJ 0,00 0,00 0,00 117,00 0,00 0,00 0,00 0,00 0,00 31/05/2021
667 537600 ARIELA FREIRE MONTIJO ANALISTA DO MP ARCOS - COMARCA; ARCOS-PJ-01PJ 1.198,00 769,39 519,00 0,00 0,00 0,00 0,00 0,00 0,00 31/05/2021
668 1219500 ARIELI MALTA DE OLIVEIRA ESTAGIARIO CATAGUASES; CATAGUASES-PJ-05PJ 0,00 0,00 0,00 54,00 0,00 0,00 0,00 0,00 0,00 31/05/2021
669 182000 ARILSON ALEXANDRE MARTINS MAGALHAES OFICIAL DO MP JOÃO MONLEVADE - COMARCA; JOAO MONLEVADE-PJ-01PJ 1.198,00 1.538,78 519,00 0,00 887,44 0,00 0,00 0,00 81,35 31/05/2021
670 511000 ARISLANE CAROLINA DA SILVA ANALISTA DO MP CAMPINA VERDE - COMARCA; CAMPINA VERDE-PJ-UNPJ 1.198,00 1.538,78 519,00 0,00 0,00 0,00 0,00 0,00 0,00 31/05/2021
671 212000 ARLEN DE OLIVEIRA FERNANDES PROMOT.ENTRANC.ESPECIAL BELO HORIZONTE - COMARCA; BH-12PJ JUIZO CRIMINAL-GAB 098PJ 1.198,00 0,00 2.429,50 0,00 5.614,85 0,00 0,00 0,00 514,69 31/05/2021
672 170000 ARLEY BRITES DA SILVA ASSESSOR BELO HORIZONTE - COMARCA; BH-14PJ DEFESA CONSUMIDOR-SECRETARIA 1.198,00 0,00 519,00 0,00 0,00 0,00 0,00 0,00 0,00 31/05/2021
673 120400 ARLINDO CASSIO DA CRUZ OFICIAL DO MP SÃO GONÇALO DO SAPUCAÍ - COMARCA; SAO GONCALO DO SAPUCAI-PJ-01PJ 1.198,00 0,00 519,00 0,00 0,00 0,00 0,00 0,00 0,00 31/05/2021
674 243700 ARLINDO MARCIO LACERDA OFICIAL DO MP CONTAGEM - COMARCA; CONTAGEM-PJ-SECRETARIA 1.198,00 0,00 519,00 0,00 0,00 0,00 1.445,27 0,00 0,00 31/05/2021
675 111900 ARNALDO ALVES SOARES PROCURADOR DE JUSTICA BELO HORIZONTE - COMARCA; GABINETE DE PROCURADOR DE JUSTIÇA - SALA 306 1.198,00 0,00 2.537,96 0,00 17.731,11 0,00 0,00 0,00 541,78 31/05/2021
676 392100 ARNALDO DE ANDRADE OFICIAL DO MP DIVINÓPOLIS - COMARCA; DIVINOPOLIS-PJ-02PJ 1.198,00 769,39 519,00 0,00 483,02 0,00 1.445,27 0,00 44,28 31/05/2021
677 75900 ARNALDO GOMES RIBEIRO PROCURADOR DE JUSTICA BELO HORIZONTE - COMARCA; GABINETE DE PROCURADOR DE JUSTIÇA - SALA 602 1.198,00 0,00 0,00 0,00 17.731,11 0,00 0,00 0,00 541,78 31/05/2021
678 642400 ARTANE INARDE DE SIQUEIRA DAMASCENO ANALISTA DO MP BELO HORIZONTE - COMARCA; PROC JUST ATUACAO TRIBUNAIS SUPERIORES-GAB005 1.198,00 0,00 519,00 0,00 0,00 0,00 0,00 0,00 0,00 31/05/2021
679 1145900 ARTEMIS RIBEIRO DE NORONHA ESTAGIARIO SAO LOURENCO; SAO LOURENCO-PJ-02PJ 0,00 0,00 0,00 81,00 0,00 0,00 0,00 0,00 0,00 31/05/2021
680 1006500 ARTHUR BRANDAO ALBUQUERQUE ESTAGIARIO BELO HORIZONTE; DIV FISCAL ADM CONT TERCEIRIZACAO 0,00 0,00 0,00 9,00 0,00 0,00 0,00 0,00 0,00 31/05/2021
681 1261800 ARTHUR DE LIMA SOSSAI ESTAGIARIO LAVRAS; COORD REG DO MA DA BACIA DO RIO GRANDE 0,00 0,00 0,00 63,00 0,00 0,00 0,00 0,00 0,00 31/05/2021
682 1070400 ARTHUR ESPINDULA VILAS ESTAGIARIO RESPLENDOR; RESPLENDOR-PJ-UNPJ 0,00 0,00 0,00 99,00 0,00 0,00 0,00 0,00 0,00 31/05/2021
683 1146000 ARTHUR FELIX VELAME ESTAGIARIO GOVERNADOR VALADARES; GOVERNADOR VALADARES-PJ-16PJ 0,00 0,00 0,00 126,00 0,00 0,00 0,00 0,00 0,00 31/05/2021
684 1276200 ARTHUR GONCALVES SERAFIM ESTAGIARIO PEDRO LEOPOLDO; PEDRO LEOPOLDO-PJ-03PJ 0,00 0,00 0,00 162,00 0,00 0,00 0,00 0,00 0,00 31/05/2021
685 1226900 ARTHUR JANUZZI CAPUTO GONCALVES ESTAGIARIO VICOSA; VICOSA-PJ-01PJ 0,00 0,00 0,00 45,00 0,00 0,00 0,00 0,00 0,00 31/05/2021
686 1085200 ARTHUR JOSE RODRIGUES CARVALHO ESTAGIARIO BELO HORIZONTE; DSMT-LABORATORIO DE MANUTENCAO 0,00 0,00 0,00 99,00 0,00 0,00 0,00 0,00 0,00 31/05/2021
687 1125200 ARTHUR JOSE VIEIRA GOMES SALES ESTAGIARIO BELO HORIZONTE; GABINETE DE PROCURADOR DE JUSTIÇA - SALA 713 0,00 0,00 0,00 9,00 0,00 0,00 0,00 0,00 0,00 31/05/2021
688 1119700 ARTHUR POZAM GARRIDO ESTAGIARIO 0,00 0,00 0,00 135,00 0,00 0,00 0,00 0,00 0,00 31/05/2021
689 1168200 ARTHUR RICART DA COSTA NETO ESTAGIARIO SAO JOAO DEL REI; SAO JOAO DEL REI-PJ-05PJ
690 1181100 ARTUR FONTE BOA TEOFILO ESTAGIARIO BELO HORIZONTE; DIRET DE ESTAGIOS E CONVENIOS ACADEMICOS 0,00 0,00 0,00 180,00 0,00 0,00 0,00 0,00 0,00 31/05/2021
691 221400 ARTUR FORSTER GIOVANNINI PROMOTOR 2A ENTRANCIA TRÊS PONTAS - COMARCA; TRES PONTAS-PJ-01PJ 1.198,00 0,00 3.065,96 0,00 5.334,11 0,00 0,00 0,00 488,96 31/05/2021
692 1096900 ARTUR FRANCISCO DURAES BATISTA ESTAGIARIO 0,00 0,00 0,00 0,00 754,17 0,00 0,00 0,00 0,00 31/05/2021
693 1205000 ARTUR ROCHA RIBEIRO ESTAGIARIO BELO HORIZONTE; BH-13PJ JUIZO DE TOXICOS-GAB 164PJ 0,00 0,00 0,00 180,00 0,00 0,00 0,00 0,00 0,00 31/05/2021
694 1167800 ARTUR TAVARES PEREIRA SOARES ESTAGIARIO BELO HORIZONTE; BH-09PJ AUDITORIA MILITAR-GAB 161PJ
695 313500 ARY PEDROSA BITTENCOURT PROMOT.ENTRANC.ESPECIAL SANTA LUZIA - COMARCA; SANTA LUZIA-PJ-05PJ 1.198,00 0,00 1.626,90 0,00 16.844,55 0,00 0,00 0,00 514,69 31/05/2021
696 1252100 ARYELLE GONCALVES RODRIGUES SILVA ESTAGIARIO CLAUDIO; CLAUDIO-PJ-UNPJ 0,00 0,00 0,00 189,00 0,00 0,00 0,00 0,00 0,00 31/05/2021
697 1067900 ATENAS CRISTINI DE LACERDA E RODRIGUES ESTAGIARIO VICOSA; VICOSA-PJ-02PJ 0,00 0,00 0,00 45,00 0,00 0,00 0,00 0,00 0,00 31/05/2021
698 315700 ATHAIDE FRANCISCO PERES OLIVEIRA PROMOTOR 2A ENTRANCIA UNAÍ - COMARCA; UNAI-PJ-01PJ 1.198,00 0,00 2.928,42 0,00 5.334,11 0,00 0,00 0,00 488,96 31/05/2021
699 1181000 AUGUSTO CARMACIO ESTAGIARIO VARGINHA; COORD REG PJ DEF EDUC DIR CRIANCA ADOL SUL 0,00 0,00 0,00 189,00 0,00 0,00 0,00 0,00 0,00 31/05/2021
700 702900 AUGUSTO PENA FIGUEIREDO 1O.TENENTE BELO HORIZONTE - COMARCA; NUCLEO DE OPERACOES DE SEGURANCA DE PESSOAL 2.596,00 0,00 0,00 0,00 0,00 0,00 0,00 0,00 5.665,64 31/05/2021
701 666600 AUGUSTO REIS BALLARDIM PROMOTOR 1A ENTRANCIA ITAMARANDIBA - COMARCA; ITAMARANDIBA-PJ-UNPJ 1.198,00 0,00 1.431,66 0,00 5.067,40 0,00 0,00 0,00 464,51 31/05/2021
702 302100 AUGUSTO ROUSSEAU DE CASTRO ANALISTA DO MP CATAGUASES - COMARCA; CATAGUASES-PJ-02PJ 1.198,00 0,00 519,00 0,00 0,00 0,00 0,00 0,00 0,00 31/05/2021
703 540200 AUREA AVELAR BITTENCOURT OFICIAL DO MP BELO HORIZONTE - COMARCA; GRUPO ESP PROM JUST DEF PROB ADM PAT PUB 1.198,00 0,00 519,00 0,00 0,00 0,00 0,00 0,00 0,00 31/05/2021
704 633501 AUREA GONTIJO BIRCHAL ASSESSOR BELO HORIZONTE - COMARCA; PROCURADOR-GERAL DE JUSTIÇA 1.198,00 0,00 519,00 0,00 0,00 0,00 0,00 0,00 0,00 31/05/2021
705 1286700 AUREA MARIA MILWARD PORTUGAL FLAMINI ESTAGIARIO INHAPIM; INHAPIM-PJ-02PJ 0,00 0,00 0,00 36,00 0,00 0,00 0,00 0,00 0,00 31/05/2021
706 183200 AURELIANO MAGELA DE REZENDE COORDENADOR/OFICIAL BELO HORIZONTE - COMARCA; COORD DE GABINETE DO PGJ 1.198,00 0,00 519,00 0,00 975,44 0,00 0,00 0,00 89,42 31/05/2021
707 106500 AVAIDE MARCOS MARIANO PROMOT.ENTRANC.ESPECIAL UBERLÂNDIA - COMARCA; UBERLANDIA-PJ-13PJ 1.198,00 0,00 1.301,52 0,00 16.844,55 0,00 0,00 0,00 514,69 31/05/2021
708 629400 AYESKA DA COSTA VAL MOURA DABIEN OFICIAL DO MP BELO HORIZONTE - COMARCA; BH-09PJ AUDITORIA MILITAR-SECRETARIA 1.198,00 0,00 519,00 0,00 0,00 0,00 0,00 0,00 0,00 31/05/2021
709 151800 AYLOR LUIZ MEIRELLES JUNIOR PROMOTOR 2A ENTRANCIA SÃO DOMINGOS DO PRATA - COMARCA; SAO DOMINGOS DO PRATA-PJ-UNPJ 1.198,00 0,00 2.386,12 0,00 16.002,33 0,00 0,00 0,00 488,96 31/05/2021
710 1122200 AYMEE JOHANSSENN TYNEE CORREIA ALVES ESTAGIARIO NOVA LIMA; NOVA LIMA-PJ-01PJ 0,00 0,00 0,00 72,00 0,00 0,00 0,00 0,00 0,00 31/05/2021
711 1152400 AYUME PINTO OLIVEIRA ESTAGIARIO AGUAS FORMOSAS; AGUAS FORMOSAS-PJ-UNPJ 0,00 0,00 0,00 9,00 0,00 0,00 0,00 0,00 0,00 31/05/2021
712 1231000 BARBARA ALEXANDRA DA SILVA ESTAGIARIO LIMA DUARTE; LIMA DUARTE-PJ-UNPJ 0,00 0,00 0,00 126,00 0,00 0,00 0,00 0,00 0,00 31/05/2021
713 1261300 BARBARA APARECIDA RODRIGUES DE CASTRO ESTAGIARIO MARTINHO CAMPOS; MARTINHO CAMPOS-PJ-UNPJ 0,00 0,00 0,00 189,00 0,00 0,00 0,00 0,00 0,00 31/05/2021
714 1204100 BARBARA BRITO DE SOUZA ESTAGIARIO NANUQUE; NANUQUE-PJ-02PJ
715 1036600 BARBARA CANELLA CORREA ESTAGIARIO VARGINHA; VARGINHA-PJ-06PJ 0,00 0,00 0,00 153,00 0,00 0,00 0,00 0,00 0,00 31/05/2021
716 1276600 BARBARA CAROLINE SOARES LEONARDO ESTAGIARIO IPATINGA; IPATINGA-PJ-09PJ 0,00 0,00 0,00 135,00 0,00 0,00 0,00 0,00 0,00 31/05/2021
717 701600 BARBARA CHAVES OLIVEIRA ASSESSOR PROCURADOR JUSTICA BELO HORIZONTE - COMARCA; PROC. JUSTICA DIR. DIFUSOS E COLETIVOS-SEC 1.198,00 0,00 519,00 0,00 0,00 0,00 0,00 0,00 0,00 31/05/2021
718 1087100 BARBARA CLAUDINO GUIMARAES DIAS ESTAGIARIO BELO HORIZONTE; BH-09PJ AUDITORIA MILITAR-GAB 002PJ
719 1150900 BARBARA COSTA ALVES ESTAGIARIO MONTES CLAROS; MONTES CLAROS-PJ-SECRETARIA 0,00 0,00 0,00 72,00 0,00 0,00 0,00 0,00 0,00 31/05/2021
720 691900 BARBARA COUTINHO REIS ASSESSOR PROCURADOR JUSTICA BELO HORIZONTE - COMARCA; GABINETE DE PROCURADOR DE JUSTIÇA - SALA 912 1.198,00 0,00 519,00 0,00 0,00 0,00 0,00 0,00 0,00 31/05/2021
721 692200 BARBARA CRISTINA MENDES BANDEIRA DE MELO DUTRA ASSESSOR PROCURADOR JUSTICA BELO HORIZONTE - COMARCA; GABINETE DE PROCURADOR DE JUSTIÇA - SALA 1009 1.198,00 0,00 519,00 0,00 0,00 0,00 0,00 0,00 0,00 31/05/2021
722 1163600 BARBARA CRISTINA SOUZA E SOUSA ESTAGIARIO BELO HORIZONTE; BH-23PJ INFRACIONAL 0,00 0,00 0,00 63,00 0,00 0,00 0,00 0,00 0,00 31/05/2021
723 1134200 BARBARA DANIELA ELIAS JAQUES ESTAGIARIO PRADOS; PRADOS-PJ-UNPJ 0,00 0,00 0,00 135,00 0,00 0,00 0,00 0,00 0,00 31/05/2021
724 1118700 BARBARA DE MELO CARNEIRO ESTAGIARIO 0,00 0,00 0,00 99,00 0,00 0,00 0,00 0,00 0,00 31/05/2021
725 1168500 BARBARA DE OLIVEIRA ALVES ESTAGIARIO MANTENA; MANTENA-PJ-03PJ 0,00 0,00 0,00 153,00 0,00 0,00 0,00 0,00 0,00 31/05/2021
726 1168400 BARBARA DE SOUSA LIMA MELO ESTAGIARIO BELO HORIZONTE; PROMOT ESTADUAL DE DEF PATRI CULT E TUR DE MG 0,00 0,00 0,00 27,00 0,00 0,00 0,00 0,00 0,00 31/05/2021
727 1221200 BARBARA ELIZA TEIXEIRA BARCELOS ESTAGIARIO RAUL SOARES; RAUL SOARES-PJ-UNPJ 0,00 0,00 0,00 63,00 0,00 0,00 0,00 0,00 0,00 31/05/2021
728 1166500 BARBARA FERNANDES AMARAL ESTAGIARIO GOVERNADOR VALADARES; GOVERNADOR VALADARES-PJ-04PJ 0,00 0,00 0,00 81,00 0,00 0,00 0,00 0,00 0,00 31/05/2021
729 314700 BARBARA FRANCINE PRETTE NUNES PROMOTOR 1A ENTRANCIA PERDIZES - COMARCA; PERDIZES-PJ-UNPJ 1.198,00 0,00 2.255,96 0,00 5.067,40 0,00 0,00 0,00 464,51 31/05/2021
730 1240000 BARBARA FROTA RODRIGUES ESTAGIARIO BELO HORIZONTE; BH-18PJ VIOLENCIA DOMESTICA-GAB 178PJ 0,00 0,00 0,00 99,00 0,00 0,00 0,00 0,00 0,00 31/05/2021
731 1259900 BARBARA GABRIELE DE PAULA ALBERGARIA ESTAGIARIO PONTE NOVA; PONTE NOVA-PJ-01PJ 0,00 0,00 0,00 90,00 0,00 0,00 0,00 0,00 0,00 31/05/2021
732 1219600 BARBARA HELENA FROIS GUIMARAES GIL ESTAGIARIO LAGOA SANTA; LAGOA SANTA-PJ-02PJ 0,00 0,00 0,00 72,00 0,00 0,00 0,00 0,00 0,00 31/05/2021
733 652800 BARBARA JULIANNE MOREIRA CASTRO ASSESSOR PROCURADOR JUSTICA BELO HORIZONTE - COMARCA; ASSESS TECNICO-JUR JUNTO AS PROC. DE JUST 1.198,00 0,00 519,00 0,00 680,87 0,00 0,00 0,00 0,00 31/05/2021
734 1140000 BARBARA MAIA DE MEDEIROS ESTAGIARIO JUIZ DE FORA; JUIZ DE FORA-PJ-03PJ 0,00 0,00 0,00 108,00 0,00 0,00 0,00 0,00 0,00 31/05/2021
735 1078500 BARBARA MARIA COSTA PEREIRA ESTAGIARIO MONTES CLAROS; MONTES CLAROS-PJ-12PJ 0,00 0,00 0,00 54,00 0,00 0,00 0,00 0,00 0,00 31/05/2021
736 1074400 BARBARA MARKIAZI LIMA GALVAO ESTAGIARIO DIVINOPOLIS; DIVINOPOLIS-PJ-13PJ 0,00 0,00 0,00 144,00 0,00 0,00 0,00 0,00 0,00 31/05/2021
737 666500 BARBARA MARTINS DE SOUZA PROMOTOR 2A ENTRANCIA MANTENA - COMARCA; MANTENA-PJ-02PJ 1.198,00 0,00 1.619,83 0,00 5.334,11 0,00 0,00 0,00 488,96 31/05/2021
738 1168100 BARBARA MIRANDA MEDRADO DE SOUZA ESTAGIARIO BELO HORIZONTE; BH-18PJ DIREITOS HUMANOS 0,00 0,00 0,00 36,00 0,00 0,00 0,00 0,00 0,00 31/05/2021
739 1270000 BARBARA MOREIRA MARTINS ESTAGIARIO GOVERNADOR VALADARES; COOR REG APOIO COM INC MOB VALE DO RIO DOCE 0,00 0,00 0,00 81,00 0,00 0,00 0,00 0,00 0,00 31/05/2021
740 1206200 BARBARA PORTES BRAGA ESTAGIARIO BELO HORIZONTE; PROC. JUSTICA CIVEL 0,00 0,00 0,00 126,00 0,00 0,00 0,00 0,00 0,00 31/05/2021
741 663600 BARBARA REGINA PEREIRA DE PINHO MAGALHAES ASSESSOR BELO HORIZONTE - COMARCA; CAO-DH CONT EXT ATIV POLIC E AP COMUNIT-REC 1.198,00 0,00 519,00 0,00 0,00 0,00 0,00 0,00 0,00 31/05/2021
742 685500 BARBARA RODRIGUES DE PAULA PROMOTOR SUBSTITUTO BRUMADINHO - COMARCA; BRUMADINHO-PJ-01PJ 1.198,00 0,00 607,37 0,00 0,00 0,00 0,00 0,00 0,00 31/05/2021
743 1003200 BARBARA SANTOS SILVA ESTAGIARIO PAINS; ALFENAS-PJ-03PJ 0,00 0,00 0,00 0,00 1.446,00 0,00 0,00 0,00 0,00 31/05/2021
744 692400 BARBARA SOUZA OLIVEIRA ASSESSOR PROMOTOR JUSTICA DIVINO - COMARCA; DIVINO-PJ-UNPJ 1.198,00 0,00 519,00 0,00 0,00 0,00 0,00 0,00 0,00 31/05/2021
745 546500 BARBARA ZACARONI GOULART OFICIAL DO MP BETIM - COMARCA; BETIM-PJ-08PJ 1.198,00 0,00 519,00 0,00 0,00 0,00 0,00 0,00 0,00 31/05/2021
746 316500 BEATRIZ ABILVIA DA SILVA ANALISTA DO MP GOVERNADOR VALADARES - COMARCA; GOVERNADOR VALADARES-PJ-07PJ 1.198,00 0,00 519,00 0,00 871,04 0,00 0,00 0,00 79,85 31/05/2021
747 311800 BEATRIZ APARECIDA SOARES GANEM OFICIAL DO MP ITAMBACURI - COMARCA; ITAMBACURI-PJ-02PJ 1.198,00 0,00 519,00 0,00 0,00 0,00 0,00 0,00 0,00 31/05/2021
748 266800 BEATRIZ AUGUSTA VILACA GOMES DE HUBER OFICIAL DO MP BELO HORIZONTE - COMARCA; BH-05PJ-JUÍZO SUCESSÕES-SEC 1.198,00 0,00 519,00 0,00 0,00 0,00 0,00 0,00 0,00 31/05/2021
749 1122400 BEATRIZ BIANCO HELENA ESTAGIARIO POCOS DE CALDAS; POCOS DE CALDAS-PJ-05PJ 0,00 0,00 0,00 54,00 0,00 0,00 0,00 0,00 0,00 31/05/2021
750 235200 BEATRIZ BOTELHO BATISTA OFICIAL DO MP BELO HORIZONTE - COMARCA; BH-21PJ TUTELA FUNDACOES-SECRETARIA 1.198,00 0,00 519,00 0,00 0,00 0,00 0,00 0,00 0,00 31/05/2021
751 1272300 BEATRIZ DE ALMEIDA OLIVEIRA ESTAGIARIO JUIZ DE FORA; JUIZ DE FORA-PJ-21PJ 0,00 0,00 0,00 189,00 0,00 0,00 0,00 0,00 0,00 31/05/2021
752 1109800 BEATRIZ OLIVEIRA SILVA ESTAGIARIO NOVA LIMA; NOVA LIMA-PJ-01PJ 0,00 0,00 0,00 108,00 0,00 0,00 0,00 0,00 0,00 31/05/2021
753 182300 BEATRIZ PAULA SOUSA RAMOS OFICIAL DO MP MARIANA - COMARCA; MARIANA-PJ-01PJ 1.198,00 0,00 519,00 0,00 0,00 0,00 0,00 0,00 0,00 31/05/2021
754 1018600 BEATRIZ PERES FURLANI ESTAGIARIO UBA; COORD REG BACIA DO RIO PARAIBA DO SUL
755 1229800 BEATRIZ SILVA RODRIGUES ALVES ESTAGIARIO UBA; UBA-PJ-05PJ 0,00 0,00 0,00 72,00 0,00 0,00 0,00 0,00 0,00 31/05/2021
756 1079900 BEATRIZ VIEIRA COSTA ESTAGIARIO BELO HORIZONTE; BH-12PJ JUIZO CRIMINAL-GAB 083PJ 0,00 0,00 0,00 72,00 0,00 0,00 0,00 0,00 0,00 31/05/2021
757 507000 BELCHIOR FRANKLIN AMARAL LEITE ANALISTA DO MP BELO HORIZONTE - COMARCA; CENTRAL DE APOIO TECNICO 1.198,00 769,39 519,00 0,00 0,00 0,00 0,00 0,00 0,00 31/05/2021
758 345100 BENITO ELIAS RODRIGUES ANALISTA DO MP BARBACENA - COMARCA; BARBACENA - SECRETARIA DAS PJS CRIMINAIS 1.198,00 0,00 519,00 0,00 0,00 0,00 0,00 0,00 0,00 31/05/2021
759 207300 BENITO VIEIRA DOS SANTOS ANALISTA DO MP BELO HORIZONTE - COMARCA; PROC JUST ESP ACOES COMP ORIG CRIMINAL-ASSESS 1.198,00 0,00 519,00 0,00 5.269,64 0,00 0,00 0,00 483,05 31/05/2021
760 84700 BERGSON CARDOSO GUIMARAES PROMOT.ENTRANC.ESPECIAL BELO HORIZONTE - COMARCA; BH-24PJ JUIZO REG BARREIRO-GAB 003PJ 1.198,00 0,00 3.368,91 0,00 5.614,85 0,00 0,00 0,00 514,69 31/05/2021
761 480200 BERNADETE NUNES DOS SANTOS ANALISTA DO MP GUANHÃES - COMARCA; GUANHAES-PJ-02PJ 1.198,00 0,00 519,00 0,00 0,00 0,00 0,00 0,00 0,00 31/05/2021
762 1240100 BERNARDO DANTAS GUIMARAES ESTAGIARIO POUSO ALEGRE; COORD REG PP SUL MINAS GERAIS POUSO ALEGRE 0,00 0,00 0,00 72,00 0,00 0,00 0,00 0,00 0,00 31/05/2021
763 456700 BERNARDO DE MOURA LIMA PAIVA JEHA PROMOTOR 2A ENTRANCIA CARMO DO PARANAÍBA - COMARCA; CARMO DO PARANAIBA-PJ-01PJ 1.198,00 0,00 2.494,58 0,00 13.868,68 0,00 0,00 0,00 488,96 31/05/2021
764 666800 BERNARDO DUMONT PIRES PROMOT.ENTRANC.ESPECIAL TEÓFILO OTONI - COMARCA; TEOFILO OTONI-PJ-02PJ 1.198,00 0,00 1.061,83 0,00 5.614,85 0,00 0,00 0,00 514,69 31/05/2021
765 995400 BERNARDO MARTINS FERREIRA DE MELLO ESTAGIARIO BELO HORIZONTE; BH-07PJ 01 TRIBUNAL DO JURI-GAB 065PJ
766 1279900 BERNARDO RESENDE DOS SANTOS ESTAGIARIO BELO HORIZONTE; BH-13PJ JUIZO DE TOXICOS-GAB 137PJ 0,00 0,00 0,00 54,00 0,00 0,00 0,00 0,00 0,00 31/05/2021
767 74300 BERTOLDO MATEUS DE OLIVEIRA FILHO PROCURADOR DE JUSTICA BELO HORIZONTE - COMARCA; GABINETE DE PROCURADOR DE JUSTIÇA - SALA 903 1.198,00 0,00 2.494,58 0,00 0,00 0,00 0,00 0,00 0,00 31/05/2021
768 162900 BETANIA CABRAL DE PINA LARCHER PROMOT.ENTRANC.ESPECIAL CONTAGEM - COMARCA; CONTAGEM-PJ-18PJ 1.198,00 0,00 997,83 0,00 5.614,85 0,00 0,00 0,00 514,69 31/05/2021
769 378400 BETANIA FARNESI DE SOUZA E SILVA OFICIAL DO MP SETE LAGOAS - COMARCA; SETE LAGOAS-PJ-SEC CRIMINAIS 1.198,00 0,00 519,00 0,00 496,07 0,00 0,00 0,00 45,47 31/05/2021
770 387400 BETANIA MENDONCA DE ASSIS CARVALHO ANALISTA DO MP JUIZ DE FORA - COMARCA; JUIZ DE FORA-PJ-03PJ 1.198,00 0,00 519,00 0,00 0,00 0,00 0,00 0,00 0,00 31/05/2021
771 1147500 BETHANIA MORENA RODRIGUES GOMES ESTAGIARIO RIBEIRAO DAS NEVES; RIBEIRAO DAS NEVES-PJ-10PJ 0,00 0,00 0,00 81,00 0,00 0,00 0,00 0,00 0,00 31/05/2021
772 1212200 BIANCA APARECIDA PONGELUPPE DE MELO FRANCA ESTAGIARIO BELO HORIZONTE; PROC. JUSTICA CIVEL 0,00 0,00 0,00 18,00 0,00 0,00 0,00 0,00 0,00 31/05/2021
773 1245400 BIANCA ARRUDA MOREIRA ESTAGIARIO MUTUM; MUTUM-PJ-UNPJ 0,00 0,00 0,00 180,00 0,00 0,00 0,00 0,00 0,00 31/05/2021
774 1192800 BIANCA CRISTINA PORTES ESTAGIARIO BARBACENA; BARBACENA - SECRETARIA DAS PJS CRIMINAIS
775 1221300 BIANCA CRISTINA SOUZA ESTAGIARIO PATOS DE MINAS; PATOS DE MINAS-PJ-04PJ 0,00 0,00 0,00 27,00 385,60 0,00 0,00 0,00 0,00 31/05/2021
776 1108000 BIANCA DE CASTRO RAMOS ESTAGIARIO CONTAGEM; CONTAGEM-PJ-20PJ 0,00 0,00 0,00 45,00 0,00 0,00 0,00 0,00 0,00 31/05/2021
777 1025000 BIANCA DE OLIVEIRA BORGES ESTAGIARIO ITUIUTABA; ITUIUTABA-PJ-03PJ 0,00 0,00 0,00 108,00 0,00 0,00 0,00 0,00 0,00 31/05/2021
778 1278400 BIANCA DE SOUZA VILELA ESTAGIARIO BELO HORIZONTE; BH-13PJ JUIZO DE TOXICOS-GAB 079PJ 0,00 0,00 0,00 117,00 0,00 0,00 0,00 0,00 0,00 31/05/2021
779 1235700 BIANCA DOS REIS SILVA ESTAGIARIO CARMO DO RIO CLARO; CARMO DO RIO CLARO-PJ-UNPJ 0,00 0,00 0,00 90,00 0,00 0,00 0,00 0,00 0,00 31/05/2021
780 1115600 BIANCA EDUARDA RIBEIRO COSTA ESTAGIARIO UBERABA; UBERABA-PJ-05PJ
781 1278100 BIANCA LIDSEY CARVALHO PINTO ESTAGIARIO GUANHAES; GUANHAES-PJ-01PJ 0,00 0,00 0,00 63,00 0,00 0,00 0,00 0,00 0,00 31/05/2021
782 450300 BIANCA OLIVEIRA DE ALBUQUERQUE ANALISTA DO MP BELO HORIZONTE - COMARCA; BH-10PJ EXECUÇÃO PENAL-SECRETARIA 1.198,00 0,00 519,00 0,00 0,00 0,00 0,00 0,00 0,00 31/05/2021
783 1136100 BIANCA RIBEIRO BORGES ESTAGIARIO BELO HORIZONTE; BH-12PJ JUIZO CRIMINAL-GAB 086PJ 0,00 0,00 0,00 90,00 0,00 0,00 0,00 0,00 0,00 31/05/2021
784 535400 BIANCA SALOTO ROSSI ANALISTA DO MP SANTOS DUMONT - COMARCA; SANTOS DUMONT-PJ-01PJ 1.198,00 769,39 519,00 0,00 0,00 0,00 0,00 0,00 0,00 31/05/2021
785 120800 BRAS MARQUES DE SOUZA ANALISTA DO MP BELO HORIZONTE - COMARCA; SUPERINTENDENCIA DE GESTAO ADMINISTRATIVA 1.198,00 0,00 519,00 0,00 5.673,96 0,00 0,00 0,00 520,11 31/05/2021
786 1179500 BRENDA ALCANTARA RAMALHO ESTAGIARIO BETIM; BETIM-PJ-03PJ 0,00 0,00 0,00 162,00 0,00 0,00 0,00 0,00 0,00 31/05/2021
787 1084600 BRENDA ALEIXA DIAS DA SILVA ESTAGIARIO ITABIRA; ITABIRA-PJ-01PJ
788 1159100 BRENDA CUSTODIO DE ABREU ESTAGIARIO CONCEICAO DAS ALAGOAS; CONCEICAO DAS ALAGOAS-PJ-01PJ 0,00 0,00 0,00 81,00 0,00 0,00 0,00 0,00 0,00 31/05/2021
789 1204400 BRENDA GABRIELA ROCHA CRUZ ESTAGIARIO MANGA; MANGA-PJ-02PJ 0,00 0,00 0,00 90,00 0,00 0,00 0,00 0,00 0,00 31/05/2021
790 1127000 BRENDA LORENA DE ALMEIDA ESTAGIARIO CONTAGEM; CONTAGEM-PJ-09PJ 0,00 0,00 0,00 90,00 0,00 0,00 0,00 0,00 0,00 31/05/2021
791 1189700 BRENDA LORRANA FRANCO ESTAGIARIO UBERLANDIA; UBERLANDIA-PJ-20PJ 0,00 0,00 0,00 99,00 0,00 0,00 0,00 0,00 0,00 31/05/2021
792 1034500 BRENDA LUIZA SILVA FERREIRA ESTAGIARIO BELO HORIZONTE; PROC. JUSTICA DIR. DIFUSOS E COLETIVOS 0,00 0,00 0,00 36,00 0,00 0,00 0,00 0,00 0,00 31/05/2021
793 1250300 BRENDA MOREIRA SANTOS ESTAGIARIO BELO HORIZONTE; BH-02PJ FAMILIA
794 1179600 BRENDA SILVA ROCHA ESTAGIARIO BELO HORIZONTE; PROC. JUSTICA DE HABEAS CORPUS 0,00 0,00 0,00 27,00 0,00 0,00 0,00 0,00 0,00 31/05/2021
795 1266800 BRENDA TAVARES BRITO ESTAGIARIO PASSOS; PASSOS-PJ-03PJ
796 1242000 BRENDHA GOMES RUBERTO LIMA ESTAGIARIO MANTENA; MANTENA-PJ-02PJ 0,00 0,00 0,00 54,00 0,00 0,00 0,00 0,00 0,00 31/05/2021
797 1217200 BRENER MURILO DE BRAGANCA ESTAGIARIO MANHUACU; MANHUACU-PJ-01PJ 0,00 0,00 0,00 63,00 0,00 0,00 0,00 0,00 0,00 31/05/2021
798 372400 BRENO COSTA DA SILVA COELHO PROMOTOR 2A ENTRANCIA VISCONDE DO RIO BRANCO - COMARCA; GAECO REGIONAL ZONA MATA-VISCONDE RIO BRANCO 1.198,00 0,00 2.060,74 0,00 5.334,11 0,00 0,00 0,00 488,96 31/05/2021
799 460900 BRENO CRISTIANO DE SOUZA REZENDE ANALISTA DO MP ITAÚNA - COMARCA; ITAUNA-PJ-02PJ 1.198,00 0,00 519,00 0,00 0,00 0,00 0,00 0,00 0,00 31/05/2021
800 96700 BRENO LINHARES LINTZ PROMOT.ENTRANC.ESPECIAL UBERLÂNDIA - COMARCA; UBERLANDIA-PJ-10PJ 1.198,00 0,00 0,00 0,00 16.844,55 0,00 0,00 0,00 514,69 31/05/2021
801 439500 BRENO MAX DE JESUS SILVEIRA PROMOTOR 2A ENTRANCIA CARANGOLA - COMARCA; CARANGOLA-PJ-02PJ 1.198,00 0,00 911,06 0,00 5.334,11 0,00 0,00 0,00 488,96 31/05/2021
802 439300 BRENO NASCIMENTO PACHECO PROMOTOR 2A ENTRANCIA PATROCÍNIO - COMARCA; PATROCINIO-PJ-01PJ 1.198,00 0,00 2.928,42 0,00 18.135,97 0,00 0,00 0,00 488,96 31/05/2021
803 239000 BRENO VENANCIO ROMANINI OFICIAL DO MP BELO HORIZONTE - COMARCA; BH-20PJ ORD ECON TRIBUTARIA-SECRETARIA 1.198,00 0,00 519,00 0,00 0,00 0,00 0,00 0,00 0,00 31/05/2021
804 1106200 BRIAN ATHER MARTINS ESTAGIARIO BARBACENA; BARBACENA-PJ-09PJ 0,00 0,00 0,00 108,00 0,00 0,00 0,00 0,00 0,00 31/05/2021
805 202201 BRIGITTE AMARALINA DE CALDAS LIMA OFICIAL DO MP NANUQUE - COMARCA; NANUQUE-PJ-03PJ 1.198,00 0,00 519,00 0,00 0,00 0,00 0,00 0,00 0,00 31/05/2021
806 1257600 BRUNA ALEVATO DE LACERDA TEIXEIRA ESTAGIARIO NOVA LIMA; NOVA LIMA-PJ-02PJ
807 1092100 BRUNA ALMEIDA LOPES ESTAGIARIO JUIZ DE FORA; JUIZ DE FORA-PJ-07PJ 0,00 0,00 0,00 81,00 0,00 0,00 0,00 0,00 0,00 31/05/2021
808 1256300 BRUNA ALVES ARAUJO ESTAGIARIO CARMO DO PARANAIBA; CARMO DO PARANAIBA-PJ-02PJ 0,00 0,00 0,00 9,00 0,00 0,00 0,00 0,00 0,00 31/05/2021
809 1235800 BRUNA ALVES NEVES ESTAGIARIO SETE LAGOAS; SETE LAGOAS-PJ-07PJ 0,00 0,00 0,00 63,00 0,00 0,00 0,00 0,00 0,00 31/05/2021
810 1030300 BRUNA ARRUDA PRATES ESTAGIARIO BELO HORIZONTE; PROC. JUSTICA CRIMINAL 0,00 0,00 0,00 36,00 0,00 0,00 0,00 0,00 0,00 31/05/2021
811 659300 BRUNA BODONI FACCIOLI PROMOTOR 2A ENTRANCIA NANUQUE - COMARCA; NANUQUE-PJ-01PJ 1.198,00 0,00 1.812,66 0,00 5.334,11 0,00 0,00 0,00 488,96 31/05/2021
812 1010700 BRUNA CAROLINE VIANA DE LIMA ESTAGIARIO POUSO ALEGRE; POUSO ALEGRE-PJ-04PJ
813 1216100 BRUNA CASTANHEIRA GALINARI ESTAGIARIO BELO HORIZONTE; DIRET DE ESTAGIOS E CONVENIOS ACADEMICOS 0,00 0,00 0,00 81,00 0,00 0,00 0,00 0,00 0,00 31/05/2021
814 1153500 BRUNA DA CUNHA SILVA ESTAGIARIO BARBACENA; BARBACENA-PJ-04PJ
815 1082600 BRUNA DE CASTRO VIEIRA ESTAGIARIO GOVERNADOR VALADARES; GOVERNADOR VALADARES-PJ-07PJ 0,00 0,00 0,00 99,00 0,00 0,00 0,00 0,00 0,00 31/05/2021
816 1249900 BRUNA DE OLIVEIRA TEIXEIRA ESTAGIARIO 0,00 0,00 0,00 108,00 0,00 0,00 0,00 0,00 0,00 31/05/2021
817 1160000 BRUNA DEMETRIO PEREIRA ESTAGIARIO BELO HORIZONTE; BH-18PJ VIOLENCIA DOMESTICA 0,00 0,00 0,00 135,00 0,00 0,00 0,00 0,00 0,00 31/05/2021
818 1283600 BRUNA EDUARDA GUIMARAES OLIVEIRA ESTAGIARIO BELO HORIZONTE; PROC JUST RECURSOS ESP E EXTRAORD CRIMINAIS 0,00 0,00 0,00 63,00 0,00 0,00 0,00 0,00 0,00 31/05/2021
819 1155000 BRUNA EVANGELISTA FERREIRA ESTAGIARIO AGUAS FORMOSAS; AGUAS FORMOSAS-PJ-UNPJ 0,00 0,00 0,00 63,00 0,00 0,00 0,00 0,00 0,00 31/05/2021
820 1231100 BRUNA GOMES MULLER ESTAGIARIO ITAJUBA; ITAJUBA-PJ-02PJ 0,00 0,00 0,00 153,00 0,00 0,00 0,00 0,00 0,00 31/05/2021
821 642300 BRUNA IZABELITA DE FATIMA OLIVEIRA COSTA OFICIAL DO MP BELO HORIZONTE - COMARCA; BH-02PJ FAMILIA-SECRETARIA 1.198,00 0,00 519,00 0,00 0,00 0,00 0,00 0,00 0,00 31/05/2021
822 513600 BRUNA KARLA MARTINS CARVALHO ANALISTA DO MP GOVERNADOR VALADARES - COMARCA; GOVERNADOR VALADARES-PJ-14PJ 1.198,00 0,00 519,00 0,00 0,00 0,00 0,00 0,00 0,00 31/05/2021
823 1008400 BRUNA LEAL SILVEIRA ESTAGIARIO ITUIUTABA; ITUIUTABA-PJ-03PJ
824 415100 BRUNA MARIA SOARES OLIVEIRA COSTA RAMOS ANALISTA DO MP UBÁ - COMARCA; COORD REG BACIA DO RIO PARAIBA DO SUL 1.198,00 0,00 519,00 0,00 0,00 0,00 0,00 0,00 0,00 31/05/2021
825 692900 BRUNA MENDES COELHO ASSESSOR PROCURADOR JUSTICA BELO HORIZONTE - COMARCA; GABINETE DE PROCURADOR DE JUSTIÇA - SALA 801 1.198,00 0,00 519,00 0,00 0,00 0,00 0,00 0,00 0,00 31/05/2021
826 470000 BRUNA MORAES ANALISTA DO MP TOMBOS - COMARCA; TOMBOS-PJ-UNPJ 1.198,00 0,00 519,00 0,00 0,00 0,00 0,00 0,00 0,00 31/05/2021
827 1199500 BRUNA NATHANY OLIVEIRA MELO ESTAGIARIO UNAI; UNAI-PJ-01PJ 0,00 0,00 0,00 189,00 0,00 0,00 0,00 0,00 0,00 31/05/2021
828 614700 BRUNA NATTANY DE LIMA OFICIAL DO MP MANTENA - COMARCA; MANTENA-PJ-01PJ 1.198,00 0,00 519,00 0,00 0,00 0,00 0,00 0,00 0,00 31/05/2021
829 1084400 BRUNA PAULA AMARAL CEOLIN ESTAGIARIO BELO HORIZONTE; BH-12PJ JUIZO CRIMINAL-GAB 100PJ 0,00 0,00 0,00 81,00 0,00 0,00 0,00 0,00 0,00 31/05/2021
830 1150200 BRUNA PAULA RODRIGUES VASCONCELOS ESTAGIARIO UBERLANDIA; COORD REG PP TRIANGULO MINEIRO UBERLANDIA 0,00 0,00 0,00 144,00 0,00 0,00 0,00 0,00 0,00 31/05/2021
831 1134300 BRUNA QUEIROZ THOMAZ ESTAGIARIO TEOFILO OTONI; TEOFILO OTONI-PJ-09PJ 0,00 0,00 0,00 9,00 0,00 0,00 0,00 0,00 0,00 31/05/2021
832 693300 BRUNA RAMONY ROCHA DA CRUZ ASSESSOR PROMOTOR JUSTICA JAIBA - COMARCA; JAIBA-PJ-UNPJ 1.198,00 0,00 519,00 0,00 0,00 0,00 0,00 0,00 0,00 31/05/2021
833 631800 BRUNA RAPOSO JORGE OFICIAL DO MP JUIZ DE FORA - COMARCA; JUIZ DE FORA-PJ-06PJ 1.198,00 0,00 519,00 0,00 0,00 0,00 0,00 0,00 0,00 31/05/2021
834 1083600 BRUNA RIOS CELESTINO ESTAGIARIO CONSELHEIRO LAFAIETE; CONSELHEIRO LAFAIETE-PJ-07PJ
835 1180300 BRUNA RODRIGUES COBO ESTAGIARIO RIBEIRAO DAS NEVES; RIBEIRAO DAS NEVES-PJ-12PJ 0,00 0,00 0,00 54,00 0,00 0,00 0,00 0,00 0,00 31/05/2021
836 1239400 BRUNA RODRIGUES TORRES ESTAGIARIO BETIM; BETIM-PJ-07PJ 0,00 0,00 0,00 81,00 0,00 0,00 0,00 0,00 0,00 31/05/2021
837 697400 BRUNA SILVA SANTOS ASSESSOR PROMOTOR JUSTICA TIMÓTEO - COMARCA; TIMOTEO-PJ-04PJ 1.198,00 0,00 519,00 0,00 0,00 0,00 0,00 0,00 0,00 31/05/2021
838 1235100 BRUNA SOARES GONTIJO ESTAGIARIO BOM DESPACHO; BOM DESPACHO-PJ-01PJ 0,00 0,00 0,00 90,00 0,00 0,00 0,00 0,00 0,00 31/05/2021
839 1174400 BRUNA STEHLING SCHIRMER ESTAGIARIO BELO HORIZONTE; PROC. JUSTICA DE HABEAS CORPUS
840 1191900 BRUNA STUHLER PINHEIRO ESTAGIARIO UBERLANDIA; UBERLANDIA-PJ-18PJ 0,00 0,00 0,00 180,00 0,00 0,00 0,00 0,00 0,00 31/05/2021
841 699300 BRUNA URSINE TIMO ASSESSOR PROCURADOR JUSTICA BELO HORIZONTE - COMARCA; PROC JUST ESP ACOES COMP ORIG CRIMINAL-ASSESS 1.198,00 0,00 519,00 0,00 0,00 0,00 0,00 0,00 0,00 31/05/2021
842 1283300 BRUNNA GABRIELA GONCALVES DE OLIVEIRA FERREIRA ESTAGIARIO BELO HORIZONTE; COORD ESTADUAL DE DEFESA DOS ANIMAIS 0,00 0,00 0,00 45,00 0,00 0,00 0,00 0,00 0,00 31/05/2021
843 225100 BRUNO ALEXANDER VIEIRA SOARES PROMOT.ENTRANC.ESPECIAL BELO HORIZONTE - COMARCA; BH-17PJ PATRIMONIO PUBLICO-GAB 004PJ 1.198,00 0,00 2.377,58 0,00 5.614,85 0,00 0,00 0,00 514,69 31/05/2021
844 463800 BRUNO ALVES TEIXEIRA ANALISTA DO MP UBERLÂNDIA - COMARCA; UBERLANDIA-PJ-04PJ 1.198,00 0,00 519,00 0,00 0,00 0,00 0,00 0,00 0,00 31/05/2021
845 538500 BRUNO AUGUSTO DA SILVA OFICIAL DO MP SANTA LUZIA - COMARCA; SANTA LUZIA-PJ-03PJ 1.198,00 0,00 519,00 0,00 0,00 0,00 0,00 0,00 0,00 31/05/2021
846 318200 BRUNO BARROS DE SOUZA OFICIAL DO MP UBÁ - COMARCA; UBA-PJ-04PJ 1.198,00 0,00 519,00 0,00 0,00 0,00 0,00 0,00 0,00 31/05/2021
847 459600 BRUNO CASTELAR LUGAO MENDES OFICIAL DO MP BELO HORIZONTE - COMARCA; PROC JUST RECURSOS ESP E EXTRAORD CRIMINAIS 1.198,00 0,00 519,00 0,00 0,00 0,00 0,00 0,00 0,00 31/05/2021
848 361300 BRUNO CESAR MEDEIROS GIARDINI PROMOT.ENTRANC.ESPECIAL IPATINGA - COMARCA; IPATINGA-PJ-06PJ 1.198,00 0,00 2.451,19 0,00 12.352,67 0,00 0,00 0,00 514,69 31/05/2021
849 427400 BRUNO CESAR RIBEIRO DE PAIVA ANALISTA DO MP BELO HORIZONTE - COMARCA; ASSESS JUR DO CONS SUPERIOR DO MINISTERIO PUB 1.198,00 0,00 519,00 0,00 0,00 0,00 0,00 0,00 0,00 31/05/2021
850 380900 BRUNO CIRILO ANTUNES OFICIAL DO MP VARGINHA - COMARCA; VARGINHA-PJ-05PJ 1.198,00 0,00 519,00 0,00 0,00 0,00 0,00 0,00 0,00 31/05/2021
851 1242700 BRUNO DA SILVA LESSA ESTAGIARIO VICOSA; VICOSA-PJ-01PJ 0,00 0,00 0,00 45,00 0,00 0,00 0,00 0,00 0,00 31/05/2021
852 666700 BRUNO DE CARVALHO VASCONCELOS PROMOTOR SUBSTITUTO CORINTO - COMARCA; CORINTO-PJ-UNPJ 1.198,00 0,00 1.431,66 0,00 5.067,40 0,00 0,00 0,00 464,51 31/05/2021
853 329000 BRUNO DE MELO REIS ANALISTA DO MP PATROCÍNIO - COMARCA; PATROCINIO-PJ-02PJ 1.198,00 1.538,78 519,00 0,00 871,04 0,00 0,00 0,00 79,85 31/05/2021
854 1197800 BRUNO DURAES DE FARIAS ESTAGIARIO MONTES CLAROS; MONTES CLAROS-PJ-07PJ 0,00 0,00 0,00 54,00 0,00 0,00 0,00 0,00 0,00 31/05/2021
855 339700 BRUNO FERNANDO TORRES LANA PROMOT.ENTRANC.ESPECIAL UBÁ - COMARCA; UBA-PJ-05PJ 1.198,00 0,00 867,68 0,00 6.737,82 0,00 0,00 0,00 514,69 31/05/2021
856 1151500 BRUNO FERREIRA BRAS OLIVEIRA ESTAGIARIO UBERLANDIA; UBERLANDIA-PJ-08PJ 0,00 0,00 0,00 189,00 0,00 0,00 0,00 0,00 0,00 31/05/2021
857 1248000 BRUNO GARCIA RIBEIRO ESTAGIARIO ITAJUBA; ITAJUBA-PJ-05PJ 0,00 0,00 0,00 144,00 0,00 0,00 0,00 0,00 0,00 31/05/2021
858 697800 BRUNO GAZZOLA BEZERRA FALCAO ASSESSOR PROCURADOR JUSTICA BELO HORIZONTE - COMARCA; PROCURADOR-GERAL ADJUNTO JURIDICO- GABINETE 1.198,00 0,00 519,00 0,00 0,00 0,00 0,00 0,00 0,00 31/05/2021
859 360300 BRUNO GUERRA DE OLIVEIRA PROMOT.ENTRANC.ESPECIAL UBÁ - COMARCA; UBA-PJ-06PJ 1.198,00 0,00 1.772,52 0,00 5.614,85 0,00 0,00 0,00 514,69 31/05/2021
860 1066300 BRUNO HENRIQUE ALVES DE LIMA ESTAGIARIO SETE LAGOAS; SETE LAGOAS-PJ-03PJ 0,00 0,00 0,00 162,00 0,00 0,00 0,00 0,00 0,00 31/05/2021
861 378300 BRUNO HERDY LOPES DE OLIVEIRA ANALISTA DO MP GOVERNADOR VALADARES - COMARCA; GOVERNADOR VALADARES-PJ-03PJ 1.198,00 0,00 519,00 0,00 687,56 0,00 0,00 0,00 63,03 31/05/2021
862 1259500 BRUNO IZARIAS LIMA TEIXEIRA ESTAGIARIO BELO HORIZONTE; PROC. JUSTICA CIVEL 0,00 0,00 0,00 81,00 0,00 0,00 0,00 0,00 0,00 31/05/2021
863 529700 BRUNO JOSE BUENO DIAS OFICIAL DO MP SÃO SEBASTIÃO DO PARAÍSO - COMARCA; SAO SEBASTIAO DO PARAISO-PJ-02PJ 1.198,00 0,00 519,00 0,00 0,00 0,00 0,00 0,00 0,00 31/05/2021
864 691600 BRUNO JOSE RIBEIRO ASSESSOR PROMOTOR JUSTICA CLÁUDIO - COMARCA; CLAUDIO-PJ-UNPJ 1.198,00 0,00 519,00 0,00 0,00 0,00 0,00 0,00 0,00 31/05/2021
865 350100 BRUNO LAUD SERRANO DOS REIS OFICIAL DO MP UBÁ - COMARCA; UBA-PJ-02PJ 1.198,00 0,00 519,00 0,00 0,00 0,00 0,00 0,00 0,00 31/05/2021
866 530600 BRUNO MARQUES DE ALMEIDA ROSSI PROMOTOR 1A ENTRANCIA PRESIDENTE OLEGÁRIO - COMARCA; PRESIDENTE OLEGARIO-PJ-UNPJ 1.198,00 0,00 3.040,44 0,00 5.067,40 0,00 0,00 0,00 464,51 31/05/2021
867 1028900 BRUNO MARQUES JIMENEZ ABAD ESTAGIARIO VARGINHA; VARGINHA-PJ-03PJ 0,00 0,00 0,00 189,00 0,00 0,00 0,00 0,00 0,00 31/05/2021
868 373800 BRUNO MARTINO DE ALBUQUERQUE ANALISTA DO MP PONTE NOVA - COMARCA; PONTE NOVA-PJ-03PJ 1.198,00 0,00 519,00 0,00 0,00 0,00 0,00 0,00 0,00 31/05/2021
869 1163200 BRUNO MORAIS MARQUES ESTAGIARIO CARMO DO PARANAIBA; CARMO DO PARANAIBA-PJ-01PJ
870 470400 BRUNO NOVAIS CABRAL ANALISTA DO MP MUTUM - COMARCA; MUTUM-PJ-UNPJ 1.198,00 769,39 519,00 0,00 0,00 0,00 0,00 0,00 0,00 31/05/2021
871 457300 BRUNO OLIVEIRA MULLER PROMOT.ENTRANC.ESPECIAL ITABIRA - COMARCA; ITABIRA-PJ-04PJ 1.198,00 0,00 2.060,74 0,00 5.614,85 0,00 0,00 0,00 514,69 31/05/2021
872 648600 BRUNO RIBEIRO E MELO ASSESSOR BELO HORIZONTE - COMARCA; DIR RELACOES INSTITUCIONAIS 1.198,00 0,00 519,00 0,00 0,00 0,00 0,00 0,00 0,00 31/05/2021
873 369200 BRUNO ROBERTO DIAS DE OLIVEIRA OFICIAL DO MP BELO HORIZONTE - COMARCA; BH-22PJ PES COM DEF E IDOSOS-SECRETARIA 1.198,00 0,00 519,00 0,00 0,00 0,00 0,00 0,00 0,00 31/05/2021
874 547700 BRUNO ROBERTO SOUZA GONCALVES ANALISTA DO MP PARACATU - COMARCA; PARACATU-PJ-03PJ 1.198,00 1.538,78 519,00 0,00 0,00 0,00 0,00 0,00 0,00 31/05/2021
875 546100 BRUNO SA VIEIRA ANALISTA DO MP BARBACENA - COMARCA; BARBACENA-PJ-SECRETARIA 1.198,00 0,00 519,00 0,00 0,00 0,00 0,00 0,00 0,00 31/05/2021
876 438200 BRUNO SALES PEREIRA ANALISTA DO MP BELO HORIZONTE - COMARCA; CENTRAL DE APOIO TECNICO-SETOR CONTABIL 1.198,00 769,39 519,00 0,00 0,00 0,00 0,00 0,00 0,00 31/05/2021
877 537400 BRUNO SANT'ANA CESAR ANALISTA DO MP CONTAGEM - COMARCA; CONTAGEM-PJ-21PJ 1.198,00 0,00 519,00 0,00 0,00 0,00 0,00 0,00 0,00 31/05/2021
878 343500 BRUNO SCHIAVO CRUZ PROMOT.ENTRANC.ESPECIAL IPATINGA - COMARCA; GAECO REGIONAL DE IPATINGA 1.198,00 0,00 2.928,42 0,00 5.614,85 0,00 0,00 0,00 514,69 31/05/2021
879 1155100 BRUNO SOARES FONSECA ESTAGIARIO MONTES CLAROS; MONTES CLAROS-PJ-01PJ 0,00 0,00 0,00 135,00 0,00 0,00 0,00 0,00 72,30 31/05/2021
880 684000 BRUNO TORRANO AMORIM DE ALMEIDA PROMOTOR 2A ENTRANCIA SÃO FRANCISCO - COMARCA; SAO FRANCISCO-PJ-02PJ 1.198,00 0,00 1.518,44 0,00 0,00 0,00 0,00 0,00 0,00 31/05/2021
881 679000 BRUNO WILLIANS PAULINO DE MELLO ASSESSOR PROCURADOR JUSTICA BELO HORIZONTE - COMARCA; GABINETE DE PROCURADOR DE JUSTIÇA - SALA 1006 1.198,00 0,00 519,00 0,00 0,00 0,00 0,00 0,00 0,00 31/05/2021
882 655800 CAEL KALINOWSKI SOUZA MATTA INVESTIGADOR DE POLICIA 2 BELO HORIZONTE - COMARCA; NUCLEO DE INFORMACOES E INTELIGENCIA 1.198,00 0,00 0,00 0,00 0,00 0,00 0,00 0,00 0,00 31/05/2021
883 1047600 CAIO ALESSI FERREIRA DE CARVALHO ESTAGIARIO BELO HORIZONTE; BH-18PJ VIOLENCIA DOMESTICA-SECRETARIA 0,00 0,00 0,00 54,00 0,00 0,00 0,00 0,00 0,00 31/05/2021
884 1135500 CAIO ANTONIO DO AMARAL BRAGA ALVES ESTAGIARIO ESPERA FELIZ; ESPERA FELIZ-PJ-UNPJ 0,00 0,00 0,00 180,00 0,00 0,00 0,00 0,00 0,00 31/05/2021
885 1051200 CAIO BASSOLI ESTAGIARIO JUIZ DE FORA; JUIZ DE FORA-PJ-20PJ 0,00 0,00 0,00 90,00 0,00 0,00 0,00 0,00 0,00 31/05/2021
886 666900 CAIO CESAR ESPIRITO SANTO DO NASCIMENTO PROMOTOR 2A ENTRANCIA SALINAS - COMARCA; SALINAS-PJ-01PJ 1.198,00 0,00 1.333,20 0,00 16.002,33 0,00 0,00 0,00 488,96 31/05/2021
887 685600 CAIO CESAR FERREIRA PROMOTOR SUBSTITUTO NOVO CRUZEIRO - COMARCA; NOVO CRUZEIRO-PJ-UNPJ 1.198,00 0,00 0,00 0,00 0,00 0,00 0,00 0,00 0,00 31/05/2021
888 1244600 CAIO CRIVELENTI RAFFAINI CASTRO ESTAGIARIO UBERLANDIA; UBERLANDIA-PJ-11PJ 0,00 0,00 0,00 171,00 0,00 0,00 0,00 0,00 0,00 31/05/2021
889 405800 CAIO FERNANDO RODRIGUES DE OLIVEIRA ANALISTA DO MP BELO HORIZONTE - COMARCA; GABINETE DE PROCURADOR DE JUSTIÇA - SALA 805 1.198,00 0,00 519,00 0,00 0,00 0,00 0,00 0,00 0,00 31/05/2021
890 530000 CAIO GUEDES DE OLIVEIRA ANALISTA DO MP DIAMANTINA - COMARCA; DIAMANTINA-PJ-02PJ 1.198,00 769,39 519,00 0,00 0,00 0,00 0,00 0,00 0,00 31/05/2021
891 1118400 CAIO HENRIQUE DE FREITAS MELO ESTAGIARIO UBERABA; UBERABA-PJ-02PJ 0,00 0,00 0,00 45,00 0,00 0,00 0,00 0,00 0,00 31/05/2021
892 971000 CAIO LEMOS SILVA ESTAGIARIO PASSOS; PASSOS-PJ-02PJ
893 1235900 CAIO MARCELO CARDOSO COSTA ESTAGIARIO CORONEL FABRICIANO; CORONEL FABRICIANO-PJ-04PJ 0,00 0,00 0,00 189,00 0,00 0,00 0,00 0,00 162,90 31/05/2021
894 1166800 CAIO MARINI LIMA COSTA ESTAGIARIO BELO HORIZONTE; BH-08PJ JUIZADO ESPECIAL-GAB 168PJ 0,00 0,00 0,00 171,00 0,00 0,00 0,00 0,00 0,00 31/05/2021
895 491400 CAIO MIRANDA JUNQUEIRA ANALISTA DO MP BUENO BRANDAO - COMARCA; BUENO BRANDAO-PJ-UNPJ 1.198,00 0,00 519,00 0,00 0,00 0,00 0,00 0,00 0,00 31/05/2021
896 668300 CAIO PALLU COSTA PROMOTOR 2A ENTRANCIA MANTENA - COMARCA; MANTENA-PJ-03PJ 1.198,00 0,00 1.475,05 0,00 5.334,11 0,00 0,00 0,00 488,96 31/05/2021
897 671600 CAIO ROTHSAHL BOTELHO PROMOTOR 2A ENTRANCIA PEDRA AZUL - COMARCA; PEDRA AZUL-PJ-01PJ 1.198,00 0,00 1.475,05 0,00 6.400,93 0,00 0,00 0,00 488,96 31/05/2021
898 171000 CAIUS VINICIUS GONZAGA GOULART PROMOT.ENTRANC.ESPECIAL BELO HORIZONTE - COMARCA; BH-12PJ JUIZO CRIMINAL-GAB 106PJ 1.198,00 0,00 0,00 0,00 5.614,85 0,00 0,00 0,00 514,69 31/05/2021
899 82300 CALIXTO OLIVEIRA SOUZA PROMOT.ENTRANC.ESPECIAL DIVINÓPOLIS - COMARCA; DIVINOPOLIS-PJ-01PJ 1.198,00 0,00 2.386,12 0,00 16.844,55 0,00 0,00 0,00 514,69 31/05/2021
900 415800 CAMILA ALVES DA SILVA ANALISTA DO MP CAETÉ - COMARCA; CAETE-PJ-01PJ 1.198,00 0,00 519,00 0,00 0,00 0,00 0,00 0,00 0,00 31/05/2021
901 684900 CAMILA APARECIDA PIRES PROMOTOR SUBSTITUTO CONTAGEM - COMARCA; CONTAGEM-PJ-02PJ 1.198,00 0,00 715,83 0,00 0,00 0,00 0,00 0,00 0,00 31/05/2021
902 1069600 CAMILA BRITO NERY ESTAGIARIO UBERLANDIA; UBERLANDIA-PJ-05PJ 0,00 0,00 0,00 189,00 0,00 0,00 0,00 0,00 0,00 31/05/2021
903 1055500 CAMILA CAFIERO BICALHO ESTAGIARIO BELO HORIZONTE; BH-17PJ PATRIMONIO PUBLICO-GAB 120PJ 0,00 0,00 0,00 18,00 0,00 0,00 0,00 0,00 0,00 31/05/2021
904 1199600 CAMILA CAROLINE DOS SANTOS FARIA DUARTE ESTAGIARIO UNAI; UNAI-PJ-03PJ 0,00 0,00 0,00 171,00 0,00 0,00 0,00 0,00 0,00 31/05/2021
905 555800 CAMILA CAROLINE ROCHA CHAVES OFICIAL DO MP SALINAS - COMARCA; SALINAS-PJ-01PJ 1.198,00 0,00 519,00 0,00 0,00 0,00 0,00 0,00 0,00 31/05/2021
906 1056400 CAMILA CARVALHO FREITAS ESTAGIARIO BELO HORIZONTE; PROC JUST ESP ACOES COMP ORIG CRIMINAL-ASSESS 0,00 0,00 0,00 0,00 96,40 0,00 0,00 0,00 0,00 31/05/2021
907 445200 CAMILA CONDE ROCHA ANALISTA DO MP CONTAGEM - COMARCA; CONTAGEM-PJ-08PJ 1.198,00 769,39 519,00 0,00 0,00 0,00 0,00 0,00 0,00 31/05/2021
908 419900 CAMILA CUNNINGHAM PIMENTA DE PADUA ANALISTA DO MP BELO HORIZONTE - COMARCA; ASSESSORIA PSICOSSOCIAL 1.198,00 0,00 519,00 0,00 0,00 0,00 0,00 0,00 0,00 31/05/2021
909 998800 CAMILA DE CASTRO COELHO ESTAGIARIO ERVALIA; ERVALIA-PJ-UNPJ 0,00 0,00 0,00 36,00 832,60 0,00 0,00 0,00 0,00 31/05/2021
910 1107600 CAMILA DE SOUSA CUNHA ESTAGIARIO BARROSO; BARROSO-PJ-01PJ 0,00 0,00 0,00 90,00 0,00 0,00 0,00 0,00 0,00 31/05/2021
911 704600 CAMILA DIAS NOGUEIRA ASSESSOR BELO HORIZONTE - COMARCA; DIR CONTEUDO JORNALISTICO 1.143,55 0,00 519,00 0,00 0,00 0,00 0,00 0,00 0,00 31/05/2021
912 507700 CAMILA ELIZABETH RODRIGUES ANALISTA DO MP BELO HORIZONTE - COMARCA; BH-02PJ FAMILIA-SECRETARIA 1.198,00 0,00 519,00 0,00 0,00 0,00 0,00 0,00 0,00 31/05/2021
913 1182700 CAMILA FERREIRA DA SILVA PEREIRA ESTAGIARIO SETE LAGOAS; SETE LAGOAS-PJ-07PJ 0,00 0,00 0,00 27,00 0,00 0,00 0,00 0,00 0,00 31/05/2021
914 372700 CAMILA FONSECA LIMONGE ANALISTA DO MP BETIM - COMARCA; BETIM-PJ-01PJ 1.198,00 769,39 519,00 0,00 0,00 0,00 0,00 0,00 0,00 31/05/2021
915 1205100 CAMILA FRANCIELLI JUSTINO DUARTE ESTAGIARIO BARBACENA; BARBACENA-PJ-07PJ
916 621300 CAMILA GOLFETO DE SOUSA VALENTE OFICIAL DO MP ESPERA FELIZ - COMARCA; ESPERA FELIZ-PJ-UNPJ 1.198,00 1.153,54 519,00 0,00 0,00 0,00 0,00 0,00 0,00 31/05/2021
917 409800 CAMILA GONCALVES COSTA RIBEIRO ANALISTA DO MP INHAPIM - COMARCA; INHAPIM-PJ-02PJ 1.198,00 769,39 519,00 0,00 0,00 0,00 0,00 0,00 0,00 31/05/2021
918 335000 CAMILA GONTIJO DE PAIVA ANALISTA DO MP BELO HORIZONTE - COMARCA; COORD DE CONTROLE CONSTITUCIONALIDADE 1.198,00 0,00 519,00 0,00 3.351,47 0,00 0,00 0,00 307,22 31/05/2021
919 693400 CAMILA HECKSHER MONTEIRO ASSESSOR PROCURADOR JUSTICA BELO HORIZONTE - COMARCA; GABINETE DE PROCURADOR DE JUSTIÇA - SALA 613 1.198,00 0,00 519,00 0,00 0,00 0,00 0,00 0,00 0,00 31/05/2021
920 696000 CAMILA IMACULADA OLIVEIRA ASSESSOR PROCURADOR JUSTICA BELO HORIZONTE - COMARCA; GABINETE DE PROCURADOR DE JUSTIÇA - SALA 804 1.198,00 0,00 519,00 0,00 0,00 0,00 0,00 0,00 0,00 31/05/2021
921 1231200 CAMILA MARIZ MACEDO ESTAGIARIO BELO HORIZONTE; PROC. JUSTICA CRIMINAL
922 547800 CAMILA MATTARELLI DE ABREU E SILVA ANALISTA DO MP BELO HORIZONTE - COMARCA; CAO-VIOLENCIA DOMESTICA E FAMILIAR 1.198,00 0,00 519,00 0,00 0,00 0,00 0,00 0,00 0,00 31/05/2021
923 1183500 CAMILA MORAIS FERREIRA ESTAGIARIO BELO HORIZONTE; BH-02PJ FAMILIA
924 1180400 CAMILA NICACIO PEDROSA ALMEIDA ESTAGIARIO BELO HORIZONTE; PROC. JUSTICA CRIMINAL 0,00 0,00 0,00 54,00 0,00 0,00 0,00 0,00 0,00 31/05/2021
925 1287600 CAMILA NUNES COELHO LAGE ESTAGIARIO BELO HORIZONTE; BH-24PJ JUIZO REG BARREIRO-GAB 003PJ 0,00 0,00 0,00 9,00 0,00 0,00 0,00 0,00 0,00 31/05/2021
926 1141300 CAMILA OLIVEIRA GIACOMETO ESTAGIARIO UBERABA; UBERABA-PJ-08PJ
927 1076300 CAMILA RODRIGUES ANDRADE ESTAGIARIO BELO HORIZONTE; BH-23PJ CIVEL 0,00 0,00 0,00 18,00 0,00 0,00 0,00 0,00 0,00 31/05/2021
928 1072900 CAMILA TEIXEIRA CORDEIRO ESTAGIARIO BELO HORIZONTE; PROC. JUSTICA CRIMINAL
929 1156500 CAMILA VALERIO DE BARCELOS ESTAGIARIO BELO HORIZONTE; EXTINTA-COORD EST DEF DIR FAM PES DEFIC IDOSO 0,00 0,00 0,00 99,00 0,00 0,00 0,00 0,00 0,00 31/05/2021
930 1170200 CAMILA VENANCIO DIAS ESTAGIARIO BELO HORIZONTE; PROC. JUSTICA DIR. DIFUSOS E COLETIVOS
931 1194500 CAMILE LORRANY FLAVIO ALVES ESTAGIARIO MONTES CLAROS; MONTES CLAROS-PJ-01PJ 0,00 0,00 0,00 162,00 0,00 0,00 0,00 0,00 0,00 31/05/2021
932 1013500 CAMILLA CRISTINA PACHECO DE MELO ESTAGIARIO BELO HORIZONTE; BH-12PJ JUIZO CRIMINAL-GAB 088PJ 0,00 0,00 0,00 27,00 0,00 0,00 0,00 0,00 0,00 31/05/2021
933 1068400 CAMILLA MARIA GUIMARAES PERTENCE ESTAGIARIO BELO HORIZONTE; PROC. JUSTICA CRIMINAL 0,00 0,00 0,00 54,00 0,00 0,00 0,00 0,00 0,00 31/05/2021
934 1097800 CAMILLA VERGINIO COSTA ESTAGIARIO 0,00 0,00 0,00 189,00 0,00 0,00 0,00 0,00 0,00 31/05/2021
935 430000 CANDIDA MARINA COSTA ANALISTA DO MP BELO HORIZONTE - COMARCA; DIVISAO DE DOCUMENTACAO JURIDICA 1.198,00 0,00 519,00 0,00 0,00 0,00 0,00 0,00 0,00 31/05/2021
936 614300 CARINA CORTIELHA OFICIAL DO MP BELO HORIZONTE - COMARCA; BH-23PJ CIVEL-SEC EXP CIVEIS 1.198,00 0,00 519,00 0,00 0,00 0,00 0,00 0,00 2.007,79 31/05/2021
937 380400 CARINA DIAS FACANHA DE SOUZA ANALISTA DO MP SANTA RITA DO SAPUCAÍ - COMARCA; SANTA RITA DO SAPUCAI-PJ-SECRETARIA 1.198,00 0,00 519,00 0,00 0,00 0,00 0,00 0,00 0,00 31/05/2021
938 698300 CARINA ESTEPHANY FAVATO FERREIRA JUSTE ASSESSOR PROCURADOR JUSTICA BELO HORIZONTE - COMARCA; PROC. JUSTICA DIR. DIFUSOS E COLETIVOS-SEC 1.198,00 0,00 519,00 0,00 0,00 0,00 0,00 0,00 0,00 31/05/2021
939 255000 CARLA ADRIANA DE MENEZES OFICIAL DO MP BELO HORIZONTE - COMARCA; CENT DE APOIO TEC-SETOR DEF,IDOSO E INFANC 1.198,00 0,00 519,00 0,00 0,00 0,00 0,00 0,00 0,00 31/05/2021
940 425100 CARLA ADRIANA DINIZ AMARAL OFICIAL DO MP CONTAGEM - COMARCA; CONTAGEM-PJ-SECRETARIA 1.198,00 0,00 519,00 0,00 0,00 0,00 0,00 0,00 0,00 31/05/2021
941 508100 CARLA ALESSANDRA FONSECA ANALISTA DO MP BELO HORIZONTE - COMARCA; CAO-ORDEM ECONOMICA E TRIBUTARIA-SECRETARIA 1.198,00 0,00 519,00 0,00 0,00 0,00 0,00 0,00 0,00 31/05/2021
942 607100 CARLA ANGELICA DIAS MIRANDA OFICIAL DO MP JABOTICATUBAS - COMARCA; JABOTICATUBAS-PJ-UNPJ 1.198,00 0,00 519,00 0,00 0,00 0,00 0,00 0,00 0,00 31/05/2021
943 351500 CARLA APARECIDA MENDES RAMIRIO OFICIAL DO MP PASSOS - COMARCA; PASSOS-PJ-01PJ 1.198,00 0,00 519,00 0,00 0,00 0,00 0,00 0,00 0,00 31/05/2021
944 1081900 CARLA DOS SANTOS SOUZA ESTAGIARIO ESPERA FELIZ; ESPERA FELIZ-PJ-UNPJ 0,00 0,00 0,00 189,00 0,00 0,00 0,00 0,00 0,00 31/05/2021
945 442800 CARLA GONCALVES COSTA SOALHEIRO ANALISTA DO MP GOVERNADOR VALADARES - COMARCA; GOVERNADOR VALADARES-PJ-11PJ 1.198,00 769,39 519,00 0,00 0,00 0,00 0,00 0,00 0,00 31/05/2021
946 321500 CARLA GONCALVES MASSOTE OFICIAL DO MP CAMPO BELO - COMARCA; CAMPO BELO-PJ-01PJ 1.198,00 0,00 519,00 0,00 0,00 0,00 0,00 0,00 0,00 31/05/2021
947 429200 CARLA HAUTEQUESTT BECHARA COORDENADOR/ANALISTA BELO HORIZONTE - COMARCA; DIRET DE INFORMACAO E CONHECIMENTO-DINC/CEAF 1.198,00 0,00 519,00 0,00 0,00 0,00 0,00 0,00 0,00 31/05/2021
948 1214400 CARLA LEOPOLDO DE OLIVEIRA ESTAGIARIO JUIZ DE FORA; GAECO REGIONAL DA ZONA DA MATA-JUIZ DE FORA 0,00 0,00 0,00 135,00 0,00 0,00 0,00 0,00 0,00 31/05/2021
949 1061300 CARLA LOPES MIRANDA ESTAGIARIO GOVERNADOR VALADARES; GOVERNADOR VALADARES-PJ-07PJ 0,00 0,00 0,00 171,00 96,40 0,00 0,00 0,00 0,00 31/05/2021
950 157400 CARLA MARIA ALESSI LAFETA DE CARVALHO PROMOT.ENTRANC.ESPECIAL BELO HORIZONTE - COMARCA; BH-02PJ FAMILIA-GAB 029PJ 1.198,00 0,00 2.906,72 0,00 5.614,85 0,00 0,00 0,00 514,69 31/05/2021
951 1100400 CARLA MARTINELLI ESTAGIARIO ANDRADAS; ANDRADAS-PJ-01PJ 0,00 0,00 0,00 189,00 0,00 0,00 0,00 0,00 0,00 31/05/2021
952 247500 CARLA MATILDE GUIMARAES DE OLIVEIRA OFICIAL DO MP ITAJUBA - COMARCA; ITAJUBA-PJ-SECRETARIA 1.198,00 0,00 519,00 0,00 0,00 0,00 0,00 0,00 0,00 31/05/2021
953 226100 CARLA MERLI DA CONCEICAO ANALISTA DO MP BELO HORIZONTE - COMARCA; CENTRAL DE APOIO TECNICO-SETOR CONTABIL 1.198,00 0,00 519,00 0,00 978,65 0,00 0,00 0,00 89,71 31/05/2021
954 685700 CARLA PRISCILLA PEREIRA VIANA PROMOTOR SUBSTITUTO LAGOA DA PRATA - COMARCA; LAGOA DA PRATA-PJ-02PJ 1.198,00 0,00 1.323,20 0,00 0,00 0,00 0,00 0,00 0,00 31/05/2021
955 343100 CARLA REGINA GOULART SALARO DUVANEL PROMOT.ENTRANC.ESPECIAL GOVERNADOR VALADARES - COMARCA; GOVERNADOR VALADARES-PJ-06PJ 1.198,00 0,00 1.301,52 0,00 5.614,85 0,00 0,00 0,00 514,69 31/05/2021
956 532600 CARLA RODRIGUES FAZUOLI PROMOTOR 2A ENTRANCIA SACRAMENTO - COMARCA; SACRAMENTO-PJ-02PJ 1.198,00 0,00 3.200,47 0,00 0,00 0,00 0,00 0,00 0,00 31/05/2021
957 1102000 CARLIANE MARTINS GOMES ESTAGIARIO SACRAMENTO; SACRAMENTO-PJ-01PJ 0,00 0,00 0,00 189,00 0,00 0,00 0,00 0,00 0,00 31/05/2021
958 181401 CARLO MICHEL GAUDENSI COELHO ANALISTA DO MP BELO HORIZONTE - COMARCA; BH-08PJ JUIZADO ESPECIAL-SECRETARIA 1.198,00 0,00 519,00 0,00 0,00 0,00 0,00 0,00 0,00 31/05/2021
959 634000 CARLOS ALBERTO AMORMINO TRIGUEIRO ANALISTA DO MP BELO HORIZONTE - COMARCA; DIRET DE APOIO AS PROCURADORIAS DE JUSTICA 1.198,00 769,39 519,00 0,00 0,00 0,00 0,00 0,00 0,00 31/05/2021
960 232300 CARLOS ALBERTO DA SILVEIRA ISOLDI FILHO PROMOT.ENTRANC.ESPECIAL BELO HORIZONTE - COMARCA; BH-19PJ SAUDE-GAB 150PJ 1.198,00 0,00 3.368,91 0,00 5.614,85 0,00 0,00 0,00 514,69 31/05/2021
961 637900 CARLOS ALBERTO DE MOURA OFICIAL DO MP SETE LAGOAS - COMARCA; SETE LAGOAS-PJ-07PJ 1.198,00 0,00 519,00 0,00 0,00 0,00 0,00 0,00 0,00 31/05/2021
962 638700 CARLOS ALBERTO FERREIRA BRAGA ANALISTA DO MP MATOZINHOS - COMARCA; MATOZINHOS-PJ-01PJ 1.198,00 0,00 519,00 0,00 0,00 0,00 0,00 0,00 0,00 31/05/2021
963 54400 CARLOS ALBERTO RIBEIRO MOREIRA PROMOTOR 2A ENTRANCIA LAVRAS - COMARCA; LAVRAS-PJ-02PJ 1.198,00 0,00 2.603,04 0,00 16.002,33 0,00 0,00 0,00 488,96 31/05/2021
964 375801 CARLOS ALBERTO ROCHA ANALISTA DO MP VARGINHA - COMARCA; GAECO REGIONAL DE VARGINHA 1.198,00 0,00 519,00 0,00 0,00 0,00 0,00 0,00 0,00 31/05/2021
965 110700 CARLOS ALBERTO VALERA PROMOT.ENTRANC.ESPECIAL UBERABA - COMARCA; UBERABA-PJ-07PJ 1.198,00 0,00 997,83 0,00 28.074,25 0,00 0,00 0,00 514,69 31/05/2021
966 1230800 CARLOS ALEXANDRE RODRIGUES DE MATTOS ESTAGIARIO SANTOS DUMONT; SANTOS DUMONT-PJ-03PJ 0,00 0,00 0,00 54,00 0,00 0,00 0,00 0,00 0,00 31/05/2021
967 94200 CARLOS ANDRE MARIANI BITTENCOURT PROCURADOR DE JUSTICA BELO HORIZONTE - COMARCA; PROCURADORIA-GERAL ADJUNTA INSTITUCIONAL 1.198,00 0,00 3.546,22 0,00 5.910,37 0,00 0,00 0,00 541,78 31/05/2021
968 462800 CARLOS ANDREI SOARES FAGUNDES ANALISTA DO MP MONTES CLAROS - COMARCA; MONTES CLAROS-PJ-09PJ 1.198,00 0,00 519,00 0,00 0,00 0,00 0,00 0,00 0,00 31/05/2021
969 370300 CARLOS AUGUSTO BUENO DIAS ASSESSOR BELO HORIZONTE - COMARCA; SUPERINTENDÊNCIA DE ENGENHARIA E ARQUITETURA 1.198,00 0,00 519,00 0,00 0,00 0,00 0,00 0,00 0,00 31/05/2021
970 66200 CARLOS AUGUSTO CANEDO GONCALVES DA SILVA PROCURADOR DE JUSTICA BELO HORIZONTE - COMARCA; GABINETE DE PROCURADOR DE JUSTIÇA - SALA 911 1.198,00 0,00 3.546,22 0,00 17.731,11 0,00 0,00 0,00 541,78 31/05/2021
971 83200 CARLOS AUGUSTO ESTEVES DE CARVALHO PROMOT.ENTRANC.ESPECIAL JUIZ DE FORA - COMARCA; JUIZ DE FORA-PJ-16PJ 1.198,00 0,00 1.193,06 0,00 5.614,85 0,00 0,00 0,00 514,69 31/05/2021
972 143500 CARLOS AUGUSTO GOMES BRAGA PROMOT.ENTRANC.ESPECIAL BELO HORIZONTE - COMARCA; BH-03PJ EMPRESARIAL-GAB 036PJ 1.198,00 0,00 2.537,96 0,00 16.844,55 0,00 0,00 0,00 514,69 31/05/2021
973 701800 CARLOS AUGUSTO GOMES DE MORAES SALLES ASSESSOR PROCURADOR JUSTICA BELO HORIZONTE - COMARCA; PROC JUST ATUACAO TRIBUNAIS SUPERIORES-GAB004 1.198,00 0,00 519,00 0,00 0,00 0,00 0,00 0,00 0,00 31/05/2021
974 110800 CARLOS CESAR MARQUES LUZ PROMOTOR 1A ENTRANCIA JACUTINGA - COMARCA; JACUTINGA-PJ-UNPJ 1.198,00 0,00 0,00 0,00 25.337,02 0,00 0,00 0,00 464,51 31/05/2021
975 505100 CARLOS CEZAR CARVALHO ANALISTA DO MP RIBEIRÃO DAS NEVES - COMARCA; RIBEIRAO DAS NEVES-PJ-04PJ 1.198,00 0,00 519,00 0,00 0,00 0,00 0,00 0,00 0,00 31/05/2021
976 195900 CARLOS DE SOUZA FERREIRA OFICIAL DO MP COROMANDEL - COMARCA; COROMANDEL-PJ-01PJ 1.198,00 0,00 519,00 0,00 0,00 0,00 0,00 0,00 0,00 31/05/2021
977 344300 CARLOS EDUARDO AVANZI DE ALMEIDA PROMOTOR 2A ENTRANCIA CAMPO BELO - COMARCA; CAMPO BELO-PJ-03PJ 1.198,00 0,00 3.200,47 0,00 14.935,51 0,00 0,00 0,00 488,96 31/05/2021
978 196800 CARLOS EDUARDO DE OLIVEIRA MARINHO OFICIAL DO MP ALPINÓPOLIS - COMARCA; ALPINOPOLIS-PJ-UNPJ 1.198,00 0,00 519,00 0,00 5.192,49 0,00 0,00 0,00 475,98 31/05/2021
979 1269100 CARLOS EDUARDO DE SOUZA ESTAGIARIO BOTELHOS; BOTELHOS-PJ-UNPJ 0,00 0,00 0,00 171,00 0,00 0,00 0,00 0,00 0,00 31/05/2021
980 157500 CARLOS EDUARDO DUTRA PIRES PROMOT.ENTRANC.ESPECIAL SETE LAGOAS - COMARCA; SETE LAGOAS-PJ-02PJ 1.198,00 0,00 2.060,74 0,00 16.844,55 0,00 0,00 0,00 514,69 31/05/2021
981 483200 CARLOS EDUARDO FERNANDES NEVES RIBEIRO PROMOT.ENTRANC.ESPECIAL BARBACENA - COMARCA; BARBACENA-PJ-08PJ 1.198,00 0,00 2.558,91 0,00 14.598,61 0,00 0,00 0,00 514,69 31/05/2021
982 315400 CARLOS EDUARDO FERREIRA PINTO PROMOT.ENTRANC.ESPECIAL BELO HORIZONTE - COMARCA; CAO-MEIO AMBIENTE 1.198,00 0,00 2.346,56 0,00 16.844,55 0,00 0,00 0,00 514,69 31/05/2021
983 55300 CARLOS EDUARDO MAFRA CAVALCANTI PROCURADOR DE JUSTICA BELO HORIZONTE - COMARCA; GABINETE DE PROCURADOR DE JUSTIÇA - SALA 503 1.198,00 0,00 2.603,04 0,00 5.910,37 0,00 0,00 0,00 541,78 31/05/2021
984 650800 CARLOS EDUARDO NIZA DA SILVA OFICIAL DO MP IGARAPÉ - COMARCA; IGARAPE-PJ-01PJ 1.198,00 0,00 519,00 0,00 0,00 0,00 0,00 0,00 0,00 31/05/2021
985 491800 CARLOS EDUARDO ROMAN OFICIAL DO MP BARBACENA - COMARCA; BARBACENA-PJ-09PJ 1.198,00 0,00 519,00 0,00 0,00 0,00 0,00 0,00 0,00 31/05/2021
986 157600 CARLOS EUGENIO SOUTO MAIOR FILIZOLA JUNIOR PROMOT.ENTRANC.ESPECIAL ENTRE-RIOS DE MINAS - COMARCA; ENTRE RIOS DE MINAS-PJ-UNPJ 1.198,00 0,00 0,00 0,00 16.844,55 0,00 0,00 0,00 514,69 31/05/2021
987 1122900 CARLOS GUILHERME COLLENGHI DIAS ESTAGIARIO UBERABA; UBERABA-PJ-04PJ 0,00 0,00 0,00 0,00 964,00 0,00 0,00 0,00 0,00 31/05/2021
988 1061800 CARLOS HENRIQUE ALVES MOURAO ESTAGIARIO MONTES CLAROS; COORD REG PATRI PUB ORD TRIB-NORTE MINAS 0,00 0,00 0,00 189,00 0,00 0,00 0,00 0,00 0,00 31/05/2021
989 299300 CARLOS HENRIQUE BICALHO ANALISTA DO MP BELO HORIZONTE - COMARCA; BH-17PJ PATRIMONIO PUBLICO-SECRETARIA 1.198,00 769,39 519,00 0,00 975,18 0,00 0,00 0,00 89,39 31/05/2021
990 205100 CARLOS HENRIQUE ESTEVES OFICIAL DO MP ITAMBACURI - COMARCA; ITAMBACURI-PJ-01PJ 1.198,00 0,00 519,00 0,00 0,00 0,00 0,00 0,00 0,00 31/05/2021
991 351600 CARLOS HENRIQUE FELICIO DA FONSECA OFICIAL DO MP JUIZ DE FORA - COMARCA; JUIZ DE FORA-PJ-21PJ 1.198,00 0,00 519,00 0,00 0,00 0,00 0,00 0,00 0,00 31/05/2021
992 210900 CARLOS HENRIQUE TORRES DE SOUZA PROMOT.ENTRANC.ESPECIAL BELO HORIZONTE - COMARCA; BH-06PJ JUIZO CIVEL-GAB 055PJ 1.198,00 0,00 3.368,91 0,00 16.844,55 0,00 0,00 0,00 514,69 31/05/2021
993 104600 CARLOS JOSE E SILVA FORTES PROMOT.ENTRANC.ESPECIAL DIVINÓPOLIS - COMARCA; DIVINOPOLIS-PJ-06PJ 1.198,00 0,00 2.429,50 0,00 16.844,55 0,00 0,00 0,00 514,69 31/05/2021
994 656200 CARLOS JOSE GOMES ALVES 2O.TENENTE BELO HORIZONTE - COMARCA; NUCLEO DE OPERACOES DE SEGURANCA ORGANICA 1.198,00 0,00 0,00 0,00 0,00 0,00 0,00 0,00 0,00 31/05/2021
995 85400 CARLOS JOSE VIEIRA OFICIAL DO MP BELO HORIZONTE - COMARCA; DIRETORIA DO COLEGIO E DA CAMARA DE PJ 1.198,00 0,00 519,00 0,00 5.673,96 0,00 0,00 0,00 520,11 31/05/2021
996 1258400 CARLOS JUNIO FELIPE ESTAGIARIO UBA; UBA-PJ-05PJ 0,00 0,00 0,00 90,00 0,00 0,00 0,00 0,00 0,00 31/05/2021
997 1142200 CARLOS MARTINS DE OLIVEIRA JUNIOR ESTAGIARIO 0,00 0,00 0,00 36,00 0,00 0,00 0,00 0,00 0,00 31/05/2021
998 229100 CARLOS MERCES DE OLIVEIRA ANALISTA DO MP BELO HORIZONTE - COMARCA; CENTRAL DE APOIO TECN-SETOR DE MEIO AMBIENTE 1.198,00 0,00 519,00 0,00 0,00 0,00 0,00 0,00 0,00 31/05/2021
999 538300 CARLOS RANGEL SILVA DE MELO ANALISTA DO MP BELO HORIZONTE - COMARCA; DIVISAO DE CONTROLE IMOBILIARIO 1.198,00 769,39 519,00 0,00 0,00 0,00 0,00 0,00 0,00 31/05/2021
1000 265100 CARLOS REIFF MIRANDA ANALISTA DO MP BELO HORIZONTE - COMARCA; BH-19PJ SAUDE-SECRETARIA 150PJ 1.198,00 0,00 519,00 0,00 0,00 0,00 0,00 0,00 0,00 31/05/2021
1001 305400 CARLOS ROCHA DE SOUZA OFICIAL DO MP MONTALVÂNIA - COMARCA; MONTALVANIA-PJ-SECRETARIA 1.198,00 0,00 519,00 0,00 0,00 789,83 0,00 0,00 0,00 31/05/2021
1002 371600 CARLOS SAMUEL BORGES CUNHA PROMOT.ENTRANC.ESPECIAL MANHUAÇU - COMARCA; MANHUACU-PJ-05PJ 1.198,00 0,00 1.626,90 0,00 28.074,25 0,00 0,00 0,00 514,69 31/05/2021
1003 365100 CARLOS WAGNER SANDER MORAIS COORDENADOR/OFICIAL BELO HORIZONTE - COMARCA; DIRETORIA DE ADMINISTRACAO FINANCEIRA 1.198,00 0,00 519,00 0,00 0,00 0,00 0,00 0,00 0,00 31/05/2021
1004 1278600 CARLOS WAGNER VASCONCELOS REGO BARROS ESTAGIARIO SETE LAGOAS; SETE LAGOAS-PJ-SEC CRIMINAIS 0,00 0,00 0,00 72,00 0,00 0,00 0,00 0,00 0,00 31/05/2021
1005 293400 CARLOS WILDE RIBEIRO DE MELLO PROMOT.ENTRANC.ESPECIAL BARBACENA - COMARCA; BARBACENA-PJ-07PJ 1.198,00 0,00 2.603,04 0,00 5.614,85 0,00 0,00 0,00 514,69 31/05/2021
1006 1265300 CARMELITA DE ALMEIDA SOUZA ESTAGIARIO PRATAPOLIS; PRATAPOLIS-PJ-UNPJ 0,00 0,00 0,00 117,00 0,00 0,00 0,00 0,00 0,00 31/05/2021
1007 399900 CARMELITA EVANGELISTA DE SOUZA OFICIAL DO MP JOÃO PINHEIRO - COMARCA; JOAO PINHEIRO-PJ-01PJ 1.198,00 0,00 519,00 0,00 0,00 0,00 0,00 0,00 0,00 31/05/2021
1008 202000 CARMEN LUCIA MARIZ DE MACEDO OFICIAL DO MP BELO HORIZONTE - COMARCA; DIRETORIA GESTAO COMPRAS LICITACOES 1.198,00 0,00 519,00 0,00 5.028,83 0,00 0,00 0,00 460,98 31/05/2021
1009 1181900 CAROLINA ALVES GOMES ESTAGIARIO UBERABA; COORD REG SAUDE MACROR SANIT TRIANGULO SUL 0,00 0,00 0,00 45,00 0,00 0,00 0,00 0,00 0,00 31/05/2021
1010 359700 CAROLINA ANDRADE BORGES DE MATTOS PROMOTOR SUBSTITUTO BICAS - COMARCA; BICAS-PJ-UNPJ 1.198,00 0,00 2.212,58 0,00 5.067,40 0,00 0,00 0,00 464,51 31/05/2021
1011 1231300 CAROLINA BEDESCHI CALAIS ESTAGIARIO BELO HORIZONTE; BH-26 CRIME CONT CRIAN ADOL 0,00 0,00 0,00 135,00 0,00 0,00 0,00 0,00 0,00 31/05/2021
1012 1164100 CAROLINA CARDOSO DE OLIVEIRA ESTAGIARIO IPATINGA; IPATINGA-PJ-06PJ 0,00 0,00 0,00 63,00 0,00 0,00 0,00 0,00 0,00 31/05/2021
1013 701900 CAROLINA CARVALHO COSTA ASSESSOR PROCURADOR JUSTICA BELO HORIZONTE - COMARCA; GABINETE DE PROCURADOR DE JUSTIÇA - SALA 811 1.198,00 0,00 519,00 0,00 0,00 0,00 0,00 0,00 0,00 31/05/2021
1014 611000 CAROLINA CERIGATTO PROMOT.ENTRANC.ESPECIAL GOVERNADOR VALADARES - COMARCA; GOVERNADOR VALADARES-PJ-11PJ 1.198,00 0,00 0,00 0,00 5.614,85 0,00 0,00 0,00 514,69 31/05/2021
1015 228500 CAROLINA CHIARELLA DOS SANTOS RIBEIRO COORDENADOR/OFICIAL BELO HORIZONTE - COMARCA; DIVISAO TRANSPORTES 1.198,00 0,00 519,00 0,00 0,00 0,00 0,00 0,00 0,00 31/05/2021
1016 446500 CAROLINA COSTA VAL RODRIGUES ANALISTA DO MP CONTAGEM - COMARCA; CONTAGEM-PJ-05PJ 1.198,00 0,00 519,00 0,00 0,00 0,00 0,00 0,00 0,00 31/05/2021
1017 1198800 CAROLINA DINIZ MENDES ESTAGIARIO BELO HORIZONTE; BH-18PJ VIOLENCIA DOMESTICA-GAB 053PJ 0,00 0,00 0,00 99,00 0,00 0,00 0,00 0,00 0,00 31/05/2021
1018 603501 CAROLINA DOMINGOS BRANDAO RABELLO ANALISTA DO MP BARROSO - COMARCA; BARROSO-PJ-01PJ 1.198,00 0,00 519,00 0,00 0,00 0,00 0,00 0,00 0,00 31/05/2021
1019 404300 CAROLINA DOS SANTOS VIEIRA ANALISTA DO MP BELO HORIZONTE - COMARCA; BH-08PJ JUIZADO ESPECIAL-SECRETARIA 1.198,00 0,00 519,00 0,00 0,00 0,00 0,00 0,00 0,00 31/05/2021
1020 634600 CAROLINA FRARE LAMEIRINHA PROMOTOR 2A ENTRANCIA PATOS DE MINAS - COMARCA; COORD REG BACIAS PARACATU,URUCUIA E ABAETE 1.198,00 0,00 1.908,89 0,00 0,00 0,00 0,00 0,00 0,00 31/05/2021
1021 405401 CAROLINA GENTIL MEDEIROS MARQUEZ PROMOTOR SUBSTITUTO RIBEIRÃO DAS NEVES - COMARCA; RIBEIRAO DAS NEVES-PJ-11PJ 1.198,00 0,00 2.386,12 0,00 5.067,40 0,00 0,00 0,00 464,51 31/05/2021
1022 551200 CAROLINA LOPES ARANTES MASCARENHAS ANALISTA DO MP BELO HORIZONTE - COMARCA; EXTINTA-COORD EST DEF DIR FAM PES DEFIC IDOSO 1.198,00 769,39 519,00 0,00 0,00 0,00 0,00 0,00 0,00 31/05/2021
1023 1272000 CAROLINA LOPES DE PAULA ESTAGIARIO BELO HORIZONTE; PROC. JUSTICA CRIMINAL 0,00 0,00 0,00 9,00 0,00 0,00 0,00 0,00 0,00 31/05/2021
1024 622600 CAROLINA LOREDO LOPES CATIZANI OFICIAL DO MP RIBEIRÃO DAS NEVES - COMARCA; RIBEIRAO DAS NEVES-PJ-12PJ 1.198,00 0,00 519,00 0,00 0,00 0,00 0,00 0,00 0,00 31/05/2021
1025 1244000 CAROLINA MARIA DE ANDRADE RAMOS ESTAGIARIO GUARANI; GUARANI-PJ-UNPJ 0,00 0,00 0,00 99,00 0,00 0,00 0,00 0,00 0,00 31/05/2021
1026 362900 CAROLINA MARQUES ANDRADE PROMOTOR 2A ENTRANCIA FRUTAL - COMARCA; FRUTAL-PJ-01PJ 1.198,00 0,00 2.689,80 0,00 5.334,11 0,00 0,00 0,00 488,96 31/05/2021
1027 1192000 CAROLINA MARTINS AGUIAR ESTAGIARIO RIBEIRAO DAS NEVES; RIBEIRAO NEVES-SEC PJ EXECUCAO PENAL 0,00 0,00 0,00 99,00 0,00 0,00 0,00 0,00 0,00 31/05/2021
1028 457400 CAROLINA MELO CAMPOS PROMOTOR SUBSTITUTO RIBEIRÃO DAS NEVES - COMARCA; RIBEIRAO DAS NEVES-PJ-10PJ 1.198,00 0,00 759,22 0,00 8.107,84 0,00 0,00 0,00 464,51 31/05/2021
1029 382200 CAROLINA MENDES CHAVES LIN ANALISTA DO MP BELO HORIZONTE - COMARCA; BH-12PJ JUIZO CRIMINAL-GAB 088PJ 1.198,00 769,39 519,00 0,00 483,34 0,00 0,00 0,00 44,31 31/05/2021
1030 313600 CAROLINA MENDONCA DE SIQUEIRA PROMOT.ENTRANC.ESPECIAL BETIM - COMARCA; BETIM-PJ-08PJ 1.198,00 0,00 1.301,52 0,00 26.951,28 0,00 0,00 0,00 514,69 31/05/2021
1031 461900 CAROLINA MURTA TEIXEIRA DIAS ANALISTA DO MP BELO HORIZONTE - COMARCA; PROCURADORIA-GERAL ADJ ADM- SECRETARIA 1.198,00 0,00 519,00 0,00 0,00 0,00 0,00 0,00 0,00 31/05/2021
1032 1279400 CAROLINA OLIVEIRA SARDINHA ESTAGIARIO BELO HORIZONTE; DIRETORIA DE PAGAMENTO DE PESSOAL-DPAG 0,00 0,00 0,00 126,00 0,00 0,00 0,00 0,00 0,00 31/05/2021
1033 1193900 CAROLINA PEREIRA VIEIRA ESTAGIARIO BELO HORIZONTE; PROC. JUSTICA CRIMINAL 0,00 0,00 0,00 99,00 0,00 0,00 0,00 0,00 0,00 31/05/2021
1034 509600 CAROLINA PINTO DE OLIVEIRA SOUZA ANALISTA DO MP MURIAÉ - COMARCA; MURIAE-PJ-01PJ 1.198,00 769,39 519,00 0,00 2.215,32 0,00 0,00 0,00 203,07 31/05/2021
1035 526400 CAROLINA QUEIROZ DE CARVALHO PROMOT.ENTRANC.ESPECIAL CONSELHEIRO LAFAIETE - COMARCA; CONSELHEIRO LAFAIETE-PJ-02PJ 1.198,00 0,00 0,00 0,00 0,00 0,00 0,00 0,00 0,00 31/05/2021
1036 1262200 CAROLINA RIBAS ESTAGIARIO BELO HORIZONTE; EXTINTA-COORD EST DEF DIR FAM PES DEFIC IDOSO 0,00 0,00 0,00 45,00 0,00 0,00 0,00 0,00 0,00 31/05/2021
1037 1200500 CAROLINA RIBEIRO DOS SANTOS ESTAGIARIO BELO HORIZONTE; BH-08PJ JUIZADO ESPECIAL-GAB 067PJ 0,00 0,00 0,00 189,00 0,00 0,00 0,00 0,00 0,00 31/05/2021
1038 667000 CAROLINA RITA TORRES GRUBER PROMOTOR 2A ENTRANCIA SÃO FRANCISCO - COMARCA; SAO FRANCISCO-PJ-01PJ 1.198,00 0,00 1.431,66 0,00 5.334,11 0,00 0,00 0,00 488,96 31/05/2021
1039 629100 CAROLINA RODRIGUES AMARAL ANALISTA DO MP BELO HORIZONTE - COMARCA; PROC. JUSTICA DIR. DIFUSOS E COLETIVOS-SEC 1.198,00 0,00 519,00 0,00 0,00 0,00 0,00 0,00 0,00 31/05/2021
1040 502600 CAROLINA RODRIGUES RUBEN ANALISTA DO MP BELO HORIZONTE - COMARCA; BH-18PJ VIOLENCIA DOMESTICA-SECRETARIA 1.198,00 1.538,78 519,00 0,00 0,00 0,00 0,00 0,00 0,00 31/05/2021
1041 1045600 CAROLINA SANTOS FERREIRA DE LEMOS ESTAGIARIO BELO HORIZONTE; BH-02PJ FAMILIA-SECRETARIA 0,00 0,00 0,00 9,00 0,00 0,00 0,00 0,00 0,00 31/05/2021
1042 1176700 CAROLINA SOUZA ALVES ESTAGIARIO SABARA; SABARA-PJ-03PJ 0,00 0,00 0,00 126,00 0,00 0,00 0,00 0,00 0,00 31/05/2021
1043 1032800 CAROLINA STEFANE SILVA MOREIRA ESTAGIARIO VESPASIANO; VESPASIANO-PJ-06PJ 0,00 0,00 0,00 9,00 0,00 0,00 0,00 0,00 0,00 31/05/2021
1044 1144200 CAROLINA TEIXEIRA SILVA ESTAGIARIO ARINOS; ARINOS-PJ-UNPJ 0,00 0,00 0,00 54,00 0,00 0,00 0,00 0,00 0,00 31/05/2021
1045 1261000 CAROLINA VALADARES TANTIKITMANEE ESTAGIARIO BELO HORIZONTE; DIRETORIA DE PRODUCAO EDITORIAL
1046 529600 CAROLINA VAZ DE MELO MAMBRINI ANALISTA DO MP BELO HORIZONTE - COMARCA; BH-14PJ DEFESA CONSUMIDOR-GAB 005PJ 1.198,00 0,00 519,00 0,00 0,00 0,00 0,00 0,00 0,00 31/05/2021
1047 619100 CAROLINA ZAKHIA NARDELLI RODRIGUES ANALISTA DO MP NEPOMUCENO - COMARCA; NEPOMUCENO-PJ-UNPJ 1.198,00 769,39 519,00 0,00 0,00 0,00 0,00 0,00 0,00 31/05/2021
1048 517600 CAROLINE ALVES DE OLIVEIRA MULLER ANALISTA DO MP VISCONDE DO RIO BRANCO - COMARCA; VISCONDE DO RIO BRANCO-PJ-01PJ 1.198,00 769,39 519,00 0,00 0,00 0,00 0,00 0,00 0,00 31/05/2021
1049 373200 CAROLINE ANTUNES RIBEIRO OFICIAL DO MP JACUI - COMARCA; JACUI-PJ-UNPJ 1.198,00 0,00 519,00 0,00 0,00 0,00 0,00 0,00 0,00 31/05/2021
1050 1084100 CAROLINE APARECIDA MENDES ESTAGIARIO UBERLANDIA; UBERLANDIA-PJ-04PJ 0,00 0,00 0,00 135,00 0,00 0,00 0,00 0,00 0,00 31/05/2021
1051 1201600 CAROLINE APARECIDA SOARES FERREIRA ESTAGIARIO ITAJUBA; ITAJUBA-PJ-01PJ 0,00 0,00 0,00 81,00 0,00 0,00 0,00 0,00 0,00 31/05/2021
1052 556800 CAROLINE DE SOUZA CARDOSO DOMINGUES OFICIAL DO MP BRASÍLIA DE MINAS - COMARCA; BRASILIA DE MINAS-PJ-02PJ 1.198,00 0,00 519,00 0,00 0,00 0,00 0,00 0,00 0,00 31/05/2021
1053 1143700 CAROLINE ESTEVES DE CARVALHO ESTAGIARIO 0,00 0,00 0,00 108,00 0,00 0,00 0,00 0,00 0,00 31/05/2021
1054 499400 CAROLINE MARQUES DE LOURDES MARZULLO OFICIAL DO MP JUIZ DE FORA - COMARCA; JUIZ DE FORA-PJ-08PJ 1.198,00 1.153,54 519,00 0,00 0,00 0,00 0,00 0,00 0,00 31/05/2021
1055 616800 CAROLINE MONTEIRO DE BARROS ANALISTA DO MP CONTAGEM - COMARCA; CONTAGEM-PJ-11PJ 1.198,00 0,00 519,00 0,00 0,00 0,00 0,00 0,00 0,00 31/05/2021
1056 342500 CAROLINE PESTANA GOMES PROMOT.ENTRANC.ESPECIAL VESPASIANO - COMARCA; VESPASIANO-PJ-06PJ 1.198,00 0,00 1.301,52 0,00 5.614,85 0,00 0,00 0,00 514,69 31/05/2021
1057 1079200 CAROLINE REVERT OLIVEIRA SOARES ESTAGIARIO JANUARIA; JANUARIA-PJ-02PJ 0,00 0,00 0,00 126,00 0,00 0,00 0,00 0,00 72,30 31/05/2021
1058 1093400 CAROLINE SILVA ARAUJO ESTAGIARIO BELO HORIZONTE; DIVISAO DE MANUTENCAO PREDIAL
1059 618100 CAROLINE VASCONCELOS COSTA LANZA ANALISTA DO MP PARAOPEBA - COMARCA; PARAOPEBA-PJ-UNPJ 1.198,00 2.308,17 519,00 0,00 0,00 0,00 0,00 0,00 0,00 31/05/2021
1060 1253900 CAROLINNY MARTINS DE OLIVEIRA ESTAGIARIO BELO HORIZONTE; DIRET DE ESTAGIOS E CONVENIOS ACADEMICOS
1061 699000 CAROLLINA RODRIGUES SOUTO AMARAL ASSESSOR PROCURADOR JUSTICA BELO HORIZONTE - COMARCA; GABINETE DE PROCURADOR DE JUSTIÇA - SALA 405 1.198,00 0,00 519,00 0,00 0,00 0,00 0,00 0,00 0,00 31/05/2021
1062 210600 CASSANDRA DA CONCEICAO DANTAS SERRAO PROMOT.ENTRANC.ESPECIAL BELO HORIZONTE - COMARCA; BH-02PJ FAMILIA-GAB 026PJ 1.198,00 0,00 1.778,74 0,00 11.229,70 0,00 0,00 0,00 0,00 31/05/2021
1063 604000 CASSIA APARECIDA DA SILVA OFICIAL DO MP PARACATU - COMARCA; PARACATU-PJ-01PJ 1.198,00 0,00 519,00 0,00 0,00 0,00 0,00 0,00 0,00 31/05/2021
1064 268800 CASSIA BEATRIZ TEIXEIRA OFICIAL DO MP BELO HORIZONTE - COMARCA; PROC JUST ESP ACOES COMP ORIG CRIMINAL-SEC 1.198,00 0,00 519,00 0,00 0,00 0,00 0,00 0,00 0,00 31/05/2021
1065 500000 CASSIA DE OLIVEIRA COSTA VIANA ANALISTA DO MP SETE LAGOAS - COMARCA; SETE LAGOAS-PJ-09PJ 1.198,00 0,00 519,00 0,00 0,00 0,00 0,00 0,00 0,00 31/05/2021
1066 1026900 CASSIA DOS REIS SILVA ESTAGIARIO NOVA LIMA; NOVA LIMA-PJ-02PJ 0,00 0,00 0,00 36,00 0,00 0,00 0,00 0,00 0,00 31/05/2021
1067 368800 CASSIA LUISA BATISTA MENDONCA WEBER OFICIAL DO MP BELO HORIZONTE - COMARCA; DIVISÃO DE EDUCAÇÃO PARA O CONSUMO 1.198,00 0,00 519,00 0,00 0,00 0,00 0,00 0,00 0,00 31/05/2021
1068 622200 CASSIA VAZ DE AZEVEDO LISBOA MARZANO ASSESSOR BELO HORIZONTE - COMARCA; CGMP-SECRETARIA DA CORREGEDORIA-GERAL DO MP 1.198,00 769,39 519,00 0,00 0,00 0,00 0,00 0,00 0,00 31/05/2021
1069 156100 CASSIA VIRGINIA SERRA TEIXEIRA GONTIJO PROCURADOR DE JUSTICA BELO HORIZONTE - COMARCA; GABINETE DE PROCURADOR DE JUSTIÇA - SALA 514 1.198,00 0,00 2.494,58 0,00 17.731,11 0,00 0,00 0,00 541,78 31/05/2021
1070 971100 CASSIANO QUEIROZ AVELAR SILVEIRA ESTAGIARIO PASSOS; PASSOS-PJ-05PJ 0,00 0,00 0,00 36,00 1.446,00 0,00 0,00 0,00 0,00 31/05/2021
1071 121000 CASSIO HENRIQUE AFONSO DA SILVA OFICIAL DO MP BELO HORIZONTE - COMARCA; CGMP-ASSESSORIA JURIDICA 1.198,00 0,00 519,00 0,00 5.119,08 0,00 0,00 0,00 469,25 31/05/2021
1072 512001 CATARINA NATALINO CALIXTO COORDENADOR/ANALISTA BELO HORIZONTE - COMARCA; DIRETORIA GESTAO TRANSPORTES 1.198,00 0,00 519,00 0,00 0,00 0,00 0,00 0,00 0,00 31/05/2021
1073 606200 CATARINE DE SIQUEIRA DE QUADROS ANALISTA DO MP RIBEIRÃO DAS NEVES - COMARCA; RIBEIRAO DAS NEVES-PJ-02PJ 1.198,00 0,00 519,00 0,00 0,00 0,00 0,00 0,00 0,00 31/05/2021
1074 622300 CECILIA APARECIDA PEREIRA ASSUNCAO OFICIAL DO MP TRÊS PONTAS - COMARCA; TRES PONTAS-PJ-SECRETARIA 1.198,00 1.538,78 519,00 0,00 0,00 0,00 0,00 0,00 0,00 31/05/2021
1075 538000 CECILIA FONTES DE MATOS PIMENTEL ANALISTA DO MP PALMA - COMARCA; PALMA-PJ-UNPJ 1.198,00 769,39 519,00 0,00 0,00 0,00 0,00 0,00 0,00 31/05/2021
1076 261300 CECILIO ANTONIO CAMPOS DOS REIS ANALISTA DO MP BELO HORIZONTE - COMARCA; AUDITORIA INTERNA 1.198,00 0,00 519,00 0,00 941,38 0,00 0,00 0,00 86,29 31/05/2021
1077 386400 CEFAS AMORELI DE FIGUEIREDO OFICIAL DO MP CABO VERDE - COMARCA; CABO VERDE-PJ-SECRETARIA 1.198,00 0,00 519,00 0,00 0,00 0,00 0,00 0,00 0,00 31/05/2021
1078 105600 CELIA BEATRIZ GOMES DOS SANTOS PROCURADOR DE JUSTICA BELO HORIZONTE - COMARCA; PROC JUSTICA DIR DIFUSOS E COLETIVOS-GAB006 1.198,00 0,00 1.713,66 0,00 5.910,37 0,00 0,00 0,00 541,78 31/05/2021
1079 149000 CELIA MAGALHAES CLAROS SOSSI OFICIAL DO MP GOVERNADOR VALADARES - COMARCA; GAECO REGIONAL DE GOVERNADOR VALADARES 1.198,00 0,00 519,00 0,00 5.695,28 0,00 0,00 0,00 522,07 31/05/2021
1080 421000 CELINA BENEDITA DE SOUZA ALMEIDA OFICIAL DO MP CAMBUÍ - COMARCA; CAMBUI-PJ-01PJ 1.198,00 0,00 519,00 0,00 0,00 0,00 0,00 0,00 0,00 31/05/2021
1081 252900 CELIO DE MELO CASTOR ANALISTA DO MP BELO HORIZONTE - COMARCA; BH-02PJ FAMILIA-SECRETARIA 1.198,00 0,00 519,00 0,00 0,00 0,00 0,00 0,00 0,00 31/05/2021
1082 486300 CELIO DIMAS ESTEVES RUAS PROMOT.ENTRANC.ESPECIAL CORONEL FABRICIANO - COMARCA; CORONEL FABRICIANO-PJ-02PJ 1.198,00 0,00 2.017,35 0,00 5.614,85 0,00 0,00 0,00 514,69 31/05/2021
1083 395700 CELIO FERREIRA LIMA OFICIAL DO MP CONTAGEM - COMARCA; CONTAGEM-PJ-SECRETARIA 1.198,00 769,39 519,00 0,00 0,00 0,00 0,00 0,00 0,00 31/05/2021
1084 281300 CELMA REGINA PEREIRA SANTOS ANALISTA DO MP BELO HORIZONTE - COMARCA; PROMOT ESTADUAL DE DEF PATRI CULT E TUR DE MG 1.198,00 0,00 519,00 0,00 0,00 0,00 0,00 0,00 0,00 31/05/2021
1085 535600 CELSO MEDEIROS DE PAIVA OFICIAL DO MP RIO PRETO - COMARCA; RIO PRETO-PJ-SECRETARIA 1.198,00 0,00 519,00 0,00 0,00 0,00 0,00 0,00 0,00 31/05/2021
1086 157700 CELSO PENNA FERNANDES JUNIOR PROMOT.ENTRANC.ESPECIAL BELO HORIZONTE - COMARCA; BH-23PJ CIVEL-GAB 162PJ 1.198,00 0,00 2.494,58 0,00 16.844,55 0,00 0,00 0,00 514,69 31/05/2021
1087 93700 CESAR ANTONIO COSSI PROCURADOR DE JUSTICA BELO HORIZONTE - COMARCA; GABINETE DE PROCURADOR DE JUSTIÇA - SALA 805 1.198,00 0,00 2.603,04 0,00 5.910,37 0,00 0,00 0,00 541,78 31/05/2021
1088 293100 CESAR ANTONIO DE LIMA PROMOT.ENTRANC.ESPECIAL VARGINHA - COMARCA; VARGINHA-PJ-04PJ 1.198,00 0,00 2.646,42 0,00 16.844,55 0,00 0,00 0,00 514,69 31/05/2021
1089 293800 CESAR AUGUSTO DOS SANTOS PROMOT.ENTRANC.ESPECIAL BELO HORIZONTE - COMARCA; BH-12PJ JUIZO CRIMINAL-GAB 091PJ 1.198,00 0,00 867,68 0,00 11.229,70 0,00 0,00 0,00 0,00 31/05/2021
1090 367000 CESAR NARVAES DE AVELAR COORDENADOR/OFICIAL BELO HORIZONTE - COMARCA; DIVISAO DE MEMORIA INSTITUCIONAL 1.198,00 0,00 519,00 0,00 0,00 0,00 0,00 0,00 0,00 31/05/2021
1091 226500 CESAR SILVEIRA BARROUIN OFICIAL DO MP BELO HORIZONTE - COMARCA; DIRETORIA DE ADMINISTRACAO FINANCEIRA 1.198,00 0,00 519,00 0,00 0,00 0,00 0,00 0,00 0,00 31/05/2021
1092 293500 CESAR YOSHIKAWA PROMOT.ENTRANC.ESPECIAL BELO HORIZONTE - COMARCA; BH-12PJ JUIZO CRIMINAL-GAB 083PJ 1.198,00 0,00 2.342,73 0,00 5.614,85 0,00 0,00 0,00 514,69 31/05/2021
1093 1125600 CEZAR AUGUSTO RANGEL MARQUES ESTAGIARIO JUIZ DE FORA; JUIZ DE FORA-PJ-22PJ
1094 121400 CEZAR MORENO CONCEICAO TAVARES OFICIAL DO MP BELO HORIZONTE - COMARCA; COORD DE INCLUSAO E MOBILIZACAO SOCIAIS 1.198,00 769,39 519,00 0,00 5.695,28 0,00 0,00 0,00 522,07 31/05/2021
1095 1175900 CHARLENE MARISE DA SILVA ESTAGIARIO ESMERALDAS; ESMERALDAS-PJ-02PJ 0,00 0,00 0,00 99,00 0,00 0,00 0,00 0,00 0,00 31/05/2021
1096 664100 CHARLES BARBOSA DA SILVA 3O.SARGENTO BELO HORIZONTE - COMARCA; NUCLEO DE OPERACOES DE SEGURANCA DE PESSOAL 1.198,00 0,00 0,00 0,00 0,00 0,00 0,00 0,00 0,00 31/05/2021
1097 210400 CHARLES DANIEL FRANCA SALOMAO PROMOT.ENTRANC.ESPECIAL PARÁ DE MINAS - COMARCA; PARA DE MINAS-PJ-02PJ 1.198,00 0,00 1.778,74 0,00 11.229,70 0,00 0,00 0,00 0,00 31/05/2021
1098 669200 CHARLES HENRIQUE SQUARCIO CABO BELO HORIZONTE - COMARCA; GAECO - SECRETARIA 1.198,00 0,00 0,00 0,00 0,00 0,00 0,00 0,00 0,00 31/05/2021
1099 243800 CHARLES MARTINS MUNIZ OFICIAL DO MP BELO HORIZONTE - COMARCA; LAB TECNOLOGIA CONTRA LAVAGEM DINHEIRO 1.198,00 0,00 0,00 0,00 0,00 0,00 0,00 0,00 0,00 31/05/2021
1100 193500 CHARLIN CESAR KOURLY OFICIAL DO MP ARAGUARI - COMARCA; ARAGUARI-PJ-07PJ 1.198,00 0,00 519,00 0,00 0,00 0,00 0,00 0,00 0,00 31/05/2021
1101 385500 CHILLEN PEIXOTO DE MOURA OFICIAL DO MP BELO HORIZONTE - COMARCA; DIVISÃO DE FISCALIZAÇÃO DAS RELAÇÕES DE CONSU 1.198,00 0,00 519,00 0,00 0,00 0,00 0,00 0,00 0,00 31/05/2021
1102 1003500 CHRISTIAN ALEXANDRE DA SILVA PEREIRA ESTAGIARIO SANTA LUZIA; SANTA LUZIA-PJ-03PJ 0,00 0,00 0,00 0,00 724,00 0,00 0,00 0,00 0,00 31/05/2021
1103 1281400 CHRISTIAN COELHO BARBOSA ESTAGIARIO BELO HORIZONTE; DIRETORIA DE PRODUCAO EDITORIAL
1104 534500 CHRISTIAN DOUGLAS BRITO RUAS OFICIAL DO MP SÃO JOÃO DA PONTE - COMARCA; SAO JOAO DA PONTE-PJ-SECRETARIA 1.198,00 0,00 519,00 0,00 0,00 0,00 0,00 0,00 0,00 31/05/2021
1105 370600 CHRISTIAN KARINE FELIX PRATES ASSESSOR BELO HORIZONTE - COMARCA; SUPRIN DE PLANEJAMENTO E COORDENACAO 1.198,00 0,00 519,00 0,00 0,00 0,00 0,00 0,00 0,00 31/05/2021
1106 1073800 CHRISTIAN RODRIGUES FRAGA DA SILVA ESTAGIARIO BELO HORIZONTE; SUPERINTENDÊNCIA DE ENGENHARIA E ARQUITETURA 0,00 0,00 0,00 27,00 0,00 0,00 0,00 0,00 0,00 31/05/2021
1107 435800 CHRISTIANA BAHIA ANDRADE PINA ANALISTA DO MP BELO HORIZONTE - COMARCA; LABORATORIO TECNOLOGIA INTELIGENCIA 1.198,00 769,39 519,00 0,00 0,00 0,00 0,00 0,00 0,00 31/05/2021
1108 516800 CHRISTIANE FERREIRA DO NASCIMENTO ANALISTA DO MP POUSO ALEGRE - COMARCA; POUSO ALEGRE-PJ-08PJ 1.198,00 0,00 519,00 0,00 0,00 0,00 0,00 0,00 0,00 31/05/2021
1109 176000 CHRISTIANE JUNQUEIRA PULITI ANDRADE DE BARROS ASSESSOR BELO HORIZONTE - COMARCA; PROCURADORIA-GERAL ADJUNTA INSTITUCIONAL 1.198,00 0,00 519,00 0,00 12.018,78 0,00 0,00 0,00 1.101,72 31/05/2021
1110 319200 CHRISTIANE MARIA DE ASSIS RUSSO OFICIAL DO MP BELO HORIZONTE - COMARCA; CAO-ORDEM ECONOMICA E TRIBUTARIA-SECRETARIA 1.198,00 0,00 519,00 0,00 0,00 0,00 0,00 0,00 0,00 31/05/2021
1111 510300 CHRISTIANE MARY DE CARVALHO FERREIRA ANALISTA DO MP BELO HORIZONTE - COMARCA; DIRETORIA DE SISTEMAS DE INFORMACAO 1.198,00 0,00 519,00 0,00 0,00 0,00 0,00 0,00 0,00 31/05/2021
1112 424900 CHRISTIANE PEREIRA TURNER DE ARAUJO OFICIAL DO MP BELO HORIZONTE - COMARCA; CAO-PATRIMONIO PUBLICO 1.198,00 769,39 519,00 0,00 0,00 0,00 0,00 0,00 0,00 31/05/2021
1113 513700 CHRISTIANE VIEIRA SOARES PEDERSOLI ASSESSOR/ANALISTA BELO HORIZONTE - COMARCA; ASSESSORIA JURIDICA DO PROCON-MG 1.198,00 795,04 519,00 0,00 0,00 0,00 0,00 0,00 0,00 31/05/2021
1114 163300 CHRISTIANNE COTRIM ASSAD BENSOUSSAN PROMOT.ENTRANC.ESPECIAL BELO HORIZONTE - COMARCA; BH-12PJ JUIZO CRIMINAL-GAB 087PJ 1.198,00 0,00 2.689,80 0,00 5.614,85 0,00 0,00 0,00 514,69 31/05/2021
1115 371400 CHRISTIANO LEONARDO GONZAGA GOMES PROMOTOR 2A ENTRANCIA SABARÁ - COMARCA; SABARA-PJ-02PJ 1.198,00 0,00 1.301,52 0,00 5.334,11 0,00 0,00 0,00 488,96 31/05/2021
1116 412300 CHRYSTIAN MACHADO RIBEIRO ANALISTA DO MP VARGINHA - COMARCA; VARGINHA-PJ-04PJ 1.198,00 0,00 519,00 0,00 0,00 0,00 0,00 0,00 0,00 31/05/2021
1117 513800 CHRYSTIANE DO NASCIMENTO DE MAGALHAES OFICIAL DO MP UBERLÂNDIA - COMARCA; UBERLANDIA-PJ-10PJ 1.198,00 0,00 519,00 0,00 0,00 0,00 0,00 0,00 0,00 31/05/2021
1118 497900 CIBELE DE FREITAS SANCHES DIAS ANALISTA DO MP SABARÁ - COMARCA; SABARA-PJ-03PJ 1.198,00 0,00 519,00 0,00 5.759,82 0,00 0,00 0,00 527,98 31/05/2021
1119 500900 CIBELLE SILVA PRADO ALVARENGA ANALISTA DO MP ITANHANDU - COMARCA; ITANHANDU-PJ-UNPJ 1.198,00 1.538,78 519,00 0,00 0,00 0,00 0,00 0,00 0,00 31/05/2021
1120 1135700 CIBELLY OLIVEIRA SOARES ESTAGIARIO TEOFILO OTONI; TEOFILO OTONI-PJ-07PJ
1121 1271700 CINARA DE CAMPOS ESTEVES ESTAGIARIO CURVELO; CURVELO-PJ-03PJ 0,00 0,00 0,00 189,00 0,00 0,00 0,00 0,00 0,00 31/05/2021
1122 1131800 CINDY KEILA VILELA ESTAGIARIO LAVRAS; LAVRAS-PJ-06PJ 0,00 0,00 0,00 45,00 0,00 0,00 0,00 0,00 0,00 31/05/2021
1123 1163000 CINTHIA GONCALVES CAVALINI ESTAGIARIO UBERABA; UBERABA-PJ-11PJ 0,00 0,00 0,00 180,00 0,00 0,00 0,00 0,00 0,00 31/05/2021
1124 296400 CINTIA APARECIDA MOREIRA NAVES E RODRIGUES ANALISTA DO MP CAMPO BELO - COMARCA; CAMPO BELO-PJ-02PJ 1.198,00 0,00 519,00 0,00 905,52 0,00 0,00 0,00 83,01 31/05/2021
1125 171200 CINTIA MARIA OLIVEIRA DE LUCENA PROMOT.ENTRANC.ESPECIAL BELO HORIZONTE - COMARCA; BH-23PJ INFRACIONAL-GAB 144PJ 1.198,00 0,00 1.865,50 0,00 5.614,85 0,00 0,00 0,00 514,69 31/05/2021
1126 1209800 CINTIA MOREIRA SILVA ESTAGIARIO BELO VALE; BELO VALE-PJ-UNPJ 0,00 0,00 0,00 180,00 0,00 0,00 0,00 0,00 0,00 31/05/2021
1127 407900 CINTIA NETO COMELLI ANALISTA DO MP BELO HORIZONTE - COMARCA; CENTRAL DE APOIO TECNICO-SETOR CONTABIL 1.198,00 769,39 519,00 0,00 0,00 0,00 0,00 0,00 0,00 31/05/2021
1128 304700 CINTIA QUEIROZ OFICIAL DO MP BELO HORIZONTE - COMARCA; OUVIDORIA DO MPMG 1.198,00 0,00 519,00 0,00 1.570,86 0,00 0,00 0,00 144,00 31/05/2021
1129 163000 CINTIA ROBERTA GOMES DE LIMA PROMOTOR 2A ENTRANCIA VARGINHA - COMARCA; COORD REG PJ DEF EDUC DIR CRIANCA ADOL SUL 1.198,00 0,00 1.778,74 0,00 5.334,11 0,00 0,00 0,00 488,96 31/05/2021
1130 286100 CIRO CANGUSSU CORDEIRO OFICIAL DO MP IPATINGA - COMARCA; IPATINGA-PJ-09PJ 1.198,00 0,00 519,00 0,00 0,00 0,00 0,00 0,00 0,00 31/05/2021
1131 689900 CISSA NOGUEIRA NUNES ASSESSOR PROCURADOR JUSTICA BELO HORIZONTE - COMARCA; GABINETE DE PROCURADOR DE JUSTIÇA - SALA 608 1.198,00 0,00 519,00 0,00 0,00 0,00 0,00 0,00 0,00 31/05/2021
1132 1086300 CLARA ALEXANDRINA DOS SANTOS ESTAGIARIO BETIM; BETIM-PJ-13PJ
1133 1185600 CLARA DE SALES DUARTE ESTAGIARIO BELO HORIZONTE; PROC. JUSTICA CRIMINAL 0,00 0,00 0,00 54,00 0,00 0,00 0,00 0,00 0,00 31/05/2021
1134 681700 CLARA FERREIRA ALKIMIM ASSESSOR PROMOTOR JUSTICA ARAÇUAÍ - COMARCA; ARACUAI-PJ-01PJ 1.198,00 0,00 519,00 0,00 0,00 0,00 0,00 0,00 0,00 31/05/2021
1135 1163800 CLARA GABRIELA GOUVEIA MONTEIRO ESTAGIARIO BELO HORIZONTE; BH-18PJ VIOLENCIA DOMESTICA 0,00 0,00 0,00 90,00 0,00 0,00 0,00 0,00 0,00 31/05/2021
1136 1157100 CLARA ISABELLE SOUSA FARIA ESTAGIARIO BELO HORIZONTE; PROC. JUSTICA DE HABEAS CORPUS
1137 1095900 CLARA LAENDER GAZZINELLI ESTAGIARIO BELO HORIZONTE; PROC. JUSTICA DE HABEAS CORPUS
1138 1261100 CLARA LIMA LIPOVETSKY ESTAGIARIO BELO HORIZONTE; CORREGEDORIA-GERAL
1139 484900 CLARA MARIA HOEHNE SEPULVEDA PROMOT.ENTRANC.ESPECIAL SETE LAGOAS - COMARCA; SETE LAGOAS-PJ-09PJ 1.198,00 0,00 3.067,96 0,00 16.844,55 0,00 0,00 0,00 514,69 31/05/2021
1140 1157800 CLARA MARIA RODRIGUES DA SILVA ESTAGIARIO BELO HORIZONTE; BH-08PJ JUIZADO ESPECIAL-GAB 071PJ 0,00 0,00 0,00 81,00 0,00 0,00 0,00 0,00 0,00 31/05/2021
1141 695500 CLARA RODRIGUES BLACH ASSESSOR PROCURADOR JUSTICA BELO HORIZONTE - COMARCA; GABINETE DE PROCURADOR DE JUSTIÇA - SALA 1003 1.198,00 0,00 519,00 0,00 0,00 0,00 0,00 0,00 0,00 31/05/2021
1142 412500 CLARICE GOMES MAROTTA ANALISTA DO MP BELO HORIZONTE - COMARCA; COORD ESTADUAL DE DEFESA DOS ANIMAIS 1.198,00 0,00 519,00 0,00 0,00 0,00 0,00 0,00 0,00 31/05/2021
1143 1005900 CLARICE GUIMARAES RABELLO ESTAGIARIO BELO HORIZONTE; DIVISAO DE MEMORIA INSTITUCIONAL
1144 1134500 CLARISSA ALVES DA SILVA ESTAGIARIO TEOFILO OTONI; TEOFILO OTONI-PJ-05PJ 0,00 0,00 0,00 153,00 0,00 0,00 0,00 0,00 0,00 31/05/2021
1145 605300 CLARISSA AZEVEDO ROCHA OFICIAL DO MP BELO HORIZONTE - COMARCA; DIRET DE DESENV DE RECURSOS HUMANOS-DDRH 1.198,00 0,00 519,00 0,00 0,00 0,00 0,00 0,00 0,00 31/05/2021
1146 1059700 CLARISSA BRANDAO FREITAS ESTAGIARIO BELO HORIZONTE; BH-07PJ 01 TRIBUNAL JURI-SECRETARIA 0,00 0,00 0,00 108,00 0,00 0,00 0,00 0,00 0,00 31/05/2021
1147 308100 CLARISSA DUARTE BELLONI DIRETOR/ANALISTA BELO HORIZONTE - COMARCA; DIRETORIA-GERAL 1.198,00 2.307,08 519,00 0,00 5.137,15 0,00 0,00 0,00 470,91 31/05/2021
1148 402100 CLARISSA GOBBO DOS SANTOS PROMOT.ENTRANC.ESPECIAL RIBEIRÃO DAS NEVES - COMARCA; RIBEIRAO DAS NEVES-PJ-04PJ 1.198,00 0,00 3.368,91 0,00 6.737,82 0,00 0,00 0,00 514,69 31/05/2021
1149 1020500 CLARISSA MATEUS LAVARINI CALAZANS ESTAGIARIO SETE LAGOAS; SETE LAGOAS-PJ-01PJ 0,00 0,00 0,00 126,00 0,00 0,00 0,00 0,00 0,00 31/05/2021
1150 497100 CLARISSA ROCHA GUIDI ANALISTA DO MP BELO HORIZONTE - COMARCA; BH-02PJ FAMILIA-SECRETARIA 1.198,00 1.538,78 519,00 0,00 0,00 0,00 0,00 0,00 0,00 31/05/2021
1151 661600 CLARISSE PEREZ DO NASCIMENTO NASCIF MENDES PROMOTOR 1A ENTRANCIA PIRANGA - COMARCA; PIRANGA-PJ-UNPJ 1.198,00 0,00 3.040,44 0,00 15.202,21 0,00 0,00 0,00 464,51 31/05/2021
1152 641800 CLARISSE TAVARES GONCALVES OFICIAL DO MP BELO HORIZONTE - COMARCA; BH-07PJ 01 TRIBUNAL JURI-SECRETARIA 1.198,00 0,00 519,00 0,00 0,00 0,00 0,00 0,00 0,00 31/05/2021
1153 463700 CLAUDIA ADRIANA FERRAO DIAS ANALISTA DO MP SETE LAGOAS - COMARCA; SETE LAGOAS-PJ-06PJ 1.198,00 0,00 519,00 0,00 0,00 0,00 0,00 0,00 0,00 31/05/2021
1154 415400 CLAUDIA ALMEIDA DE VASCONCELLOS BARROS ASSESSOR/OFICIAL BELO HORIZONTE - COMARCA; DIVISAO DE SERVICOS 1.198,00 0,00 519,00 0,00 0,00 0,00 0,00 0,00 0,00 31/05/2021
1155 207000 CLAUDIA APARECIDA VILELA MACHADO ANALISTA DO MP BELO HORIZONTE - COMARCA; CENTRAL DE APOIO TECNICO-SETOR CONTABIL 1.198,00 0,00 519,00 0,00 5.269,64 0,00 0,00 0,00 483,05 31/05/2021
1156 314400 CLAUDIA AUGUSTA LOPES DE MENDONCA PROMOT.ENTRANC.ESPECIAL BELO HORIZONTE - COMARCA; BH-09PJ AUDITORIA MILITAR-GAB 074PJ 1.198,00 0,00 2.646,42 0,00 20.213,46 0,00 0,00 0,00 514,69 31/05/2021
1157 365700 CLAUDIA BREGUEZ CUNHA ANALISTA DO MP VARGINHA - COMARCA; VARGINHA-PJ-07PJ 1.198,00 0,00 519,00 0,00 0,00 0,00 0,00 0,00 0,00 31/05/2021
1158 430500 CLAUDIA CECILIA SANTANA VENCESLAU OFICIAL DO MP BELO HORIZONTE - COMARCA; DIR ANALISES TECNOLOGIA INTELIGENCIA 1.198,00 0,00 519,00 0,00 0,00 0,00 0,00 0,00 0,00 31/05/2021
1159 112400 CLAUDIA CRISTINA FIUZA DE AVELAR AGENTE DO MP BELO HORIZONTE - COMARCA; SERVICO MEDICO-DEPTO PERIC MEDICA SAUDE OCUP 1.198,00 0,00 519,00 0,00 0,00 0,00 0,00 0,00 0,00 31/05/2021
1160 98300 CLAUDIA DE OLIVEIRA IGNEZ PROMOTOR 2A ENTRANCIA NOVA LIMA - COMARCA; NOVA LIMA-PJ-01PJ 1.198,00 0,00 1.193,06 0,00 16.002,33 0,00 0,00 0,00 488,96 31/05/2021
1161 167300 CLAUDIA DO AMARAL XAVIER PROMOT.ENTRANC.ESPECIAL BELO HORIZONTE - COMARCA; BH-18PJ DIREITOS HUMANOS 1.198,00 0,00 1.865,51 0,00 14.598,61 0,00 0,00 0,00 514,69 31/05/2021
1162 1270500 CLAUDIA DUARTE DE MELO ESTAGIARIO 0,00 0,00 0,00 189,00 0,00 0,00 0,00 0,00 0,00 31/05/2021
1163 163100 CLAUDIA FERREIRA DE SOUZA PROMOT.ENTRANC.ESPECIAL BELO HORIZONTE - COMARCA; BH-02PJ FAMILIA-GAB 035PJ 1.198,00 0,00 1.822,12 0,00 5.614,85 0,00 0,00 0,00 514,69 31/05/2021
1164 174500 CLAUDIA FERREIRA PACHECO DE FREITAS PROMOT.ENTRANC.ESPECIAL BELO HORIZONTE - COMARCA; SECRETARIA-GERAL 1.198,00 0,00 3.123,64 0,00 16.844,55 0,00 0,00 0,00 514,69 31/05/2021
1165 167200 CLAUDIA FREDDO MARQUES CARVALHO PROMOT.ENTRANC.ESPECIAL UBERABA - COMARCA; COORD REG SAUDE MACROR SANIT TRIANGULO SUL 1.198,00 0,00 2.881,49 0,00 22.459,40 0,00 0,00 0,00 0,00 31/05/2021
1166 480400 CLAUDIA GOULART DE SOUZA OFICIAL DO MP PASSOS - COMARCA; PASSOS-PJ-06PJ 1.198,00 0,00 519,00 0,00 0,00 0,00 0,00 0,00 0,00 31/05/2021
1167 519800 CLAUDIA HELENA CORREA DE ALMEIDA ANALISTA DO MP BELO HORIZONTE - COMARCA; BH-12PJ JUIZO CRIMINAL-GAB 096PJ 1.198,00 0,00 519,00 0,00 0,00 0,00 0,00 0,00 0,00 31/05/2021
1168 422100 CLAUDIA IACOMINI CABRAL ANALISTA DO MP BELO HORIZONTE - COMARCA; CENT DE APOIO TEC-SETOR DEF,IDOSO E INFANC 1.198,00 0,00 519,00 0,00 884,78 0,00 0,00 0,00 81,10 31/05/2021
1169 258200 CLAUDIA LAGE MICHALAROS ANALISTA DO MP BELO HORIZONTE - COMARCA; CENTRAL DE APOIO TECN-SETOR DE MEIO AMBIENTE 1.198,00 0,00 519,00 0,00 0,00 0,00 0,00 0,00 0,00 31/05/2021
1170 284600 CLAUDIA LENI DE FREITAS OFICIAL DO MP CONTAGEM - COMARCA; CONTAGEM-PJ-SECRETARIA 1.198,00 0,00 519,00 0,00 0,00 0,00 0,00 0,00 0,00 31/05/2021
1171 175200 CLAUDIA LOPES SILVA SCIOLI PROMOT.ENTRANC.ESPECIAL POUSO ALEGRE - COMARCA; POUSO ALEGRE-PJ-07PJ 1.198,00 0,00 2.776,57 0,00 10.106,73 0,00 0,00 0,00 514,69 31/05/2021
1172 433600 CLAUDIA LUIZA SANTIAGO FELICIO ANALISTA DO MP BELO HORIZONTE - COMARCA; CENT DE APOIO TEC-SETOR DEF,IDOSO E INFANC 1.198,00 0,00 519,00 0,00 0,00 0,00 0,00 0,00 0,00 31/05/2021
1173 317000 CLAUDIA MACHADO ALVES ASSESSOR/OFICIAL BELO HORIZONTE - COMARCA; DIR GOVERNANCA TECNOLOGIA INFORMACAO 1.198,00 0,00 519,00 0,00 0,00 0,00 0,00 0,00 0,00 31/05/2021
1174 155300 CLAUDIA MACIEL MIRANDA OFICIAL DO MP CONGONHAS - COMARCA; CONGONHAS-PJ-02PJ 1.198,00 0,00 519,00 0,00 0,00 0,00 0,00 0,00 0,00 31/05/2021
1175 242200 CLAUDIA MICHELLE DIAS MUNIZ BALEEIRO OFICIAL DO MP MONTE AZUL - COMARCA; MONTE AZUL-PJ-SECRETARIA 1.198,00 0,00 519,00 0,00 0,00 0,00 0,00 0,00 0,00 31/05/2021
1176 236500 CLAUDIA NETO COMELLI PROMOT.ENTRANC.ESPECIAL CONTAGEM - COMARCA; CONTAGEM-PJ-20PJ 1.198,00 0,00 3.209,90 0,00 2.245,94 0,00 0,00 0,00 205,88 31/05/2021
1177 623000 CLAUDIA PATRICIA SILVA RODRIGUES RAPOSEIRAS OFICIAL DO MP PARÁ DE MINAS - COMARCA; PARA DE MINAS-PJ-02PJ 1.198,00 769,39 519,00 0,00 0,00 0,00 0,00 0,00 0,00 31/05/2021
1178 418400 CLAUDIA REGINA MARTINS BONIFACIO OFICIAL DO MP ITUIUTABA - COMARCA; ITUIUTABA-PJ-06PJ 1.198,00 0,00 519,00 0,00 0,00 0,00 0,00 0,00 0,00 31/05/2021
1179 498300 CLAUDIA SOUTO FARIAS BRAUN OFICIAL DO MP TEÓFILO OTONI - COMARCA; TEOFILO OTONI-PJ-SECRETARIA 1.198,00 0,00 519,00 0,00 0,00 0,00 0,00 0,00 0,00 31/05/2021
1180 79600 CLAUDIA SPRANGER E SILVA LUIZ MOTTA PROCURADOR DE JUSTICA BELO HORIZONTE - COMARCA; GABINETE DE PROCURADOR DE JUSTIÇA - SALA 706 1.198,00 0,00 1.193,06 0,00 0,00 0,00 0,00 0,00 0,00 31/05/2021
1181 206500 CLAUDIA VALERIA FONSECA ANDRADE ANALISTA DO MP BELO HORIZONTE - COMARCA; BH-23PJ INF-FISC MED SOC FEC 1.198,00 0,00 519,00 0,00 5.646,04 0,00 0,00 0,00 517,55 31/05/2021
1182 277500 CLAUDIO ANTONIO BORGES BRUNSWICK ALVARES OFICIAL DO MP BELO HORIZONTE - COMARCA; BH-15PJ M AMB 16PJ HAB URB-SECRETARIA 1.198,00 0,00 519,00 0,00 0,00 0,00 0,00 0,00 0,00 31/05/2021
1183 444800 CLAUDIO ARESIO DO CARMO ANALISTA DO MP SETE LAGOAS - COMARCA; SETE LAGOAS-PJ-01PJ 1.198,00 0,00 519,00 0,00 0,00 0,00 0,00 0,00 0,00 31/05/2021
1184 532100 CLAUDIO DANIEL FONSECA DE ALMEIDA PROMOTOR 2A ENTRANCIA MARIANA - COMARCA; MARIANA-PJ-02PJ 1.198,00 0,00 2.060,74 0,00 16.002,33 0,00 0,00 0,00 488,96 31/05/2021
1185 76700 CLAUDIO EMANUEL DA CUNHA PROCURADOR DE JUSTICA BELO HORIZONTE - COMARCA; GABINETE DE PROCURADOR DE JUSTIÇA - SALA 305 1.198,00 0,00 2.494,58 0,00 11.820,74 0,00 0,00 0,00 0,00 31/05/2021
1186 100500 CLAUDIO FERREIRA DE OLIVEIRA FILHO PROMOTOR 2A ENTRANCIA LAMBARI - COMARCA; LAMBARI-PJ-UNPJ 1.198,00 0,00 2.386,12 0,00 16.002,33 0,00 0,00 0,00 488,96 31/05/2021
1187 1098600 CLAUDIO HENRIQUE AMARAL DOS SANTOS ESTAGIARIO SANTA RITA DO SAPUCAI; SANTA RITA DO SAPUCAI-PJ-01PJ 0,00 0,00 0,00 54,00 0,00 0,00 0,00 0,00 0,00 31/05/2021
1188 545100 CLAUDIO HENRIQUE MACEDO DE SOUZA FRANSOZO ANALISTA DO MP OURO PRETO - COMARCA; OURO PRETO-PJ-03PJ 1.198,00 769,39 519,00 0,00 0,00 0,00 0,00 0,00 0,00 31/05/2021
1189 353500 CLAUDIO HENRIQUE PEDRO DA ROCHA OFICIAL DO MP BELO HORIZONTE - COMARCA; DIVISAO TRANSPORTES 1.198,00 0,00 519,00 0,00 0,00 0,00 0,00 0,00 0,00 31/05/2021
1190 265800 CLAUDIO KUPIDLOWSKY FERNANDES OFICIAL DO MP BELO HORIZONTE - COMARCA; SECRETARIA DO PROCON-MG 1.198,00 0,00 519,00 0,00 0,00 0,00 0,00 0,00 0,00 31/05/2021
1191 193600 CLAUDIO LEITE FONTES OFICIAL DO MP ITUIUTABA - COMARCA; ITUIUTABA-PJ-02PJ 1.198,00 0,00 519,00 0,00 0,00 0,00 0,00 0,00 0,00 31/05/2021
1192 102000 CLAUDIO LUIZ GONCALVES MARINS PROMOTOR 2A ENTRANCIA GUAXUPÉ - COMARCA; GUAXUPE-PJ-03PJ 1.198,00 0,00 2.386,12 0,00 26.670,55 0,00 0,00 0,00 488,96 31/05/2021
1193 163200 CLAUDIO MAIA DE BARROS PROMOT.ENTRANC.ESPECIAL BELO HORIZONTE - COMARCA; EXTINTA-NUCLEO DO TRIBUNAL DO JURI 1.198,00 0,00 2.624,73 0,00 0,00 0,00 0,00 0,00 0,00 31/05/2021
1194 329400 CLAUDIO MARCIO BERNARDES OFICIAL DO MP ITAÚNA - COMARCA; ITAUNA-PJ-03PJ 1.198,00 769,39 519,00 0,00 0,00 0,00 0,00 0,00 0,00 31/05/2021
1195 1221400 CLAUDIO ODARHA NASCIMENTO ESTAGIARIO CORINTO; CORINTO-PJ-UNPJ 0,00 0,00 0,00 180,00 0,00 0,00 0,00 0,00 0,00 31/05/2021
1196 270200 CLAUDIO RABELO ALVES OFICIAL DO MP FORMIGA - COMARCA; FORMIGA-PJ-03PJ 1.198,00 0,00 519,00 0,00 0,00 0,00 0,00 0,00 0,00 31/05/2021
1197 264700 CLAUDIO ROBERTO KFURI DE ARAUJO ANALISTA DO MP BELO HORIZONTE - COMARCA; CENTRAL DE APOIO TECNICO-SETOR DE INFORMATICA 1.198,00 0,00 519,00 0,00 0,00 0,00 0,00 0,00 0,00 31/05/2021
1198 188600 CLAUDIO SALES OFICIAL DO MP NEPOMUCENO - COMARCA; NEPOMUCENO-PJ-SECRETARIA 1.198,00 0,00 519,00 0,00 0,00 0,00 0,00 0,00 0,00 31/05/2021
1199 543300 CLAUDIO SILVA DE CARVALHO ANALISTA DO MP CAMPO BELO - COMARCA; CAMPO BELO-PJ-03PJ 1.198,00 0,00 519,00 0,00 0,00 0,00 0,00 0,00 0,00 31/05/2021
1200 144300 CLAUDIO VARELLA DE SOUZA PROCURADOR DE JUSTICA BELO HORIZONTE - COMARCA; GABINETE DE PROCURADOR DE JUSTIÇA - SALA 712 1.198,00 0,00 1.193,06 0,00 17.731,11 0,00 0,00 0,00 541,78 31/05/2021
1201 160700 CLAUDIO VICENTE HESS ASSESSOR BELO HORIZONTE - COMARCA; CENTRAL DE APOIO TECNICO-SETOR DE INFORMATICA 1.198,00 0,00 519,00 0,00 0,00 0,00 0,00 0,00 0,00 31/05/2021
1202 312900 CLAUDIO VIEIRA FIRPE OFICIAL DO MP BELO HORIZONTE - COMARCA; DIR RELACOES INSTITUCIONAIS 1.198,00 0,00 519,00 0,00 0,00 0,00 0,00 0,00 0,00 31/05/2021
1203 634100 CLEA CRISTINA GUERRA DE FREITAS COSTA OFICIAL DO MP BELO HORIZONTE - COMARCA; BH-18PJ VIOLENCIA DOMESTICA-SECRETARIA 1.198,00 718,10 519,00 0,00 0,00 0,00 0,00 0,00 0,00 31/05/2021
1204 244800 CLEBER AUGUSTO DO NASCIMENTO PROMOTOR 2A ENTRANCIA CAMPO BELO - COMARCA; CAMPO BELO-PJ-04PJ 1.198,00 0,00 3.200,47 0,00 16.002,33 0,00 0,00 0,00 488,96 31/05/2021
1205 439000 CLEBER COUTO PROMOT.ENTRANC.ESPECIAL PATOS DE MINAS - COMARCA; GAECO REGIONAL DE PATOS DE MINAS 1.198,00 0,00 2.342,73 0,00 16.844,55 0,00 0,00 0,00 514,69 31/05/2021
1206 459200 CLEIA ZILLE PEREIRA ANALISTA DO MP BELO HORIZONTE - COMARCA; BH-07PJ 01 TRIBUNAL JURI-SECRETARIA 1.198,00 0,00 519,00 0,00 0,00 0,00 0,00 0,00 0,00 31/05/2021
1207 481800 CLEIDE CARDOSO DA SILVA ANALISTA DO MP MANHUAÇU - COMARCA; MANHUACU-PJ-04PJ 1.198,00 0,00 519,00 0,00 0,00 0,00 0,00 0,00 0,00 31/05/2021
1208 225000 CLEIDE PEREIRA DA SILVA PROMOT.ENTRANC.ESPECIAL BELO HORIZONTE - COMARCA; BH-09PJ AUDITORIA MILITAR-GAB 161PJ 1.198,00 0,00 997,83 0,00 0,00 0,00 0,00 0,00 0,00 31/05/2021
1209 347600 CLEIDIMAR DE OLIVEIRA SILVA OFICIAL DO MP PATOS DE MINAS - COMARCA; PATOS DE MINAS-PJ-03PJ 1.198,00 0,00 519,00 0,00 0,00 0,00 0,00 0,00 0,00 31/05/2021
1210 396500 CLEIDISON BATISTA DE ANDRADE OFICIAL DO MP RESPLENDOR - COMARCA; RESPLENDOR-PJ-UNPJ 1.198,00 769,39 519,00 0,00 0,00 0,00 0,00 0,00 0,00 31/05/2021
1211 535100 CLEISON ALVES DA SILVA ANALISTA DO MP BOA ESPERANÇA - COMARCA; BOA ESPERANCA-PJ-01PJ 1.198,00 0,00 519,00 0,00 0,00 0,00 0,00 0,00 0,00 31/05/2021
1212 1227700 CLEITON EDUARDO BRANDAO DA SILVA ESTAGIARIO OLIVEIRA; OLIVEIRA-PJ-02PJ 0,00 0,00 0,00 180,00 0,00 0,00 0,00 0,00 0,00 31/05/2021
1213 298100 CLEONICE AUGUSTA BARROS DE OLIVEIRA ANALISTA DO MP JUIZ DE FORA - COMARCA; JUIZ DE FORA-PJ-08PJ 1.198,00 0,00 519,00 0,00 0,00 0,00 0,00 0,00 0,00 31/05/2021
1214 264100 CLETO HENRIQUE ANDRADE SILVA ANALISTA DO MP BELO HORIZONTE - COMARCA; DIRETORIA DE SISTEMAS DE INFORMACAO 1.198,00 0,00 519,00 0,00 5.648,25 0,00 0,00 0,00 517,76 31/05/2021
1215 334400 CLEUBA DE OLIVEIRA BARCELOS GONCALVES OFICIAL DO MP DIVINÓPOLIS - COMARCA; COORD REG SAUDE MACRORREGIAO SANITARIA OESTE 1.198,00 0,00 519,00 0,00 0,00 0,00 0,00 0,00 0,00 31/05/2021
1216 347500 CLEUSA CORDEIRO DA MATA PIMENTA OFICIAL DO MP CAMPO BELO - COMARCA; CAMPO BELO-PJ-02PJ 1.198,00 0,00 519,00 0,00 0,00 0,00 0,00 0,00 0,00 31/05/2021
1217 92400 CLEVERSON RAYMUNDO SBARZI GUEDES PROMOT.ENTRANC.ESPECIAL JUIZ DE FORA - COMARCA; JUIZ DE FORA-PJ-14PJ 1.198,00 0,00 3.145,33 0,00 16.844,55 0,00 0,00 0,00 514,69 31/05/2021
1218 675000 CLEVERTON FRANCISCO GONCALVES DA SILVA 1O.TENENTE 1.198,00 0,00 0,00 0,00 0,00 0,00 0,00 0,00 0,00 31/05/2021
1219 1231400 CLEYSON THIAGO PEREIRA COELHO ESTAGIARIO VICOSA; VICOSA-PJ-03PJ 0,00 0,00 0,00 171,00 0,00 0,00 0,00 0,00 0,00 31/05/2021
1220 510200 CLEZIO SALES SILVA OFICIAL DO MP BRASÓPOLIS - COMARCA; BRASOPOLIS-PJ-UNPJ 1.198,00 1.538,78 519,00 0,00 0,00 0,00 0,00 0,00 0,00 31/05/2021
1221 323000 CLOTILDE DE PADUA VIEIRA OFICIAL DO MP BELO HORIZONTE - COMARCA; BH-19PJ SAUDE-SECRETARIA 129PJ 1.198,00 0,00 519,00 0,00 0,00 0,00 0,00 0,00 0,00 31/05/2021
1222 285200 CLOVIS ANDRE LUDTKE OFICIAL DO MP BELO HORIZONTE - COMARCA; DIVISAO DE MANUTENCAO PREDIAL 1.198,00 0,00 519,00 0,00 0,00 0,00 0,00 0,00 0,00 31/05/2021
1223 381100 CONCEICAO APARECIDA TEIXEIRA ARANTES ANALISTA DO MP BELO HORIZONTE - COMARCA; BH-23PJ INFRACIONAL-ASS JURIDICA 1.198,00 769,39 519,00 0,00 0,00 0,00 0,00 0,00 0,00 31/05/2021
1224 1031700 CONRADO FIGUEIREDO ALMEIDA ESTAGIARIO SAO FRANCISCO; SAO FRANCISCO-PJ-01PJ 0,00 0,00 0,00 135,00 0,00 0,00 0,00 0,00 0,00 31/05/2021
1225 249900 CONSTANTINO CEZAR GOMES MOTA OFICIAL DO MP MONTES CLAROS - COMARCA; COORD REG BACIA RIOS VERDE GRANDE E PARDO 1.198,00 0,00 519,00 0,00 0,00 0,00 0,00 0,00 0,00 31/05/2021
1226 594800 COSME COELHO TEIXEIRA 3O.SARGENTO BELO HORIZONTE - COMARCA; NUCLEO DE CONTRAINTELIGENCIA 1.198,00 0,00 0,00 0,00 0,00 0,00 0,00 0,00 0,00 31/05/2021
1227 481000 CRISHMA ANALIA LOMBELLO ANALISTA DO MP JUIZ DE FORA - COMARCA; JUIZ DE FORA-PJ-13PJ 1.198,00 0,00 519,00 0,00 5.800,10 0,00 0,00 0,00 531,68 31/05/2021
1228 523900 CRISTHYANE BAZOLI COSTA GUEDES COUTO OFICIAL DO MP BELO HORIZONTE - COMARCA; BH-04PJ JUIZO REG PÚBLICOS-SECRETARIA 1.198,00 0,00 519,00 0,00 0,00 0,00 0,00 0,00 0,00 31/05/2021
1229 187000 CRISTIAN DAYVSON EVANGELISTA OFICIAL DO MP JUIZ DE FORA - COMARCA; JUIZ DE FORA-PJ-13PJ 1.198,00 0,00 519,00 0,00 0,00 0,00 0,00 0,00 0,00 31/05/2021
1230 245000 CRISTIAN LUCIO DA SILVA PROMOT.ENTRANC.ESPECIAL BELO HORIZONTE - COMARCA; BH-07PJ 03 TRIBUNAL DO JURI-GAB 064PJ 1.198,00 0,00 2.884,99 0,00 16.844,55 0,00 0,00 0,00 514,69 31/05/2021
1231 682100 CRISTIAN TRISTAO DE ANDRADE ASSESSOR PROMOTOR JUSTICA TRÊS CORACOES - COMARCA; TRES CORACOES-PJ-04PJ 1.198,00 0,00 519,00 0,00 0,00 0,00 0,00 0,00 0,00 31/05/2021
1232 319800 CRISTIANA GONCALVES DOS SANTOS GUSMAO OFICIAL DO MP PARAOPEBA - COMARCA; PARAOPEBA-PJ-UNPJ 1.198,00 0,00 519,00 0,00 0,00 0,00 0,00 0,00 0,00 31/05/2021
1233 520600 CRISTIANA JANAINA BARBOZA JUVENCIO DOS SANTOS ANALISTA DO MP BELO HORIZONTE - COMARCA; BH-02PJ FAMILIA-SECRETARIA 1.198,00 0,00 519,00 0,00 0,00 0,00 0,00 0,00 0,00 31/05/2021
1234 195600 CRISTIANA SOARES HALABI OFICIAL DO MP UBERABA - COMARCA; UBERABA-PJ-01PJ 1.198,00 0,00 519,00 0,00 867,96 0,00 0,00 0,00 79,56 31/05/2021
1235 218900 CRISTIANE ALVES BELLES OFICIAL DO MP JUIZ DE FORA - COMARCA; JUIZ DE FORA-PJ-10PJ 1.198,00 1.153,54 519,00 0,00 0,00 0,00 0,00 0,00 0,00 31/05/2021
1236 1212300 CRISTIANE APARECIDA CALDEIRA SILVA ESTAGIARIO CONTAGEM; CONTAGEM-PJ-09PJ 0,00 0,00 0,00 54,00 0,00 0,00 0,00 0,00 0,00 31/05/2021
1237 291600 CRISTIANE CAMPOS AMORIM BARONY PROMOTOR 2A ENTRANCIA CARANGOLA - COMARCA; CARANGOLA-PJ-03PJ 1.198,00 0,00 3.200,47 0,00 16.002,33 0,00 0,00 0,00 488,96 31/05/2021
1238 263600 CRISTIANE CARVALHO COUTINHO OFICIAL DO MP BELO HORIZONTE - COMARCA; BH-23PJ INFRACIONAL-SEC EXP 1.198,00 0,00 519,00 0,00 0,00 0,00 0,00 0,00 0,00 31/05/2021
1239 541000 CRISTIANE COELHO ALVES OFICIAL DO MP ITABIRA - COMARCA; ITABIRA-PJ-03PJ 1.198,00 0,00 519,00 0,00 0,00 0,00 0,00 0,00 0,00 31/05/2021
1240 441700 CRISTIANE CORRADO DE ANDRADE ANALISTA DO MP BELO HORIZONTE - COMARCA; DIRETORIA DE SISTEMAS DE INFORMACAO 1.198,00 0,00 519,00 0,00 0,00 0,00 0,00 0,00 0,00 31/05/2021
1241 375100 CRISTIANE DAS DORES ERCIO DE LIMA OFICIAL DO MP GOVERNADOR VALADARES - COMARCA; COOR REG APOIO COM INC MOB VALE DO RIO DOCE 1.198,00 0,00 519,00 0,00 0,00 0,00 0,00 0,00 0,00 31/05/2021
1242 1163300 CRISTIANE DE FREITAS SOARES ESTAGIARIO MANHUACU; MANHUACU-PJ-02PJ 0,00 0,00 0,00 189,00 0,00 0,00 0,00 0,00 0,00 31/05/2021
1243 178800 CRISTIANE DE LIMA HOSKEN OFICIAL DO MP BELO HORIZONTE - COMARCA; BH-14PJ DEFESA CONSUMIDOR-GAB 110PJ 1.198,00 0,00 519,00 0,00 3.420,93 0,00 0,00 0,00 313,59 31/05/2021
1244 494000 CRISTIANE DE MELO MARQUEZ OLIVEIRA ANALISTA DO MP UBERLÂNDIA - COMARCA; UBERLANDIA-PJ-06PJ 1.198,00 1.538,78 519,00 0,00 0,00 0,00 0,00 0,00 0,00 31/05/2021
1245 266100 CRISTIANE DE OLIVEIRA CASTRO OFICIAL DO MP BELO HORIZONTE - COMARCA; BH-14PJ DEFESA CONSUMIDOR-SECRETARIA 1.198,00 0,00 519,00 0,00 0,00 0,00 1.445,27 0,00 0,00 31/05/2021
1246 329500 CRISTIANE DOS REIS SILVA OFICIAL DO MP ARAXÁ - COMARCA; ARAXA-PJ-04PJ 1.198,00 0,00 519,00 0,00 0,00 0,00 0,00 0,00 0,00 31/05/2021
1247 301600 CRISTIANE GODINHO PIRES ANALISTA DO MP BETIM - COMARCA; BETIM-PJ-07PJ 1.198,00 0,00 519,00 0,00 5.226,26 0,00 0,00 0,00 479,07 31/05/2021
1248 406100 CRISTIANE GONCALVES CHAVES ANALISTA DO MP BELO HORIZONTE - COMARCA; BH-14PJ DEFESA CONSUMIDOR-GAB 112PJ 1.198,00 0,00 519,00 0,00 0,00 0,00 0,00 0,00 0,00 31/05/2021
1249 487600 CRISTIANE LOPES DE OLIVEIRA OFICIAL DO MP DIVINÓPOLIS - COMARCA; DIVINOPOLIS-PJ-03PJ 1.198,00 0,00 519,00 0,00 0,00 0,00 0,00 0,00 0,00 31/05/2021
1250 502500 CRISTIANE MACIEL DE OLIVEIRA GOMES ANALISTA DO MP JUIZ DE FORA - COMARCA; JUIZ DE FORA-PJ-05PJ 1.198,00 769,39 519,00 0,00 0,00 0,00 0,00 0,00 0,00 31/05/2021
1251 285500 CRISTIANE MAGALHAES LOURENCO ANALISTA DO MP BELO HORIZONTE - COMARCA; CENTRAL DE APOIO TECNICO-SETOR CONTABIL 1.198,00 0,00 519,00 0,00 905,52 0,00 0,00 0,00 83,01 31/05/2021
1252 536500 CRISTIANE MICHELE DE SOUZA ANALISTA DO MP BARÃO DE COCAIS - COMARCA; BARAO DE COCAIS-PJ-UNPJ 1.198,00 769,39 519,00 0,00 0,00 0,00 0,00 0,00 0,00 31/05/2021
1253 346600 CRISTIANE NOGUEIRA ANDRADE ANALISTA DO MP BELO HORIZONTE - COMARCA; CENTRAL DE APOIO TECNICO-SETOR CONTABIL 1.198,00 0,00 519,00 0,00 0,00 0,00 0,00 0,00 0,00 31/05/2021
1254 234000 CRISTIANE OLIVEIRA TOSTES OFICIAL DO MP JUIZ DE FORA - COMARCA; JUIZ DE FORA-PJ-08PJ 1.198,00 769,39 519,00 0,00 1.489,72 0,00 0,00 0,00 136,56 31/05/2021
1255 445800 CRISTIANE ORZIL COSTA OFICIAL DO MP SANTA LUZIA - COMARCA; SANTA LUZIA-PJ-05PJ 1.198,00 769,39 519,00 0,00 0,00 0,00 0,00 0,00 0,00 31/05/2021
1256 616100 CRISTIANE PAES RODRIGUES MARCICANO ANALISTA DO MP CATAGUASES - COMARCA; CATAGUASES-PJ-05PJ 1.198,00 1.538,78 519,00 0,00 0,00 0,00 0,00 0,00 0,00 31/05/2021
1257 1110700 CRISTIANE PIRES DAMASCENO ESTAGIARIO ITURAMA; ITURAMA-PJ-02PJ 0,00 0,00 0,00 189,00 0,00 0,00 0,00 0,00 0,00 31/05/2021
1258 612300 CRISTIANE RIBEIRO DOS REIS ARCANJO OFICIAL DO MP BELO HORIZONTE - COMARCA; DIRETORIA DE PAGAMENTO DE PESSOAL-DPAG
1259 257700 CRISTIANE RODRIGUES PAES NUNES ANALISTA DO MP BELO HORIZONTE - COMARCA; BH-22PJ PES COM DEF E IDOSOS-ORIENTACAO PSIC 1.198,00 769,39 519,00 0,00 978,65 0,00 0,00 0,00 89,71 31/05/2021
1260 510800 CRISTIANE SANTOS FERNANDES ORNELES ANALISTA DO MP BELO HORIZONTE - COMARCA; COORD ESTADUAL DAS PJS DE HAB. E URBANISMO 1.198,00 0,00 519,00 0,00 0,00 0,00 0,00 0,00 0,00 31/05/2021
1261 535701 CRISTIANE SANTOS MIRANDA ANALISTA DO MP BETIM - COMARCA; BETIM-PJ-12PJ 1.198,00 0,00 519,00 0,00 0,00 0,00 0,00 0,00 0,00 31/05/2021
1262 163400 CRISTIANO CASSIOLATO PROMOTOR 1A ENTRANCIA CARMO DO RIO CLARO - COMARCA; CARMO DO RIO CLARO-PJ-UNPJ 1.198,00 0,00 3.040,44 0,00 16.215,69 0,00 0,00 0,00 464,51 31/05/2021
1263 484000 CRISTIANO CESAR PIMENTA DAYRELL DA CUNHA PROMOT.ENTRANC.ESPECIAL SETE LAGOAS - COMARCA; SETE LAGOAS-PJ-01PJ 1.198,00 0,00 2.603,04 0,00 5.614,85 0,00 0,00 0,00 514,69 31/05/2021
1264 299901 CRISTIANO DA COSTA MATA PROMOT.ENTRANC.ESPECIAL IPATINGA - COMARCA; COORD REG SAUDE MACRORREGIAO SANIT VALE ACO 1.198,00 0,00 2.646,42 0,00 5.614,85 0,00 0,00 0,00 514,69 31/05/2021
1265 536200 CRISTIANO DE OLIVEIRA ANALISTA DO MP CONCEIÇÃO DO MATO DENTRO - COMARCA; CONCEICAO DO MATO DENTRO-PJ-UNPJ 1.198,00 -230,85 519,00 0,00 0,00 0,00 0,00 0,00 0,00 31/05/2021
1266 675100 CRISTIANO GERALDO CUNHA CABO BELO HORIZONTE - COMARCA; GAECO - SECRETARIA 1.198,00 0,00 0,00 0,00 0,00 0,00 0,00 0,00 0,00 31/05/2021
1267 440000 CRISTIANO MOREIRA SILVA PROMOTOR 2A ENTRANCIA CAPELINHA - COMARCA; CAPELINHA-PJ-02PJ 1.198,00 0,00 2.060,74 0,00 12.801,86 0,00 0,00 0,00 488,96 31/05/2021
1268 167400 CRISTIANO ROCHA GAZAL PROMOTOR 1A ENTRANCIA CAMBUQUIRA - COMARCA; CAMBUQUIRA-PJ-UNPJ 1.198,00 0,00 6.660,91 0,00 15.202,21 0,00 0,00 0,00 464,51 31/05/2021
1269 477400 CRISTIANO SOARES ELEUTERIO ANALISTA DO MP BELO HORIZONTE - COMARCA; BH-17PJ PATRIMONIO PUBLICO-SECRETARIA 1.198,00 0,00 519,00 0,00 0,00 0,00 0,00 0,00 0,00 31/05/2021
1270 449400 CRISTIANO TEIXEIRA RODRIGUES LANA ANALISTA DO MP BELO HORIZONTE - COMARCA; EXTINTA-COORD EST DEF DIR FAM PES DEFIC IDOSO 1.198,00 0,00 519,00 0,00 0,00 0,00 0,00 0,00 0,00 31/05/2021
1271 106600 CRISTINA BECHARA KALLAS PROMOTOR 2A ENTRANCIA PASSOS - COMARCA; PASSOS-PJ-03PJ 1.198,00 0,00 2.299,35 0,00 0,00 0,00 0,00 0,00 0,00 31/05/2021
1272 239400 CRISTINA DE FATIMA CRUZ E SILVA OFICIAL DO MP MONTE SANTO DE MINAS - COMARCA; MONTE SANTO DE MINAS-PJ-SECRETARIA 1.198,00 0,00 519,00 0,00 0,00 0,00 0,00 0,00 0,00 31/05/2021
1273 544000 CRISTINA DE OLIVEIRA TERRA ANALISTA DO MP SANTA LUZIA - COMARCA; SANTA LUZIA-PJ-07PJ 1.198,00 0,00 519,00 0,00 0,00 0,00 0,00 0,00 0,00 31/05/2021
1274 356800 CRISTINA DE PINHO BARROSO OFICIAL DO MP SABINÓPOLIS - COMARCA; SABINOPOLIS-PJ-UNPJ 1.198,00 0,00 519,00 0,00 0,00 0,00 0,00 0,00 0,00 31/05/2021
1275 649500 CRISTINA DO DIVINO ESPIRITO SANTOS OFICIAL DO MP DIVINÓPOLIS - COMARCA; DIVINOPOLIS-PJ-12PJ 1.198,00 0,00 519,00 0,00 0,00 0,00 0,00 0,00 0,00 31/05/2021
1276 218500 CRISTINA FAGUNDES SIQUEIRA PROMOTOR 2A ENTRANCIA ARAGUARI - COMARCA; ARAGUARI-PJ-04PJ 1.198,00 0,00 3.200,47 0,00 5.334,11 0,00 0,00 0,00 488,96 31/05/2021
1277 484500 CRISTINA FERREIRA LABARRERE NASCIMENTO PROMOTOR SUBSTITUTO CONTAGEM - COMARCA; CONTAGEM-PJ-11PJ 1.198,00 0,00 1.778,74 0,00 5.067,40 0,00 0,00 0,00 464,51 31/05/2021
1278 348201 CRISTINA MARIA DA SILVA ANALISTA DO MP ARAXÁ - COMARCA; ARAXA-PJ-06PJ 1.198,00 0,00 519,00 0,00 0,00 0,00 0,00 0,00 0,00 31/05/2021
1279 434900 CRISTINA MELO DE MADUREIRA ANALISTA DO MP BELO HORIZONTE - COMARCA; BH-07PJ 01 TRIBUNAL JURI-SECRETARIA 1.198,00 0,00 519,00 0,00 0,00 0,00 0,00 0,00 0,00 31/05/2021
1280 307700 CRISTINA TEIXEIRA MARQUES OFICIAL DO MP BELO HORIZONTE - COMARCA; CENTRAL DE APOIO TECNICO-SETOR CONTABIL 1.198,00 0,00 519,00 0,00 0,00 0,00 0,00 0,00 0,00 31/05/2021
1281 58700 CRISTOVAM JOAQUIM FERNANDES RAMOS FILHO PROCURADOR DE JUSTICA BELO HORIZONTE - COMARCA; PROC JUST ESP ACOES COMP ORIG CRIMINAL 0,00 0,00 1.301,52 0,00 0,00 0,00 0,00 0,00 0,00 31/05/2021
1282 265300 CRISTOVAO SANCHES DE MEDEIROS ANALISTA DO MP BELO HORIZONTE - COMARCA; DIRETORIA DE CONTABILIDADE 1.198,00 0,00 519,00 0,00 0,00 0,00 0,00 0,00 0,00 31/05/2021
1283 349800 CROZEIR LUIZ DA SILVA OFICIAL DO MP UNAÍ - COMARCA; UNAI-PJ-SECRETARIA 1.198,00 0,00 519,00 0,00 0,00 2.005,28 0,00 0,00 0,00 31/05/2021
1284 490500 CYNTHIA CRISTINA DE SOUZA OLIVEIRA VALENTE ANALISTA DO MP BELO HORIZONTE - COMARCA; BH-09PJ AUDITORIA MILITAR-SECRETARIA 1.198,00 0,00 519,00 0,00 0,00 0,00 0,00 0,00 0,00 31/05/2021
1285 344200 CYNTHIA DUARTE VILELA PROMOTOR 2A ENTRANCIA SABARÁ - COMARCA; SABARA-PJ-03PJ 1.198,00 0,00 1.823,82 0,00 16.002,33 0,00 0,00 0,00 488,96 31/05/2021
1286 389800 CYNTHIA GARIGLIO DOS SANTOS OFICIAL DO MP PERDIZES - COMARCA; PERDIZES-PJ-SECRETARIA 1.198,00 769,39 519,00 0,00 0,00 0,00 0,00 0,00 0,00 31/05/2021
1287 335101 CYNTHIA GONTIJO D ASSUNCAO ANALISTA DO MP BELO HORIZONTE - COMARCA; FEPDC-SECRETARIA EXECUTIVA 1.198,00 769,39 519,00 0,00 0,00 0,00 0,00 0,00 0,00 31/05/2021
1288 223600 CYNTHIA MARIA DOS SANTOS SILVA JORGE PROMOT.ENTRANC.ESPECIAL BELO HORIZONTE - COMARCA; BH-13PJ JUIZO DE TOXICOS-GAB 011PJ 1.198,00 0,00 2.537,96 0,00 28.074,25 0,00 0,00 0,00 514,69 31/05/2021
1289 531200 CYNTIA CAMPOS GIRO PROMOTOR 2A ENTRANCIA PONTE NOVA - COMARCA; PONTE NOVA-PJ-05PJ 1.198,00 0,00 1.626,90 0,00 0,00 0,00 0,00 0,00 0,00 31/05/2021
1290 269700 CYNTIA ROCHA CAVALCANTI OFICIAL DO MP UBERLÂNDIA - COMARCA; UBERLANDIA-PJ-06PJ 1.198,00 769,39 519,00 0,00 0,00 0,00 0,00 0,00 0,00 31/05/2021
1291 1276900 DAFINE EMILE ARAUJO ESTAGIARIO BELO HORIZONTE; DIRETORIA DE PRODUCAO EDITORIAL
1292 1282500 DAIANA APARECIDA DE JESUS DA SILVA ESTAGIARIO MURIAE; MURIAE-PJ-SECRETARIA 0,00 0,00 0,00 81,00 0,00 0,00 0,00 0,00 0,00 31/05/2021
1293 1214500 DAIANE CAROLINE DE PAULA ESTAGIARIO PIRANGA; PIRANGA-PJ-UNPJ 0,00 0,00 0,00 171,00 0,00 0,00 0,00 0,00 0,00 31/05/2021
1294 278000 DAIRTON LOPES MARTINS FILHO COORDENADOR/ANALISTA BELO HORIZONTE - COMARCA; DIRETORIA DE SISTEMAS DE INFORMACAO 1.198,00 0,00 519,00 0,00 0,00 0,00 0,00 0,00 0,00 31/05/2021
1295 392700 DALIANA CHAVES IBRAIM MARINHO OFICIAL DO MP ITAÚNA - COMARCA; ITAUNA-PJ-04PJ 1.198,00 0,00 519,00 0,00 0,00 0,00 0,00 0,00 0,00 31/05/2021
1296 1107100 DALILA MAGALHAES CABRAL ESTAGIARIO CONTAGEM; CONTAGEM-PJ-03PJ
1297 558101 DALLEY TASSIA SILVA ANALISTA DO MP MORADA NOVA DE MINAS - COMARCA; MORADA NOVA DE MINAS-PJ-UNPJ 1.198,00 1.538,78 519,00 0,00 0,00 0,00 0,00 0,00 0,00 31/05/2021
1298 1219700 DALMO HUSSID FERREIRA ESTAGIARIO UBERABA; UBERABA-PJ-16PJ 0,00 0,00 0,00 189,00 0,00 0,00 0,00 0,00 0,00 31/05/2021
1299 476700 DALTON DAUD ANALISTA DO MP ARAGUARI - COMARCA; ARAGUARI-PJ-05PJ 1.198,00 0,00 519,00 0,00 0,00 0,00 0,00 0,00 0,00 31/05/2021
1300 1013200 DAMARIS DE ARAUJO NASCIMENTO ESTAGIARIO TRES CORACOES; TRES CORACOES-PJ-02PJ 0,00 0,00 0,00 126,00 0,00 0,00 0,00 0,00 0,00 31/05/2021
1301 426900 DANIEL ALVES DA SILVA OFICIAL DO MP BELO HORIZONTE - COMARCA; DIVISAO TRANSPORTES 1.198,00 0,00 519,00 0,00 0,00 0,00 0,00 0,00 0,00 31/05/2021
1302 343900 DANIEL ANGELO DE OLIVEIRA RANGEL PROMOTOR 1A ENTRANCIA RIO PRETO - COMARCA; RIO PRETO-PJ-UNPJ 1.198,00 0,00 2.466,27 0,00 5.067,40 0,00 0,00 0,00 464,51 31/05/2021
1303 122000 DANIEL ANTONIO VIEIRA OFICIAL DO MP ENTRE-RIOS DE MINAS - COMARCA; ENTRE RIOS DE MINAS-PJ-SECRETARIA 1.198,00 0,00 519,00 0,00 0,00 0,00 0,00 0,00 0,00 31/05/2021
1304 685900 DANIEL AUGUSTO DE CAMARGO LIMA CAMPOS PROMOTOR SUBSTITUTO CONTAGEM - COMARCA; CONTAGEM-PJ-06PJ 1.198,00 0,00 715,83 0,00 0,00 0,00 0,00 0,00 0,00 31/05/2021
1305 311501 DANIEL BATISTA MENDES PROMOT.ENTRANC.ESPECIAL BELO HORIZONTE - COMARCA; BH-13ª PJ JUÍXO DE TÓXICOS 1.198,00 0,00 2.494,58 0,00 5.614,85 0,00 0,00 0,00 514,69 31/05/2021
1306 437801 DANIEL CASTRO E MELO PROMOTOR 2A ENTRANCIA JANAÚBA - COMARCA; JANAUBA-PJ-03PJ 1.198,00 0,00 0,00 0,00 16.002,33 0,00 0,00 0,00 488,96 31/05/2021
1307 313800 DANIEL DE OLIVEIRA MALARD PROMOT.ENTRANC.ESPECIAL BELO HORIZONTE - COMARCA; BH-18PJ VIOLENCIA DOMESTICA-GAB 185PJ 1.198,00 0,00 2.342,73 0,00 12.352,67 0,00 0,00 0,00 514,69 31/05/2021
1308 170200 DANIEL DE SA RODRIGUES PROMOT.ENTRANC.ESPECIAL BELO HORIZONTE - COMARCA; CAO-PATRIMONIO PUBLICO 1.198,00 0,00 3.368,91 0,00 5.614,85 0,00 0,00 0,00 514,69 31/05/2021
1309 456600 DANIEL DOS SANTOS RODRIGUES PROMOTOR 2A ENTRANCIA OURO PRETO - COMARCA; OURO PRETO-PJ-01PJ 1.198,00 0,00 3.200,47 0,00 0,00 0,00 0,00 0,00 0,00 31/05/2021
1310 411000 DANIEL FERREIRA DA SILVA ANALISTA DO MP GOVERNADOR VALADARES - COMARCA; GOVERNADOR VALADARES-PJ-15PJ 1.198,00 1.538,78 519,00 0,00 0,00 0,00 0,00 0,00 0,00 31/05/2021
1311 703500 DANIEL FILIPE DE DEUS SOARES ASSESSOR PROMOTOR JUSTICA ITABIRITO - COMARCA; ITABIRITO-PJ-02PJ 1.579,18 0,00 1.038,00 0,00 0,00 0,00 0,00 0,00 2.156,32 31/05/2021
1312 309000 DANIEL GOMES DOS SANTOS ANALISTA DO MP POÇOS DE CALDAS - COMARCA; POCOS DE CALDAS-PJ-03PJ 1.198,00 0,00 519,00 0,00 905,52 0,00 0,00 0,00 83,01 31/05/2021
1313 554500 DANIEL GOMES PEREIRA OFICIAL DO MP NANUQUE - COMARCA; NANUQUE-PJ-02PJ 1.198,00 0,00 519,00 0,00 0,00 0,00 0,00 0,00 0,00 31/05/2021
1314 453000 DANIEL GONCALVES PEREIRA ANALISTA DO MP UNAÍ - COMARCA; UNAI-PJ-02PJ 1.198,00 1.922,93 519,00 0,00 0,00 0,00 0,00 0,00 0,00 31/05/2021
1315 495500 DANIEL GUIMARAES CABRAL OFICIAL DO MP BELO HORIZONTE - COMARCA; BH-17PJ PATRIMONIO PUBLICO-SECRETARIA 1.198,00 0,00 519,00 0,00 0,00 0,00 0,00 0,00 0,00 31/05/2021
1316 442900 DANIEL GUIMARAES GONCALVES ANALISTA DO MP UBERLÂNDIA - COMARCA; UBERLANDIA-PJ-03PJ 1.198,00 0,00 519,00 0,00 0,00 0,00 0,00 0,00 0,00 31/05/2021
1317 1212400 DANIEL LAGE MACHADO SILVA ESTAGIARIO IPATINGA; COORD REG SAUDE MACRORREGIAO SANIT VALE ACO 0,00 0,00 0,00 63,00 0,00 0,00 0,00 0,00 0,00 31/05/2021
1318 634800 DANIEL LESSA COSTA PROMOT.ENTRANC.ESPECIAL MONTES CLAROS - COMARCA; COORD REG SAUDE MACRORREGIAO SANITARIA NORTE 1.198,00 0,00 2.238,28 0,00 16.844,55 0,00 0,00 0,00 514,69 31/05/2021
1319 1258100 DANIEL LIMA DA SILVA ESTAGIARIO NOVA PONTE; NOVA PONTE-PJ-UNPJ
1320 655900 DANIEL LUIZ DA SILVA ASSESSOR BELO HORIZONTE - COMARCA; DIV FISCAL ADM CONT TERCEIRIZACAO 1.198,00 0,00 519,00 0,00 0,00 0,00 0,00 0,00 0,00 31/05/2021
1321 209600 DANIEL MAROTTA MARTINEZ PROMOT.ENTRANC.ESPECIAL UBERLÂNDIA - COMARCA; UBERLANDIA-PJ-17PJ 1.198,00 0,00 3.368,91 0,00